Date StartTime U_cm/s V_cm/s W_cm/s Ustd_cm/s Vstd_cm/s Wstd_cm/s Uvar_(cm/s)^2 Vvar_(cm/s)^2 Wvar_(cm/s)^2 KE_(m/s)^2 TurbulentKE_(m/s)^2 HorizWindSpeed_cm/s FrictionSpeec_cm/s DragCoef SpeedOfSound_m/s SonicTemperature_C Pressure_mb 
11/18/2013  00:00:00      -48.147      -29.407        3.908       26.650       20.733       17.751      710.228      429.862      315.081        0.233        0.073       56.418       17.727        0.099      334.277        4.144      862.452
11/18/2013  00:01:00      -49.434      -20.468        5.345       22.261       17.499       14.117      495.568      306.207      199.280        0.195        0.050       53.503       12.906        0.058      334.322        4.219      862.439
11/18/2013  00:02:00      -64.635       -8.627        5.546       31.501       22.596       19.013      992.340      510.585      361.506        0.307        0.093       65.208       18.193        0.078      334.324        4.221      862.421
11/18/2013  00:03:00      -72.698      -18.876       -1.048       26.884       17.718       17.546      722.726      313.925      307.877        0.349        0.067       75.109       16.149        0.046      334.297        4.177      862.406
11/18/2013  00:04:00      -90.456      -15.659       -6.996       20.453       20.127       15.968      418.305      405.076      254.986        0.478        0.054       91.801       13.637        0.022      334.225        4.059      862.393
11/18/2013  00:05:00     -106.661      -36.562       -8.608       15.603       14.843       15.167      243.444      220.327      230.038        0.674        0.035      112.753        9.928        0.008      334.205        4.024      862.377
11/18/2013  00:06:00     -100.586      -30.691        0.036       20.871       19.902       16.711      435.613      396.092      279.246        0.608        0.056      105.164       13.638        0.017      334.136        3.910      862.363
11/18/2013  00:07:00      -77.560      -18.712        1.417       29.893       20.577       17.087      893.577      423.396      291.952        0.399        0.080       79.785       18.379        0.053      334.090        3.834      862.353
11/18/2013  00:08:00      -79.582      -15.593       -1.528       26.520       22.872       14.404      703.313      523.113      207.479        0.401        0.072       81.095       12.952        0.026      334.114        3.874      862.350
11/18/2013  00:09:00      -78.052      -12.546       -6.411       18.208       15.770       10.673      331.538      248.680      113.913        0.349        0.035       79.054        8.261        0.011      334.155        3.941      862.355
11/18/2013  00:10:00      -82.211       -0.918       -5.662       12.984        9.854        9.498      168.590       97.108       90.220        0.357        0.018       82.216        5.621        0.005      334.209        4.031      862.345
11/18/2013  00:11:00      -79.503        7.155       -8.080        9.936       11.109        7.194       98.734      123.404       51.749        0.336        0.014       79.825        4.776        0.004      334.235        4.074      862.341
11/18/2013  00:12:00      -89.525      -14.384       -9.427       12.837       15.894        9.675      164.797      252.618       93.599        0.441        0.026       90.674        7.597        0.007      334.263        4.121      862.338
11/18/2013  00:13:00     -103.577      -32.888       -4.982       13.431       11.736        9.880      180.404      137.741       97.622        0.613        0.021      108.673        4.345        0.002      334.129        3.900      862.348
11/18/2013  00:14:00     -110.084      -32.411       -2.171       13.395       13.035        8.589      179.434      169.908       73.767        0.680        0.021      114.756        6.287        0.003      334.111        3.868      862.351
11/18/2013  00:15:00      -86.024      -21.360       -2.393       20.262       16.776        9.967      410.559      281.448       99.340        0.433        0.040       88.636       10.108        0.013      334.019        3.715      862.338
11/18/2013  00:16:00      -90.168      -20.841        1.653       25.926       20.985       15.444      672.161      440.352      238.527        0.496        0.068       92.545       14.263        0.024      334.056        3.777      862.324
11/18/2013  00:17:00      -76.031      -21.369        2.883       39.736       23.041       18.316     1578.940      530.884      335.465        0.434        0.122       78.976       18.668        0.056      334.048        3.763      862.305
11/18/2013  00:18:00      -75.028      -21.681        2.998       37.278       19.209       17.991     1389.647      369.000      323.676        0.409        0.104       78.097       20.087        0.066      334.007        3.695      862.302
11/18/2013  00:19:00      -98.886      -23.348       -4.693       29.088       19.096       13.799      846.092      364.676      190.417        0.587        0.070      101.605       12.249        0.015      334.059        3.782      862.285
11/18/2013  00:20:00      -88.798      -14.216       -1.406       30.545       16.329       14.993      932.996      266.639      224.789        0.476        0.071       89.929       16.330        0.033      334.041        3.752      862.267
11/18/2013  00:21:00      -75.145      -34.471        2.392       28.649       25.099       15.387      820.774      629.945      236.763        0.426        0.084       82.674       13.805        0.028      334.013        3.707      862.255
11/18/2013  00:22:00     -100.257      -47.228        3.109       27.233       18.604       12.972      741.639      346.105      168.284        0.677        0.063      110.824       12.952        0.014      334.118        3.880      862.254
11/18/2013  00:23:00     -111.330      -44.061       -1.681       21.745       17.662       14.071      472.853      311.961      197.997        0.766        0.049      119.732       13.588        0.013      334.153        3.938      862.237
11/18/2013  00:24:00     -114.676      -43.374       -0.044       28.804       15.428       14.835      829.681      238.014      220.078        0.816        0.064      122.604       10.040        0.007      334.131        3.901      862.221
11/18/2013  00:25:00     -117.982      -36.187       -4.516       20.897       19.293       13.217      436.703      372.217      174.680        0.812        0.049      123.407       10.013        0.007      334.092        3.837      862.216
11/18/2013  00:26:00     -116.848      -44.030       -8.572       37.138       28.193       16.349     1379.215      794.832      267.287        0.905        0.122      124.868       17.934        0.021      334.103        3.855      862.218
11/18/2013  00:27:00     -124.115      -51.127        5.125       47.483       34.530       22.444     2254.598     1192.296      503.734        1.100        0.198      134.233       19.592        0.021      334.105        3.857      862.220
11/18/2013  00:28:00     -138.286      -42.622        3.660       40.796       29.301       20.859     1664.312      858.549      435.079        1.195        0.148      144.705       20.195        0.019      334.059        3.782      862.220
11/18/2013  00:29:00     -159.814      -48.700       -3.215       40.347       30.559       22.451     1627.866      933.834      504.037        1.549        0.153      167.069       21.943        0.017      334.008        3.696      862.219
11/18/2013  00:30:00     -126.981      -43.792        2.266       39.068       28.014       20.443     1526.314      784.763      417.921        1.039        0.136      134.321       19.980        0.022      333.893        3.507      862.212
11/18/2013  00:31:00     -152.702      -17.821       -3.292       46.138       29.024       26.453     2128.679      842.415      699.781        1.366        0.184      153.738       25.580        0.028      333.820        3.384      862.194
11/18/2013  00:32:00     -104.745      -30.595       -1.703       46.103       30.729       23.359     2125.493      944.281      545.625        0.776        0.181      109.122       22.929        0.044      333.824        3.391      862.167
11/18/2013  00:33:00     -108.160      -24.840        1.222       34.723       32.654       23.155     1205.696     1066.286      536.133        0.756        0.140      110.976       20.205        0.033      333.885        3.493      862.136
11/18/2013  00:34:00      -95.567      -30.100       -9.059       36.021       27.584       19.321     1297.495      760.872      373.289        0.628        0.122      100.195       13.199        0.017      333.914        3.541      862.107
11/18/2013  00:35:00      -97.993      -45.185       -7.848       25.805       23.433       15.506      665.900      549.102      240.424        0.658        0.073      107.909       13.309        0.015      333.915        3.542      862.091
11/18/2013  00:36:00     -106.180      -17.420        0.167       33.699       23.849       20.931     1135.604      568.780      438.106        0.686        0.107      107.600       18.196        0.029      333.890        3.501      862.070
11/18/2013  00:37:00     -125.599      -27.415       -7.689       29.019       19.559       14.631      842.087      382.547      214.081        0.901        0.072      128.556       15.428        0.014      333.904        3.524      862.048
11/18/2013  00:38:00     -148.279      -24.451      -12.292       25.716       19.084       19.459      661.335      364.217      378.656        1.207        0.070      150.281       13.746        0.008      333.927        3.562      862.036
11/18/2013  00:39:00     -140.439      -13.420      -12.949       28.472       18.111       17.358      810.671      328.024      301.283        1.076        0.072      141.079       16.993        0.015      333.934        3.574      862.029
11/18/2013  00:40:00     -139.110      -12.513      -12.491       25.789       19.105       16.661      665.051      365.011      277.577        1.049        0.065      139.672       15.581        0.012      333.853        3.440      862.024
11/18/2013  00:41:00     -142.676        6.795      -10.443       31.658       24.306       22.516     1002.224      590.765      506.962        1.131        0.105      142.838       18.519        0.017      333.907        3.529      862.015
11/18/2013  00:42:00     -167.530       26.456      -11.606       37.269       22.869       17.936     1389.011      522.978      321.700        1.557        0.112      169.606       13.003        0.006      333.989        3.666      862.014
11/18/2013  00:43:00     -154.918       18.885      -14.929       42.836       30.983       17.320     1834.929      959.938      299.992        1.384        0.155      156.065       19.976        0.016      333.937        3.579      862.005
11/18/2013  00:44:00     -141.019       -1.332      -14.629       30.148       32.712       21.920      908.877     1070.049      480.497        1.128        0.123      141.025       16.036        0.013      333.924        3.558      861.994
11/18/2013  00:45:00     -134.935      -46.017       -8.289       45.971       28.738       23.936     2113.358      825.891      572.946        1.195        0.176      142.565       24.470        0.029      333.854        3.441      861.996
11/18/2013  00:46:00     -139.172        0.546       -6.138       40.350       29.545       22.482     1628.143      872.934      505.421        1.121        0.150      139.173       18.139        0.017      333.807        3.363      861.992
11/18/2013  00:47:00     -174.155        9.791      -18.125       24.048       27.535       16.274      578.321      758.188      264.852        1.618        0.080      174.430       12.304        0.005      333.818        3.380      861.982
11/18/2013  00:48:00     -162.839       13.533      -18.780       38.583       32.840       24.118     1488.685     1078.490      581.694        1.510        0.157      163.401       20.684        0.016      333.733        3.242      861.979
11/18/2013  00:49:00     -176.367       16.948      -24.174       25.671       38.020       20.877      658.989     1445.557      435.849        1.726        0.127      177.180       15.163        0.007      333.681        3.153      861.973
11/18/2013  00:50:00     -109.942        1.909      -12.380       24.188       32.380       19.163      585.037     1048.460      367.216        0.712        0.100      109.959       11.998        0.012      333.645        3.095      861.949
11/18/2013  00:51:00     -149.991       21.207      -16.592       36.103       27.430       20.632     1303.414      752.388      425.696        1.285        0.124      151.483       17.076        0.013      333.752        3.272      861.936
11/18/2013  00:52:00     -147.217        3.352      -13.926       20.804       21.245       18.282      432.798      451.337      334.230        1.155        0.061      147.255        8.934        0.004      333.698        3.183      861.925
11/18/2013  00:53:00     -186.421       36.527      -11.624       26.114       20.244       14.942      681.934      409.839      223.274        1.877        0.066      189.966       12.989        0.005      333.798        3.347      861.915
11/18/2013  00:54:00     -198.070       -6.762      -23.659       40.913       26.050       24.614     1673.862      678.611      605.836        2.140        0.148      198.186       25.994        0.017      333.688        3.165      861.917
11/18/2013  00:55:00     -179.048      -15.035      -10.455       57.488       34.365       29.795     3304.850     1180.950      887.755        1.888        0.269      179.678       33.075        0.034      333.633        3.074      861.904
11/18/2013  00:56:00      -79.466       -6.669      -11.557       36.857       31.900       24.564     1358.466     1017.597      603.405        0.474        0.149       79.745       21.033        0.070      333.587        2.999      861.883
11/18/2013  00:57:00      -75.327      -19.340       -8.059       29.444       24.496       18.233      866.958      600.040      332.455        0.396        0.090       77.770       11.853        0.023      333.615        3.044      861.893
11/18/2013  00:58:00      -74.926      -40.049       -3.878       48.142       31.316       23.003     2317.625      980.709      529.140        0.553        0.191       84.958       25.448        0.090      333.656        3.114      861.890
11/18/2013  00:59:00      -53.222      -34.041       -5.992       34.456       23.085       15.189     1187.219      532.918      230.694        0.299        0.098       63.177       12.784        0.041      333.630        3.070      861.882
11/18/2013  01:00:00       -3.917      -11.720        3.328       17.261       13.761       10.003      297.940      189.356      100.053        0.038        0.029       12.357        7.042        0.325      333.651        3.107      861.884
11/18/2013  01:01:00        0.862      -37.019        3.847       12.792       10.020        7.709      163.647      100.406       59.433        0.085        0.016       37.029        3.872        0.011      333.697        3.183      861.879
11/18/2013  01:02:00      -38.270      -31.051       -2.550       24.565       12.668       10.242      603.445      160.483      104.908        0.165        0.043       49.283        7.008        0.020      333.695        3.177      861.866
11/18/2013  01:03:00      -67.011      -41.891       -5.200       27.572       19.108       14.329      760.234      365.097      205.320        0.380        0.067       79.027       12.775        0.026      333.613        3.043      861.852
11/18/2013  01:04:00      -91.692      -40.573      -15.558       18.089       11.929       10.642      327.200      142.293      113.246        0.544        0.029      100.268        9.259        0.009      333.629        3.069      861.838
11/18/2013  01:05:00      -73.468      -27.798      -15.575       12.047       13.590       11.719      145.139      184.676      137.339        0.344        0.023       78.551        7.125        0.008      333.660        3.120      861.813
11/18/2013  01:06:00      -69.227      -62.509      -21.615       18.132       21.308       13.231      328.752      454.046      175.063        0.506        0.048       93.273        7.275        0.006      333.689        3.169      861.803
11/18/2013  01:07:00      -48.669      -22.090        1.398       34.872       17.218       16.010     1216.057      296.454      256.309        0.231        0.088       53.448       14.603        0.075      333.689        3.168      861.792
11/18/2013  01:08:00     -115.383       -8.698      -12.553       27.775       20.486       15.541      771.463      419.686      241.536        0.749        0.072      115.711       11.294        0.010      333.639        3.085      861.784
11/18/2013  01:09:00     -111.253      -14.546      -12.874       17.618       16.728       11.785      310.404      279.820      138.895        0.674        0.036      112.200        7.804        0.005      333.613        3.041      861.771
11/18/2013  01:10:00     -117.048       -9.405      -16.891       22.721       11.118       11.137      516.240      123.617      124.024        0.742        0.038      117.425       11.592        0.010      333.606        3.030      861.766
11/18/2013  01:11:00     -100.778      -18.488      -19.632       26.698       21.558       13.697      712.767      464.755      187.611        0.612        0.068      102.459       14.187        0.019      333.618        3.050      861.755
11/18/2013  01:12:00     -118.213       -2.351      -13.080       22.470       19.017       13.187      504.898      361.636      173.903        0.760        0.052      118.237       11.115        0.009      333.591        3.007      861.754
11/18/2013  01:13:00     -135.062       -6.696      -21.400       19.886       12.780       12.584      395.454      163.338      158.369        0.973        0.036      135.228        6.766        0.003      333.550        2.937      861.760
11/18/2013  01:14:00     -104.539       -8.264      -14.889       18.669       20.685       14.165      348.514      427.874      200.659        0.610        0.049      104.865       10.063        0.009      333.519        2.885      861.766
11/18/2013  01:15:00     -111.049       -2.071      -18.661       28.628       21.992       13.723      819.569      483.637      188.308        0.709        0.075      111.069       12.559        0.013      333.486        2.830      861.767
11/18/2013  01:16:00      -94.981        1.087      -13.389       17.195       11.566       12.540      295.669      133.761      157.261        0.489        0.029       94.987        6.227        0.004      333.482        2.825      861.755
11/18/2013  01:17:00      -81.410      -16.003       -8.056       21.194       14.139       15.167      449.166      199.899      230.042        0.391        0.044       82.968       14.876        0.032      333.475        2.812      861.756
11/18/2013  01:18:00      -99.209      -29.668      -19.643       17.454       19.533       12.283      304.655      381.543      150.873        0.597        0.042      103.550       10.626        0.011      333.495        2.845      861.741
11/18/2013  01:19:00     -101.322      -25.504      -19.140       12.840       15.275        9.766      164.857      233.317       95.380        0.589        0.025      104.483        8.409        0.006      333.483        2.825      861.729
11/18/2013  01:20:00      -85.263      -15.649       -6.957       22.853       14.107       11.183      522.270      199.004      125.053        0.420        0.042       86.687        7.449        0.007      333.564        2.962      861.732
11/18/2013  01:21:00      -97.846      -25.165      -17.385       14.874       21.068       11.212      221.233      443.843      125.702        0.565        0.040      101.030        8.033        0.006      333.584        2.995      861.734
11/18/2013  01:22:00      -79.624      -39.690      -14.835       21.482       17.761       12.935      461.482      315.470      167.304        0.454        0.047       88.967       11.412        0.016      333.575        2.979      861.736
11/18/2013  01:23:00      -87.683      -32.427      -22.712       17.968       11.551        8.062      322.860      133.421       64.999        0.489        0.026       93.488        4.602        0.002      333.605        3.030      861.742
11/18/2013  01:24:00     -115.775      -29.677      -19.565       19.455       13.504        6.930      378.511      182.356       48.032        0.764        0.030      119.518        4.406        0.001      333.605        3.030      861.748
11/18/2013  01:25:00     -134.220      -29.121      -19.016       12.715       11.366       11.300      161.681      129.182      127.689        0.982        0.021      137.343        4.943        0.001      333.583        2.993      861.755
11/18/2013  01:26:00     -123.662      -14.889      -17.923       11.138       11.905        9.208      124.065      141.722       84.788        0.809        0.018      124.555        5.069        0.002      333.606        3.030      861.750
11/18/2013  01:27:00     -110.467      -13.371      -15.714       10.890       11.787        8.453      118.584      138.935       71.448        0.648        0.016      111.273        2.795        0.001      333.674        3.143      861.750
11/18/2013  01:28:00     -104.343      -21.673      -10.290       14.400       14.578       10.991      207.358      212.519      120.800        0.600        0.027      106.570        8.722        0.007      333.730        3.235      861.767
11/18/2013  01:29:00     -104.410      -29.628       -8.085       17.139       17.674       12.108      293.751      312.371      146.606        0.630        0.038      108.533        9.077        0.007      333.717        3.214      861.776
11/18/2013  01:30:00      -82.766      -30.276        0.126       19.453       17.593       13.261      378.402      309.503      175.861        0.432        0.043       88.130       11.442        0.017      333.655        3.111      861.786
11/18/2013  01:31:00      -90.368      -23.971       -2.748       23.017       14.445       11.933      529.800      208.644      142.385        0.481        0.044       93.493       13.241        0.020      333.696        3.181      861.790
11/18/2013  01:32:00      -66.326      -28.086        2.604       23.148       15.752       11.075      535.808      248.139      122.653        0.305        0.045       72.027       11.563        0.026      333.675        3.144      861.802
11/18/2013  01:33:00      -60.560      -33.143       -4.412       20.673       13.867       10.995      427.385      192.300      120.883        0.276        0.037       69.035        9.795        0.020      333.735        3.244      861.806
11/18/2013  01:34:00      -59.783      -23.202       -9.627        8.940        9.648        6.962       79.924       93.090       48.474        0.221        0.011       64.127        3.530        0.003      333.791        3.337      861.796
11/18/2013  01:35:00      -33.205      -29.444       -5.705       17.129       10.417        9.132      293.402      108.516       83.393        0.124        0.024       44.380        5.540        0.016      333.834        3.408      861.791
11/18/2013  01:36:00      -38.171      -29.953       -6.961       11.693        8.934        5.778      136.733       79.813       33.384        0.133        0.012       48.520        3.952        0.007      333.912        3.539      861.783
11/18/2013  01:37:00      -11.686       -7.855       -3.686        6.796        5.871        4.575       46.185       34.472       20.926        0.016        0.005       14.081        4.071        0.084      333.968        3.632      861.786
11/18/2013  01:38:00      -11.977       -5.830        1.428        7.981        4.881        5.859       63.692       23.823       34.325        0.015        0.006       13.320        2.293        0.030      333.953        3.607      861.789
11/18/2013  01:39:00        0.799        2.328        0.452        2.351        4.249        2.590        5.527       18.054        6.709        0.002        0.002        2.461        1.854        0.567      334.001        3.686      861.797
11/18/2013  01:40:00      -15.275        0.459       -1.483        7.419        4.618        3.609       55.041       21.327       13.022        0.016        0.004       15.282        3.302        0.047      334.005        3.692      861.803
11/18/2013  01:41:00      -38.024      -12.159        2.307        6.095        7.729        4.542       37.151       59.730       20.630        0.086        0.006       39.921        3.344        0.007      333.920        3.553      861.808
11/18/2013  01:42:00      -38.324      -18.353       -5.198        5.504        7.918        5.782       30.298       62.689       33.436        0.098        0.006       42.492        2.363        0.003      333.828        3.400      861.817
11/18/2013  01:43:00      -33.054      -15.268       -4.678        7.279        8.703        4.705       52.983       75.740       22.139        0.075        0.008       36.410        1.767        0.002      333.794        3.344      861.829
11/18/2013  01:44:00      -37.807      -18.472       -6.281        9.526        7.481        5.494       90.753       55.967       30.179        0.099        0.009       42.078        3.266        0.006      333.814        3.375      861.834
11/18/2013  01:45:00      -39.219      -14.956       -9.972        7.442        9.616        7.688       55.388       92.475       59.103        0.103        0.010       41.974        5.833        0.019      333.842        3.424      861.830
11/18/2013  01:46:00      -49.154       -2.635        2.637       14.812       10.055       12.173      219.381      101.099      148.191        0.145        0.023       49.224        8.922        0.033      333.911        3.537      861.836
11/18/2013  01:47:00      -43.446        2.516        0.505       11.849        7.336        7.879      140.405       53.816       62.079        0.108        0.013       43.518        7.980        0.034      333.929        3.566      861.847
11/18/2013  01:48:00      -72.233        8.964       -4.053        9.235       11.929        5.900       85.288      142.305       34.815        0.279        0.013       72.788        3.611        0.002      333.904        3.526      861.859
11/18/2013  01:49:00      -53.497      -21.808      -11.543       10.868       13.063        6.920      118.112      170.651       47.891        0.190        0.017       57.771        6.247        0.012      333.821        3.387      861.865
11/18/2013  01:50:00      -34.901      -16.116      -14.150        8.515       10.550        6.541       72.507      111.313       42.789        0.095        0.011       38.443        5.022        0.017      333.822        3.389      861.868
11/18/2013  01:51:00      -41.569      -35.013       -8.716       12.782       16.472        7.795      163.381      271.333       60.768        0.176        0.025       54.349        6.583        0.015      333.747        3.265      861.878
11/18/2013  01:52:00      -21.731      -37.583       -7.841       17.951       22.421       15.362      322.236      502.716      235.986        0.150        0.053       43.413       14.224        0.107      333.633        3.076      861.881
11/18/2013  01:53:00      -49.483      -34.057       -3.965       12.827       12.754        8.677      164.527      162.670       75.285        0.201        0.020       60.070        6.313        0.011      333.692        3.173      861.889
11/18/2013  01:54:00      -42.205      -25.913       -4.566       14.956        8.071        8.277      223.685       65.136       68.513        0.142        0.018       49.525        5.919        0.014      333.666        3.130      861.888
11/18/2013  01:55:00      -31.655       -1.324       -2.856       24.755       12.955        7.064      612.827      167.820       49.898        0.092        0.042       31.683        8.285        0.068      333.996        3.677      861.897
11/18/2013  01:56:00      -24.238      -13.481       -4.093       14.568        9.702        6.687      212.224       94.127       44.710        0.057        0.018       27.735        6.317        0.052      333.763        3.291      861.893
11/18/2013  01:57:00      -36.596       -3.053       -5.231       11.780        9.043        6.791      138.774       81.767       46.113        0.082        0.013       36.723        6.363        0.030      333.790        3.338      861.893
11/18/2013  01:58:00      -47.398      -13.145       -7.600       16.079       10.129        8.915      258.524      102.595       79.474        0.146        0.022       49.187        8.918        0.033      333.784        3.327      861.896
11/18/2013  01:59:00      -62.622      -21.487       -9.878       13.437        9.952        9.080      180.543       99.048       82.455        0.242        0.018       66.206        6.837        0.011      333.509        2.869      861.898
11/18/2013  02:00:00      -81.572      -11.392      -13.957        9.525        8.828        7.288       90.724       77.942       53.118        0.360        0.011       82.364        3.356        0.002      333.431        2.739      861.886
11/18/2013  02:01:00      -61.130      -17.857      -11.881        8.742        8.133        7.056       76.418       66.138       49.794        0.219        0.010       63.685        3.979        0.004      333.451        2.775      861.876
11/18/2013  02:02:00      -61.466      -14.691      -15.290       13.605        8.439        8.976      185.110       71.212       80.572        0.228        0.017       63.197        7.093        0.013      333.446        2.765      861.876
11/18/2013  02:03:00      -65.927      -11.406       -9.993       11.124        8.807        7.534      123.733       77.568       56.754        0.242        0.013       66.906        2.414        0.001      333.421        2.724      861.883
11/18/2013  02:04:00      -79.674      -19.788      -14.826       12.656       11.249        8.765      160.166      126.550       76.820        0.366        0.018       82.095        5.426        0.004      333.369        2.639      861.901
11/18/2013  02:05:00      -78.396      -28.251      -15.860       13.853       12.436        8.091      191.897      154.664       65.468        0.380        0.021       83.331        6.913        0.007      333.428        2.736      861.906
11/18/2013  02:06:00      -75.407      -25.512      -15.643        9.805        8.833       10.396       96.133       78.021      108.071        0.343        0.014       79.606        5.266        0.004      333.453        2.777      861.919
11/18/2013  02:07:00      -78.233      -15.459      -15.240       10.374       10.090        8.514      107.620      101.814       72.494        0.344        0.014       79.746        5.075        0.004      333.461        2.790      861.919
11/18/2013  02:08:00      -94.990       -8.534       -9.589       22.907       13.840       13.842      524.749      191.538      191.603        0.505        0.045       95.373       11.913        0.016      333.420        2.722      861.915
11/18/2013  02:09:00      -61.664       -8.483       -8.719       17.791       14.991       11.078      316.520      224.724      122.721        0.231        0.033       62.245        8.621        0.019      333.381        2.659      861.900
11/18/2013  02:10:00      -57.405        3.857      -13.566       12.828       18.236        8.006      164.561      332.563       64.097        0.203        0.028       57.534        7.669        0.018      333.510        2.871      861.876
11/18/2013  02:11:00      -40.871        6.552      -13.233       16.482        8.646       12.479      271.646       74.750      155.721        0.120        0.025       41.393       10.998        0.071      333.812        3.371      861.855
11/18/2013  02:12:00       21.420       13.274        3.634        4.795        5.738        4.687       22.988       32.929       21.965        0.036        0.004       25.199        3.506        0.019      334.225        4.058      861.831
11/18/2013  02:13:00        8.108        7.396        3.983       11.575        5.930        3.648      133.983       35.164       13.310        0.016        0.009       10.974        3.248        0.088      334.170        3.967      861.810
11/18/2013  02:14:00      -29.459        7.347       -1.986       19.924       12.286        7.149      396.970      150.940       51.110        0.076        0.030       30.362       10.020        0.109      333.919        3.549      861.788
11/18/2013  02:15:00      -27.505      -34.644      -15.232       12.086       15.853        8.790      146.062      251.320       77.270        0.133        0.024       44.235        6.736        0.023      333.538        2.919      861.768
11/18/2013  02:16:00      -23.166      -30.544       -7.626       12.865       12.734        9.377      165.511      162.146       87.931        0.097        0.021       38.336        4.270        0.012      333.497        2.850      861.742
11/18/2013  02:17:00      -38.589      -18.595       -6.366       14.220       12.392        8.828      202.197      153.560       77.928        0.115        0.022       42.835        6.855        0.026      333.421        2.725      861.718
11/18/2013  02:18:00      -31.125        3.426       -2.833       13.633       10.201        8.055      185.854      104.057       64.881        0.067        0.018       31.313        7.295        0.054      333.558        2.952      861.690
11/18/2013  02:19:00       36.462        8.806        9.902       15.950       13.226        8.678      254.404      174.923       75.301        0.100        0.025       37.510        2.731        0.005      334.154        3.940      861.658
11/18/2013  02:20:00       39.190        4.436       10.256       20.838       13.744        7.983      434.227      188.896       63.733        0.117        0.034       39.440        7.276        0.034      334.110        3.866      861.634
11/18/2013  02:21:00        8.876       -4.658        7.122       21.114       16.281        8.124      445.798      265.080       66.002        0.046        0.039       10.024        6.473        0.417      334.011        3.703      861.618
11/18/2013  02:22:00      -38.482      -27.092       -2.920       17.788        8.125        8.266      316.402       66.013       68.319        0.134        0.023       47.062        8.010        0.029      333.461        2.791      861.604
11/18/2013  02:23:00      -75.650      -12.435      -13.190       19.292       15.545        9.709      372.195      241.654       94.264        0.338        0.035       76.666        8.237        0.012      333.225        2.400      861.591
11/18/2013  02:24:00     -100.392        7.409      -15.553       15.445       12.249       13.196      238.550      150.038      174.134        0.547        0.028      100.665        5.522        0.003      333.304        2.533      861.579
11/18/2013  02:25:00      -87.071      -12.903      -18.347       22.914        9.587        9.209      525.072       91.905       84.814        0.439        0.035       88.022        6.135        0.005      333.276        2.484      861.567
11/18/2013  02:26:00      -81.895       -8.970      -10.689       30.493       11.055       10.191      929.845      122.207      103.864        0.403        0.058       82.385       14.153        0.030      333.260        2.457      861.559
11/18/2013  02:27:00     -110.867      -13.371      -14.263       17.582       13.879       12.086      309.140      192.632      146.070        0.666        0.032      111.671        9.006        0.007      333.339        2.588      861.558
11/18/2013  02:28:00      -94.268      -15.737      -12.223       31.585       23.642       16.190      997.584      558.940      262.102        0.555        0.091       95.573       15.618        0.027      333.295        2.517      861.560
11/18/2013  02:29:00      -82.105      -22.936       -4.655       22.596       26.978       15.411      510.594      727.804      237.496        0.438        0.074       85.249       12.771        0.022      333.230        2.407      861.564
11/18/2013  02:30:00      -59.959       -7.238       -9.102       18.332       24.252       11.796      336.050      588.153      139.146        0.240        0.053       60.394        9.816        0.026      333.306        2.534      861.565
11/18/2013  02:31:00      -62.612      -26.290      -14.773       15.223       21.277       13.516      231.754      452.715      182.692        0.285        0.043       67.907        9.886        0.021      333.227        2.403      861.564
11/18/2013  02:32:00      -66.404      -24.261      -11.870       19.047       17.811       13.842      362.776      317.222      191.590        0.301        0.044       70.697        8.374        0.014      333.163        2.296      861.559
11/18/2013  02:33:00      -75.487      -37.815       -9.260       28.290       21.169       10.174      800.312      448.139      103.507        0.428        0.068       84.429        9.588        0.013      333.123        2.233      861.564
11/18/2013  02:34:00      -85.919      -17.160      -12.728       20.096       12.154        9.935      403.863      147.713       98.700        0.424        0.033       87.616        6.539        0.006      333.106        2.204      861.565
11/18/2013  02:35:00      -47.004      -27.467      -13.351       15.815       19.945       13.258      250.120      397.807      175.774        0.198        0.041       54.441        6.798        0.016      333.120        2.227      861.559
11/18/2013  02:36:00      -77.897      -46.177      -13.564       19.904       17.187       10.998      396.181      295.399      120.956        0.460        0.041       90.555        8.064        0.008      333.100        2.193      861.543
11/18/2013  02:37:00      -72.696      -29.763      -16.146       21.957       22.539       13.793      482.097      508.014      190.244        0.381        0.059       78.553        9.506        0.015      333.056        2.121      861.530
11/18/2013  02:38:00      -64.209      -26.496       -8.511       29.647       24.292       18.676      878.953      590.086      348.788        0.336        0.091       69.461       16.603        0.057      333.020        2.062      861.518
11/18/2013  02:39:00      -69.900      -23.302       -9.515       17.639       15.254       12.089      311.128      232.670      146.155        0.310        0.034       73.682        9.555        0.017      333.075        2.151      861.501
11/18/2013  02:40:00      -89.527      -27.523      -18.762       11.305       20.908       12.491      127.797      437.155      156.015        0.492        0.036       93.663       11.042        0.014      332.975        1.988      861.485
11/18/2013  02:41:00      -88.801      -22.876      -13.838       18.298       16.563       12.414      334.816      274.323      154.115        0.468        0.038       91.700        8.648        0.009      332.871        1.817      861.470
11/18/2013  02:42:00      -89.438      -34.696      -14.750       26.439       26.187       15.265      699.015      685.736      233.027        0.552        0.081       95.932        7.159        0.006      332.908        1.878      861.466
11/18/2013  02:43:00      -85.889      -16.417      -15.762       28.221       22.422       14.747      796.398      502.757      217.468        0.471        0.076       87.444       12.730        0.021      332.894        1.854      861.464
11/18/2013  02:44:00      -71.574      -22.809      -12.823       17.008       19.061       13.887      289.282      363.336      192.838        0.333        0.042       75.120        8.474        0.013      332.912        1.884      861.468
11/18/2013  02:45:00      -74.979      -22.541      -17.563       15.479       16.472       11.188      239.593      271.329      125.167        0.354        0.032       78.294       11.016        0.020      332.936        1.924      861.458
11/18/2013  02:46:00      -69.132      -24.068      -15.597       16.665       21.173       10.890      277.713      448.311      118.589        0.322        0.042       73.202       11.135        0.023      332.917        1.892      861.452
11/18/2013  02:47:00      -71.759       -8.357      -10.202       18.682       19.340       13.408      349.033      374.033      179.772        0.311        0.045       72.244       13.292        0.034      332.927        1.909      861.460
11/18/2013  02:48:00      -70.867      -11.729      -16.750       15.075       14.449       10.779      227.255      208.761      116.191        0.300        0.028       71.831        6.902        0.009      333.047        2.105      861.467
11/18/2013  02:49:00      -70.613      -33.054      -17.370       14.850       15.754       11.141      220.536      248.192      124.133        0.349        0.030       77.967        8.541        0.012      332.966        1.972      861.471
11/18/2013  02:50:00      -90.548      -36.982      -17.650       22.307       17.410       12.849      497.603      303.091      165.101        0.542        0.048       97.809        7.957        0.007      332.933        1.918      861.464
11/18/2013  02:51:00      -85.372      -35.741      -13.792       20.680       21.085       15.913      427.645      444.594      253.214        0.494        0.056       92.552       11.685        0.016      332.876        1.824      861.464
11/18/2013  02:52:00     -110.315      -33.933      -12.259       31.453       23.623       17.396      989.294      558.049      302.618        0.766        0.092      115.416       12.452        0.012      332.855        1.790      861.472
11/18/2013  02:53:00     -144.207      -26.991      -19.394       30.814       26.695       17.969      949.530      712.600      322.888        1.194        0.099      146.711       12.719        0.008      332.788        1.678      861.462
11/18/2013  02:54:00      -95.601      -25.640       -6.314       23.005       24.821       14.508      529.235      616.081      210.496        0.560        0.068       98.980       10.208        0.011      332.856        1.793      861.442
11/18/2013  02:55:00      -68.761      -14.289      -10.111       24.618       20.687       14.386      606.068      427.943      206.950        0.314        0.062       70.230       11.966        0.029      332.896        1.855      861.418
11/18/2013  02:56:00      -48.461      -27.858       -8.102       31.665       20.717       13.031     1002.685      429.207      169.800        0.240        0.080       55.898       11.384        0.041      332.959        1.961      861.399
11/18/2013  02:57:00      -66.445      -26.050      -15.785       15.206       18.377       13.463      231.214      337.719      181.254        0.305        0.038       71.369        7.013        0.010      333.041        2.096      861.373
11/18/2013  02:58:00      -79.655      -12.997      -17.839       13.296       13.869       14.464      176.776      192.355      209.213        0.371        0.029       80.708        9.923        0.015      332.955        1.955      861.348
11/18/2013  02:59:00      -54.062      -22.226      -15.918       17.305       17.171       15.930      299.446      294.857      253.768        0.226        0.042       58.453       11.128        0.036      333.000        2.028      861.328
11/18/2013  03:00:00      -58.969      -23.711      -18.758       11.616       16.464        9.800      134.923      271.051       96.047        0.245        0.025       63.557        9.529        0.022      333.148        2.271      861.313
11/18/2013  03:01:00     -102.397      -35.050      -18.868       22.056       13.559       11.817      486.454      183.846      139.649        0.644        0.040      108.230        8.120        0.006      332.929        1.913      861.293
11/18/2013  03:02:00     -112.742      -17.183      -18.823       18.934       15.500       18.901      358.484      240.256      357.248        0.716        0.048      114.044        9.637        0.007      332.864        1.805      861.283
11/18/2013  03:03:00      -97.903      -34.612      -14.221       18.765       22.149       14.854      352.113      490.567      220.642        0.602        0.053      103.841       12.352        0.014      332.865        1.806      861.278
11/18/2013  03:04:00     -110.349      -30.474      -16.608       23.667       17.886       16.616      560.116      319.914      276.103        0.727        0.058      114.480       12.238        0.011      332.804        1.705      861.271
11/18/2013  03:05:00     -110.661      -18.235      -19.306       18.687       18.938       14.068      349.208      358.638      197.923        0.693        0.045      112.153       10.548        0.009      332.781        1.667      861.260
11/18/2013  03:06:00     -110.336      -31.911      -12.666       20.092       22.602       14.491      403.684      510.871      209.992        0.724        0.056      114.858       10.414        0.008      332.825        1.741      861.265
11/18/2013  03:07:00     -114.155      -36.077      -23.786       28.954       21.044       14.546      838.309      442.861      211.588        0.820        0.075      119.721       12.215        0.010      332.715        1.559      861.270
11/18/2013  03:08:00     -123.483      -44.235       -4.910       38.769       35.153       26.408     1503.018     1235.719      697.357        1.033        0.172      131.167       20.853        0.025      332.692        1.520      861.277
11/18/2013  03:09:00     -120.766      -33.573      -12.817       35.971       30.057       17.847     1293.913      903.434      318.516        0.920        0.126      125.346       15.945        0.016      332.706        1.544      861.291
11/18/2013  03:10:00      -98.296      -44.596       -1.193       39.712       41.294       26.153     1577.076     1705.214      683.983        0.781        0.198      107.939       20.473        0.036      332.647        1.446      861.304
11/18/2013  03:11:00      -94.389      -34.527       -8.814       34.325       42.474       21.060     1178.227     1804.004      443.526        0.680        0.171      100.506       17.549        0.030      332.671        1.485      861.302
11/18/2013  03:12:00      -88.631      -22.703       -2.637       41.166       37.802       25.614     1694.679     1428.996      656.079        0.608        0.189       91.493       17.042        0.035      332.672        1.486      861.304
11/18/2013  03:13:00      -70.705       -6.505       -0.421       31.157       33.632       23.434      970.761     1131.136      549.170        0.385        0.133       71.004       14.470        0.042      332.762        1.636      861.316
11/18/2013  03:14:00      -76.669      -50.707       -6.857       45.570       33.050       25.768     2076.606     1092.320      663.996        0.616        0.192       91.920       15.252        0.028      332.695        1.525      861.310
11/18/2013  03:15:00      -87.165      -38.853       -2.635       55.433       42.912       25.266     3072.838     1841.433      638.369        0.733        0.278       95.432       20.909        0.048      332.606        1.377      861.302
11/18/2013  03:16:00      -89.463      -32.829       -0.353       43.294       28.259       22.902     1874.356      798.573      524.502        0.614        0.160       95.296       21.770        0.052      332.711        1.552      861.301
11/18/2013  03:17:00      -68.573      -28.050       -0.739       37.977       30.075       19.035     1442.226      904.521      362.344        0.410        0.135       74.089       15.412        0.043      332.753        1.622      861.297
11/18/2013  03:18:00     -108.651      -29.580       -3.960       18.920       22.578       14.017      357.956      509.776      196.481        0.688        0.053      112.606        6.644        0.003      332.679        1.500      861.277
11/18/2013  03:19:00     -118.815      -37.794       -8.314       20.381       22.091       15.407      415.388      487.994      237.371        0.838        0.057      124.681        6.043        0.002      332.684        1.507      861.261
11/18/2013  03:20:00     -137.641      -34.025       -9.637       29.486       27.907       16.776      869.436      778.799      281.430        1.106        0.096      141.784        5.084        0.001      332.687        1.510      861.261
11/18/2013  03:21:00     -103.224      -18.225       -5.297       37.770       30.094       19.849     1426.574      905.643      393.995        0.687        0.136      104.820       19.815        0.036      332.598        1.365      861.255
11/18/2013  03:22:00     -114.013      -24.851       -3.541       35.760       25.705       19.029     1278.800      660.751      362.097        0.796        0.115      116.690        8.865        0.006      332.674        1.489      861.247
11/18/2013  03:23:00     -114.335      -32.554       -5.253       38.478       33.691       21.503     1480.571     1135.095      462.394        0.862        0.154      118.879       19.121        0.026      332.653        1.455      861.247
11/18/2013  03:24:00     -131.600      -35.247       -9.008       36.639       36.232       21.838     1342.435     1312.782      476.891        1.089        0.157      136.238       18.580        0.019      332.647        1.445      861.257
11/18/2013  03:25:00     -140.715      -20.593       -5.713       42.846       27.633       24.576     1835.783      763.598      603.966        1.173        0.160      142.214       26.357        0.034      332.663        1.472      861.259
11/18/2013  03:26:00     -114.684       10.186      -12.997       56.892       25.604       16.909     3236.692      655.568      285.923        0.880        0.209      115.135       17.996        0.024      332.698        1.529      861.253
11/18/2013  03:27:00     -156.381        4.235      -20.533       27.136       22.114       18.256      736.348      489.037      333.276        1.323        0.078      156.438       13.844        0.008      332.695        1.525      861.254
11/18/2013  03:28:00     -144.112       12.879      -12.723       45.886       31.415       22.206     2105.502      986.888      493.088        1.234        0.179      144.686       23.332        0.026      332.721        1.569      861.234
11/18/2013  03:29:00     -147.565       14.903       -7.808       29.283       26.884       18.619      857.500      722.746      346.664        1.199        0.096      148.315       14.117        0.009      332.747        1.611      861.218
11/18/2013  03:30:00     -140.170       27.272       -6.268       38.493       26.751       18.691     1481.732      715.607      349.368        1.149        0.127      142.798       16.085        0.013      332.784        1.673      861.202
11/18/2013  03:31:00     -133.309        8.569       -2.805       45.195       26.436       23.131     2042.573      698.882      535.043        1.056        0.164      133.585       22.097        0.027      332.794        1.690      861.200
11/18/2013  03:32:00     -181.782       21.841      -12.650       40.081       35.710       17.911     1606.487     1275.211      320.820        1.844        0.160      183.089       15.185        0.007      332.926        1.906      861.204
11/18/2013  03:33:00     -129.136      -13.932       -2.462       31.645       40.687       23.639     1001.396     1655.439      558.820        1.005        0.161      129.885       16.238        0.016      332.827        1.744      861.196
11/18/2013  03:34:00     -133.528       -6.814      -11.336       35.969       36.709       22.418     1293.739     1347.537      502.582        1.057        0.157      133.702       13.934        0.011      332.819        1.731      861.190
11/18/2013  03:35:00     -165.780       14.430      -18.955       44.693       26.004       12.362     1997.506      676.216      152.813        1.544        0.141      166.407       10.591        0.004      332.930        1.913      861.196
11/18/2013  03:36:00     -158.322       12.236      -16.364       26.019       27.687       17.830      677.003      766.544      317.925        1.362        0.088      158.794       15.233        0.009      332.823        1.737      861.188
11/18/2013  03:37:00     -142.868       28.746      -16.207       29.928       32.201       24.438      895.658     1036.890      597.210        1.201        0.126      145.731       17.631        0.015      332.775        1.656      861.173
11/18/2013  03:38:00     -169.749       28.807      -18.472       34.595       30.632       19.253     1196.826      938.310      370.684        1.625        0.125      172.175       10.484        0.004      332.815        1.723      861.163
11/18/2013  03:39:00     -167.249       28.328      -19.326       38.986       30.266       22.425     1519.909      916.047      502.898        1.604        0.147      169.631       19.151        0.013      332.778        1.662      861.164
11/18/2013  03:40:00     -144.719        3.182      -20.452       43.945       29.548       18.131     1931.167      873.083      328.744        1.225        0.157      144.754       14.680        0.010      332.731        1.584      861.159
11/18/2013  03:41:00     -124.614       -3.614      -15.334       41.121       31.574       22.005     1690.939      996.918      484.235        0.947        0.159      124.666       23.111        0.034      332.654        1.458      861.156
11/18/2013  03:42:00     -102.487      -29.332       -8.283       51.573       37.403       22.685     2659.784     1399.000      514.589        0.800        0.229      106.602       20.198        0.036      332.656        1.460      861.160
11/18/2013  03:43:00     -119.816      -13.205       -7.995       41.419       40.650       28.020     1715.523     1652.428      785.129        0.937        0.208      120.542       22.954        0.036      332.608        1.381      861.180
11/18/2013  03:44:00      -95.662       -7.907        0.672       51.413       44.024       31.517     2643.317     1938.137      993.294        0.739        0.279       95.988       31.635        0.109      332.603        1.373      861.192
11/18/2013  03:45:00     -119.801      -21.075       -8.705       55.666       35.342       23.409     3098.698     1249.044      547.979        0.988        0.245      121.640       28.117        0.053      332.612        1.385      861.203
11/18/2013  03:46:00     -125.986      -13.306       -6.969       34.216       37.938       20.291     1170.764     1439.299      411.716        0.956        0.151      126.687       13.252        0.011      332.628        1.413      861.214
11/18/2013  03:47:00      -99.282       -7.008        1.547       49.457       37.177       25.884     2445.990     1382.157      670.002        0.720        0.225       99.529       25.922        0.068      332.559        1.301      861.223
11/18/2013  03:48:00      -92.428      -11.310        0.308       47.317       35.428       25.646     2238.943     1255.163      657.729        0.641        0.208       93.118       24.022        0.067      332.562        1.303      861.214
11/18/2013  03:49:00     -121.054      -27.409       -6.118       38.761       37.942       21.604     1502.400     1439.621      466.711        0.943        0.170      124.118       22.661        0.033      332.587        1.347      861.208
11/18/2013  03:50:00     -128.932      -30.530      -13.001       37.817       32.497       18.075     1430.093     1056.072      326.690        1.027        0.141      132.497       19.072        0.021      332.648        1.446      861.204
11/18/2013  03:51:00      -78.010      -25.028        4.059       34.514       27.919       19.208     1191.196      779.479      368.960        0.453        0.117       81.926       19.270        0.055      332.645        1.443      861.183
11/18/2013  03:52:00      -69.647      -22.922      -11.802       23.248       15.179        9.571      540.477      230.389       91.598        0.319        0.043       73.322        5.632        0.006      332.749        1.615      861.153
11/18/2013  03:53:00      -49.344      -31.442       -0.865       19.029       15.680       12.718      362.107      245.862      161.749        0.210        0.038       58.510       11.543        0.039      332.818        1.729      861.113
11/18/2013  03:54:00      -87.676      -19.735       -7.953       27.206       13.296       12.413      740.155      176.782      154.083        0.461        0.054       89.870       11.883        0.017      332.748        1.613      861.099
11/18/2013  03:55:00     -117.994      -18.932      -10.073       16.360       12.862       10.572      267.654      165.419      111.775        0.746        0.027      119.503        8.304        0.005      332.686        1.511      861.081
11/18/2013  03:56:00      -88.605      -22.911      -10.323       14.957       13.578       14.326      223.718      184.373      205.247        0.455        0.031       91.520       10.351        0.013      332.714        1.558      861.061
11/18/2013  03:57:00      -89.002      -24.790      -17.378       13.422        8.767        9.068      180.157       76.858       82.234        0.459        0.017       92.390        6.010        0.004      332.770        1.651      861.050
11/18/2013  03:58:00     -100.140      -28.824      -13.541       21.545       12.432       10.847      464.207      154.562      117.665        0.589        0.037      104.205       10.184        0.010      332.808        1.711      861.041
11/18/2013  03:59:00     -138.519      -16.206      -22.644       17.452       14.539       11.390      304.580      211.377      129.743        1.030        0.032      139.463        8.005        0.003      332.778        1.664      861.053
11/18/2013  04:00:00     -133.670       10.327      -19.272       17.655       14.716       13.679      311.695      216.548      187.111        0.953        0.036      134.069        9.090        0.005      332.708        1.547      861.049
11/18/2013  04:01:00     -117.414       -3.986      -16.656       19.927       17.226       14.812      397.074      296.749      219.396        0.750        0.046      117.481       13.377        0.013      332.701        1.536      861.040
11/18/2013  04:02:00     -110.966      -29.639      -15.612       22.143       13.991       14.809      490.316      195.747      219.292        0.717        0.045      114.856       12.137        0.011      332.597        1.362      861.041
11/18/2013  04:03:00     -125.707      -24.744      -15.545       25.215       22.895       12.261      635.798      524.179      150.326        0.898        0.066      128.119        7.882        0.004      332.636        1.428      861.057
11/18/2013  04:04:00     -108.366      -16.183      -14.090       25.713       26.479       17.593      661.175      701.133      309.522        0.694        0.084      109.568       11.776        0.012      332.594        1.358      861.057
11/18/2013  04:05:00     -116.017       -9.115      -17.126       20.233       14.121       11.998      409.364      199.399      143.961        0.729        0.038      116.375        7.761        0.004      332.599        1.367      861.059
11/18/2013  04:06:00     -110.188       -9.980      -15.949       16.307       13.120       16.836      265.920      172.140      283.451        0.661        0.036      110.639       12.560        0.013      332.662        1.471      861.050
11/18/2013  04:07:00     -123.614      -10.056      -17.367       11.146        9.512        8.665      124.223       90.483       75.087        0.799        0.014      124.022        3.451        0.001      332.758        1.630      861.049
11/18/2013  04:08:00     -103.018       -0.185      -12.594       15.471       11.511        8.425      239.342      132.509       70.985        0.561        0.022      103.018        8.057        0.006      332.660        1.468      861.029
11/18/2013  04:09:00      -67.093      -14.101       -5.016       21.772       13.260       10.820      474.017      175.834      117.064        0.275        0.038       68.559        7.824        0.013      332.715        1.557      861.023
11/18/2013  04:10:00      -62.339      -23.028       -4.029       13.695       14.900        8.547      187.543      222.008       73.052        0.246        0.024       66.457        7.141        0.012      332.719        1.565      861.022
11/18/2013  04:11:00      -69.234      -29.640        1.186       20.955       13.266        9.888      439.132      175.976       97.764        0.319        0.036       75.312        8.517        0.013      332.735        1.592      861.029
11/18/2013  04:12:00      -62.982      -30.367        0.886       26.701       16.001       14.740      712.950      256.036      217.261        0.304        0.059       69.921       14.698        0.044      332.700        1.533      861.033
11/18/2013  04:13:00      -77.574      -17.229       -3.116       13.580       15.710       10.653      184.416      246.813      113.495        0.343        0.027       79.464        8.264        0.011      332.693        1.521      861.041
11/18/2013  04:14:00      -77.868      -40.872      -10.488       17.475       13.921       11.076      305.370      193.781      122.672        0.423        0.031       87.943        9.279        0.011      332.683        1.504      861.051
11/18/2013  04:15:00     -109.738      -37.157       -8.249       13.292       13.897       10.815      176.674      193.115      116.961        0.699        0.024      115.858        3.792        0.001      332.629        1.418      861.048
11/18/2013  04:16:00      -76.603      -37.417        1.638       21.356       16.695       14.016      456.082      278.731      196.461        0.410        0.047       85.253       10.848        0.016      332.613        1.388      861.042
11/18/2013  04:17:00      -86.669      -29.297       -9.954       16.116       13.027        8.609      259.711      169.698       74.113        0.449        0.025       91.487        7.096        0.006      332.624        1.407      861.043
11/18/2013  04:18:00      -48.770      -37.907       -0.847       19.048       15.363       11.330      362.822      236.019      128.363        0.227        0.036       61.770       11.406        0.034      332.626        1.411      861.049
11/18/2013  04:19:00      -56.895      -32.327       -4.157       15.630       14.510       10.449      244.294      210.546      109.191        0.243        0.028       65.438       10.828        0.027      332.821        1.734      861.043
11/18/2013  04:20:00      -64.979      -14.055      -10.235       12.796       14.972        9.466      163.745      224.152       89.611        0.250        0.024       66.482        7.842        0.014      332.789        1.681      861.022
11/18/2013  04:21:00      -57.288      -25.466       -1.348       12.570       17.336        8.172      158.001      300.536       66.782        0.223        0.026       62.693        7.414        0.014      332.783        1.672      861.014
11/18/2013  04:22:00      -46.733       -0.795       -3.241       18.395        6.946        5.833      338.388       48.242       34.021        0.131        0.021       46.739        6.370        0.019      332.779        1.665      861.013
11/18/2013  04:23:00      -19.836       -6.714       -0.952       12.662       12.121        6.345      160.337      146.925       40.258        0.039        0.017       20.941        4.840        0.053      332.788        1.678      861.021
11/18/2013  04:24:00      -17.823      -12.186       -8.190       10.971        9.184        9.007      120.357       84.342       81.129        0.041        0.014       21.591        5.495        0.065      332.940        1.930      861.024
11/18/2013  04:25:00       -2.344      -13.742        3.483       10.735        8.844        6.919      115.251       78.217       47.876        0.022        0.012       13.940        2.447        0.031      332.992        2.015      861.036
11/18/2013  04:26:00      -20.253        7.304       -2.180        8.205        7.406        6.092       67.320       54.847       37.112        0.031        0.008       21.529        2.549        0.014      333.019        2.060      861.028
11/18/2013  04:27:00       -8.140      -26.219        2.566        5.992       16.791        6.588       35.900      281.931       43.401        0.056        0.018       27.454        5.357        0.038      333.038        2.092      861.041
11/18/2013  04:28:00      -31.930        5.943        1.954       11.898       18.395        9.674      141.569      338.389       93.595        0.082        0.029       32.478       11.761        0.131      332.921        1.897      861.049
11/18/2013  04:29:00      -42.086       21.641       -6.945        9.888       22.330        7.666       97.766      498.612       58.764        0.147        0.033       47.324        5.432        0.013      332.871        1.816      861.039
11/18/2013  04:30:00      -10.450      -50.194       -4.672       15.872       20.352        7.030      251.907      414.188       49.416        0.168        0.036       51.270        5.437        0.011      332.744        1.605      861.050
11/18/2013  04:31:00      -23.604       12.888       10.517       22.693       17.583       13.534      514.954      309.159      183.175        0.092        0.050       26.893       10.720        0.159      332.803        1.704      861.022
11/18/2013  04:32:00      -26.231      -41.857        1.841       22.347       16.285        7.517      499.391      265.193       56.512        0.163        0.041       49.398        6.998        0.020      332.862        1.802      861.016
11/18/2013  04:33:00      -15.800      -20.143       -8.196       15.674       20.411        6.144      245.682      416.610       37.753        0.071        0.035       25.600        8.479        0.110      333.030        2.078      861.025
11/18/2013  04:34:00      -71.016       18.850       -5.848       18.304       15.515       10.050      335.024      240.721      101.003        0.305        0.034       73.475        4.055        0.003      332.755        1.626      861.014
11/18/2013  04:35:00      -67.019       -7.260       -6.451       14.932       24.431       11.943      222.953      596.898      142.642        0.277        0.048       67.411        8.323        0.015      332.667        1.479      861.008
11/18/2013  04:36:00      -32.923      -14.428       -3.734       14.847       17.424        9.471      220.422      303.608       89.695        0.096        0.031       35.945        6.549        0.033      332.667        1.479      861.005
11/18/2013  04:37:00      -43.195       30.289       -7.888       10.447        9.658        4.338      109.142       93.278       18.819        0.153        0.011       52.756        2.654        0.003      332.802        1.703      860.977
11/18/2013  04:38:00      -17.491        0.659       -4.165       12.074        8.920        4.573      145.779       79.574       20.914        0.028        0.012       17.504        3.770        0.046      332.719        1.565      860.966
11/18/2013  04:39:00       -8.999        0.779       -1.074        6.558        4.992        3.067       43.008       24.921        9.409        0.008        0.004        9.033        2.823        0.098      332.809        1.715      860.969
11/18/2013  04:40:00      -47.481       13.097       -1.920       10.742        7.968        5.592      115.401       63.486       31.269        0.132        0.011       49.254        4.474        0.008      332.706        1.543      860.970
11/18/2013  04:41:00      -18.182       -2.472       -8.069       10.377       12.454        8.320      107.692      155.099       69.226        0.037        0.017       18.349        7.890        0.185      332.527        1.247      860.992
11/18/2013  04:42:00      -53.419      -11.565       -9.862       23.630       17.082        6.308      558.398      291.809       39.792        0.199        0.044       54.657        5.100        0.009      332.571        1.319      861.020
11/18/2013  04:43:00     -111.592       -9.954      -13.230       20.891       19.283       10.208      436.449      371.829      104.212        0.682        0.046      112.035        7.776        0.005      332.364        0.976      861.028
11/18/2013  04:44:00      -43.873      -13.755       -5.623       39.181       21.904       15.890     1535.169      479.798      252.501        0.221        0.113       45.979       17.974        0.153      332.219        0.738      861.040
11/18/2013  04:45:00      -11.617      -16.533       -9.882       22.212       16.288       13.823      493.357      265.308      191.065        0.073        0.047       20.206       14.973        0.549      332.499        1.200      861.045
11/18/2013  04:46:00      -54.857        4.940       -7.047        6.861       11.828        8.402       47.080      139.893       70.590        0.167        0.013       55.079        4.179        0.006      332.844        1.771      861.046
11/18/2013  04:47:00      -63.212       -3.819       -8.769       14.848       13.060       11.802      220.470      170.558      139.285        0.231        0.027       63.327        4.605        0.005      332.438        1.100      861.044
11/18/2013  04:48:00      -62.229       -5.361      -11.184       18.797        8.009        7.843      353.341       64.138       61.514        0.225        0.024       62.460        8.227        0.017      332.309        0.888      861.048
11/18/2013  04:49:00      -37.487       -7.671       -9.115       10.584       11.386       11.400      112.019      129.633      129.962        0.096        0.019       38.263        9.872        0.067      332.530        1.251      861.045
11/18/2013  04:50:00      -54.138       10.160       -7.913       29.936       39.198        7.854      896.159     1536.488       61.682        0.280        0.125       55.083        3.880        0.005      332.836        1.759      861.046
11/18/2013  04:51:00      -92.056      -21.425      -11.839       14.559       16.025        9.727      211.952      256.787       94.618        0.482        0.028       94.516        4.222        0.002      332.375        0.996      861.064
11/18/2013  04:52:00      -61.520        0.891      -11.481       12.053       10.515        8.948      145.266      110.569       80.058        0.213        0.017       61.527        5.287        0.007      332.583        1.340      861.071
11/18/2013  04:53:00      -59.387      -17.778      -11.981       19.731        7.472        6.753      389.297       55.829       45.604        0.224        0.025       61.991        6.150        0.010      332.721        1.567      861.066
11/18/2013  04:54:00      -82.791      -18.600       -8.676       22.085       15.666       17.082      487.750      245.428      291.779        0.415        0.051       84.855       16.508        0.038      332.252        0.793      861.084
11/18/2013  04:55:00      -64.033      -28.127       -8.147       11.792       19.688       14.038      139.041      387.628      197.063        0.284        0.036       69.938        3.036        0.002      332.163        0.647      861.089
11/18/2013  04:56:00      -73.676      -21.578      -10.652       27.477       18.384       13.443      754.984      337.972      180.721        0.364        0.064       76.771       10.550        0.019      332.248        0.788      861.087
11/18/2013  04:57:00      -90.121      -12.586       -9.905       16.998       14.838       10.989      288.923      220.174      120.755        0.450        0.031       90.995        7.287        0.006      332.195        0.702      861.078
11/18/2013  04:58:00      -84.798       -6.558      -13.680       37.841       19.291       17.588     1431.961      372.161      309.321        0.477        0.106       85.051       16.896        0.039      332.181        0.677      861.076
11/18/2013  04:59:00      -51.139      -39.357       -1.225       28.871       33.764       20.971      833.540     1140.006      439.803        0.329        0.121       64.530       15.654        0.059      332.144        0.615      861.082
11/18/2013  05:00:00      -47.288      -41.578        3.887       26.246       30.254       25.933      688.858      915.326      672.526        0.313        0.114       62.968       14.169        0.051      332.199        0.707      861.078
11/18/2013  05:01:00      -24.120      -18.313       -5.900       18.982       24.974       17.079      360.322      623.711      291.676        0.111        0.064       30.285       12.315        0.165      332.308        0.886      861.081
11/18/2013  05:02:00      -65.406      -16.540      -16.789       24.798       19.327       15.669      614.958      373.537      245.506        0.303        0.062       67.465       12.699        0.035      332.280        0.839      861.079
11/18/2013  05:03:00      -88.234      -48.858      -14.070       18.748       17.851       11.488      351.469      318.663      131.978        0.559        0.040      100.859        8.667        0.007      332.202        0.713      861.082
11/18/2013  05:04:00      -94.326      -34.748      -14.331       26.847       27.622       17.870      720.745      762.975      319.321        0.606        0.090      100.523       10.804        0.012      332.203        0.714      861.081
11/18/2013  05:05:00      -87.368       -3.124       -9.123       38.630       15.443       18.778     1492.289      238.501      352.617        0.490        0.104       87.424       22.483        0.066      332.229        0.756      861.076
11/18/2013  05:06:00     -104.597      -17.719      -12.101       18.655       15.959       14.395      348.008      254.689      207.213        0.611        0.040      106.087        8.813        0.007      332.202        0.712      861.067
11/18/2013  05:07:00      -97.771      -22.992      -14.994       16.763       15.176       14.942      281.008      230.306      223.269        0.552        0.037      100.438        5.032        0.003      332.254        0.796      861.059
11/18/2013  05:08:00      -69.333      -52.125      -19.546       19.052       16.915       11.430      362.988      286.125      130.656        0.434        0.039       86.742        1.982        0.001      332.297        0.866      861.056
11/18/2013  05:09:00      -50.771      -22.926       -2.354       26.426       19.132       21.179      698.355      366.022      448.552        0.231        0.076       55.708       18.372        0.109      332.305        0.881      861.060
11/18/2013  05:10:00      -75.798      -17.845      -14.706       14.098       14.217       13.978      198.763      202.121      195.375        0.344        0.030       77.870        9.331        0.014      332.405        1.046      861.057
11/18/2013  05:11:00      -67.581      -27.609       -3.012       21.073       19.231       16.299      444.090      369.821      265.656        0.321        0.054       73.003       13.519        0.034      332.386        1.014      861.064
11/18/2013  05:12:00      -82.874      -42.086      -16.792       14.207       18.441       12.631      201.830      340.084      159.555        0.481        0.035       92.948        8.310        0.008      332.388        1.019      861.070
11/18/2013  05:13:00      -87.861      -32.729      -19.063       18.975       15.470       13.380      360.039      239.316      179.016        0.497        0.039       93.759        7.826        0.007      332.312        0.892      861.075
11/18/2013  05:14:00      -94.807      -44.812      -19.017       25.067       23.936       18.529      628.359      572.922      343.340        0.645        0.077      104.864       14.549        0.019      332.301        0.874      861.089
11/18/2013  05:15:00      -80.500      -50.494      -18.498       33.151       19.214       18.075     1098.992      369.160      326.707        0.558        0.090       95.026       15.296        0.026      332.322        0.908      861.089
11/18/2013  05:16:00      -88.261      -47.068      -13.995       41.275       19.054       13.683     1703.585      363.048      187.226        0.623        0.113      100.027        9.980        0.010      332.314        0.896      861.084
11/18/2013  05:17:00      -85.601      -40.197       -7.797       19.559       17.807       19.285      382.539      317.090      371.911        0.504        0.054       94.569        8.520        0.008      332.332        0.926      861.076
11/18/2013  05:18:00      -98.291      -18.323      -13.638       18.472       16.680       17.654      341.197      278.217      311.675        0.556        0.047       99.984       11.953        0.014      332.376        0.998      861.078
11/18/2013  05:19:00     -111.238       -3.211      -18.761       13.637       11.025        8.521      185.977      121.558       72.613        0.656        0.019      111.284        4.964        0.002      332.416        1.064      861.087
11/18/2013  05:20:00      -86.862       -4.159      -11.931       12.779        8.408        8.671      163.295       70.699       75.186        0.401        0.015       86.961        5.665        0.004      332.572        1.322      861.070
11/18/2013  05:21:00      -81.945       -8.045      -11.540        9.894       11.516        8.565       97.884      132.617       73.363        0.361        0.015       82.339        7.200        0.008      332.526        1.245      861.065
11/18/2013  05:22:00      -82.719      -23.612      -13.643       22.517       17.756        9.789      507.015      315.273       95.830        0.425        0.046       86.023        5.291        0.004      332.523        1.239      861.069
11/18/2013  05:23:00     -100.065      -24.061      -18.311       14.351       20.405       10.785      205.953      416.355      116.311        0.583        0.037      102.917        8.026        0.006      332.457        1.130      861.071
11/18/2013  05:24:00      -91.552      -24.784      -10.432       15.391       19.108       13.593      236.878      365.130      184.772        0.495        0.039       94.848       10.066        0.011      332.447        1.116      861.071
11/18/2013  05:25:00     -108.271      -29.652      -15.894       20.966       20.135       15.050      439.572      405.403      226.507        0.696        0.054      112.258        9.653        0.007      332.378        1.001      861.073
11/18/2013  05:26:00      -91.201      -21.916       -9.257       19.654       23.950       20.303      386.293      573.606      412.218        0.513        0.069       93.798       15.183        0.026      332.335        0.930      861.082
11/18/2013  05:27:00     -108.692        2.366      -15.528       30.309       21.911       15.142      918.614      480.070      229.290        0.684        0.081      108.717       10.792        0.010      332.326        0.916      861.091
11/18/2013  05:28:00      -63.428       -6.577      -11.822       28.671       17.278       11.314      822.022      298.517      127.999        0.273        0.062       63.768       14.102        0.049      332.344        0.944      861.098
11/18/2013  05:29:00      -87.617        0.336      -15.923       27.321       20.075       19.382      746.410      402.992      375.674        0.473        0.076       87.617       15.307        0.031      332.431        1.089      861.099
11/18/2013  05:30:00     -101.305       -4.112      -17.226       21.064       18.337       13.142      443.686      336.243      172.724        0.576        0.048      101.388        5.337        0.003      332.479        1.168      861.115
11/18/2013  05:31:00      -54.316       15.173      -17.594       17.328       17.871       12.105      300.264      319.361      146.537        0.213        0.038       56.395        8.200        0.021      332.875        1.823      861.119
11/18/2013  05:32:00      -44.946       20.415       -5.301       16.160       14.066       12.438      261.135      197.850      154.706        0.154        0.031       49.365        8.810        0.032      333.048        2.108      861.114
11/18/2013  05:33:00      -38.055      -24.000      -10.064       14.620       14.730        9.691      213.748      216.977       93.924        0.132        0.026       44.991        6.770        0.023      332.756        1.626      861.101
11/18/2013  05:34:00      -35.296      -14.837       -9.139       12.554       11.727        7.372      157.602      137.511       54.340        0.095        0.017       38.288        6.639        0.030      332.748        1.613      861.084
11/18/2013  05:35:00      -10.141      -10.891       -2.612       11.176       12.653        7.488      124.896      160.086       56.067        0.028        0.017       14.881        0.715        0.002      333.069        2.141      861.095
11/18/2013  05:36:00      -47.857      -43.490       -9.229       15.446       14.285       11.038      238.591      204.068      121.828        0.242        0.028       64.666        8.850        0.019      332.649        1.450      861.122
11/18/2013  05:37:00      -21.977      -35.472        1.518       18.044       14.831       13.975      325.586      219.973      195.314        0.124        0.037       41.728       10.549        0.064      332.612        1.387      861.135
11/18/2013  05:38:00      -34.861      -19.909       -1.380       25.280       12.253        9.887      639.085      150.143       97.755        0.125        0.044       40.145       11.839        0.087      332.623        1.405      861.151
11/18/2013  05:39:00     -107.029      -11.994      -19.638       17.904       21.479       11.686      320.559      461.351      136.566        0.645        0.046      107.699       11.632        0.012      332.528        1.249      861.200
11/18/2013  05:40:00      -91.521       16.895      -17.125       29.007       17.521        9.705      841.419      306.970       94.179        0.510        0.062       93.067        9.827        0.011      332.440        1.104      861.239
11/18/2013  05:41:00       21.637       45.558        2.151       30.069       19.865       18.112      904.163      394.632      328.052        0.209        0.081       50.435       14.841        0.087      332.831        1.749      861.238
11/18/2013  05:42:00       28.524       16.308       -5.600       13.076       24.498       10.358      170.993      600.164      107.279        0.099        0.044       32.856        6.823        0.043      332.685        1.509      861.225
11/18/2013  05:43:00      -21.645      -19.211       -5.522       24.346       17.493        9.779      592.738      305.989       95.630        0.093        0.050       28.941       11.044        0.146      332.746        1.609      861.224
11/18/2013  05:44:00     -108.085      -24.750      -11.223       21.047       17.277       12.243      442.993      298.478      149.891        0.666        0.045      110.882        8.825        0.006      332.754        1.623      861.270
11/18/2013  05:45:00      -62.554       38.645       -5.419       30.536       24.671       15.944      932.472      608.653      254.204        0.362        0.090       73.528       16.503        0.050      332.570        1.318      861.280
11/18/2013  05:46:00       65.697       41.712       18.804       42.554       29.491       31.949     1810.869      869.708     1020.747        0.505        0.185       77.820       18.408        0.056      332.809        1.714      861.242
11/18/2013  05:47:00       -0.919      -37.431       26.007       27.367       60.416       42.764      748.934     3650.111     1828.736        0.415        0.311       37.442       41.627        1.236      332.781        1.667      861.236
11/18/2013  05:48:00       43.805      -79.994      -31.798       27.688       37.878       17.558      766.642     1434.729      308.299        0.592        0.125       91.203       15.287        0.028      332.947        1.941      861.268
11/18/2013  05:49:00       77.430       64.072       40.542       41.318       31.739       24.736     1707.174     1007.333      611.847        0.753        0.166      100.502        6.549        0.004      332.776        1.658      861.251
11/18/2013  05:50:00       38.080       33.532      -15.992       40.033       45.684       22.932     1602.663     2087.031      525.880        0.352        0.211       50.739       21.822        0.185      332.697        1.527      861.276
11/18/2013  05:51:00       24.128      -11.454        1.143       40.628       24.021       17.805     1650.645      577.008      317.033        0.163        0.127       26.709        9.111        0.116      332.833        1.752      861.292
11/18/2013  05:52:00       16.407      -40.549       -0.665       35.799       45.648       18.087     1281.590     2083.711      327.144        0.280        0.185       43.742       16.491        0.142      332.931        1.915      861.283
11/18/2013  05:53:00        2.969      -29.102        6.111       37.140       34.107       23.584     1379.377     1163.301      556.191        0.200        0.155       29.254       25.356        0.751      332.753        1.622      861.272
11/18/2013  05:54:00       10.010       15.178       43.640       25.954       33.770       25.721      673.623     1140.390      661.595        0.235        0.124       18.181       17.420        0.918      332.706        1.543      861.268
11/18/2013  05:55:00        9.050       20.307       37.714       27.692       28.229       19.987      766.833      796.893      399.473        0.194        0.098       22.232       15.589        0.492      332.642        1.438      861.292
11/18/2013  05:56:00        8.171       65.256       69.476       27.441       34.317       12.679      753.011     1177.663      160.745        0.562        0.105       65.766       11.005        0.028      332.656        1.461      861.286
11/18/2013  05:57:00       31.783       -7.718       18.769       29.216       45.546       26.867      853.587     2074.430      721.814        0.254        0.182       32.707       32.541        0.990      332.810        1.715      861.314
11/18/2013  05:58:00       28.603      -63.684       -3.075       33.168       24.594       18.147     1100.124      604.862      329.306        0.346        0.102       69.812       15.331        0.048      333.033        2.082      861.354
11/18/2013  05:59:00       31.442      -45.540       -1.451       26.325       41.327       32.192      692.986     1707.915     1036.307        0.325        0.172       55.339       30.091        0.296      333.060        2.127      861.368
11/18/2013  06:00:00       40.204       54.836       54.340       43.187       26.784       33.315     1865.142      717.359     1109.863        0.563        0.185       67.995       30.749        0.205      332.848        1.778      861.386
11/18/2013  06:01:00       15.488       18.325       12.079       28.339       32.565       20.869      803.100     1060.485      435.535        0.151        0.115       23.993       15.404        0.412      332.757        1.627      861.444
11/18/2013  06:02:00       24.944        6.501        8.115       13.920       17.270       10.739      193.760      298.249      115.331        0.067        0.030       25.777        3.535        0.019      332.849        1.778      861.481
11/18/2013  06:03:00       82.263       47.524       14.986       21.578       18.843       14.437      465.629      355.063      208.427        0.514        0.051       95.004       10.676        0.013      332.628        1.412      861.459
11/18/2013  06:04:00       64.959       49.166        7.075       20.661       21.461       23.444      426.867      460.593      549.643        0.406        0.072       81.468       15.177        0.035      332.508        1.215      861.482
11/18/2013  06:05:00      123.248       61.763       26.191       35.588       34.620       32.546     1266.535     1198.563     1059.274        1.161        0.176      137.857       18.160        0.017      332.519        1.232      861.440
11/18/2013  06:06:00       48.130       87.630       80.076       35.638       37.647       35.970     1270.046     1417.333     1293.873        1.019        0.199       99.977       31.183        0.097      332.544        1.274      861.415
11/18/2013  06:07:00       -3.554       66.790       80.669       18.825       32.421       21.342      354.393     1051.119      455.480        0.642        0.093       66.884       21.633        0.105      332.711        1.552      861.446
11/18/2013  06:08:00       34.392       30.511       46.987       25.109       21.895       12.908      630.484      479.400      166.612        0.280        0.064       45.976       14.606        0.101      332.693        1.521      861.509
11/18/2013  06:09:00       71.074       49.362       31.406       30.831       33.181       35.478      950.567     1101.003     1258.665        0.589        0.166       86.534       23.165        0.072      332.716        1.559      861.522
11/18/2013  06:10:00       49.821       26.593       23.752       20.038       20.441       23.118      401.531      417.827      534.454        0.255        0.068       56.474       11.332        0.040      332.686        1.510      861.499
11/18/2013  06:11:00       37.512        4.781       18.616       28.919       21.249       15.301      836.300      451.499      234.108        0.165        0.076       37.815       13.204        0.122      332.793        1.687      861.499
11/18/2013  06:12:00      -24.638      -23.510      -12.776       24.834       13.734        9.579      616.715      188.627       91.760        0.111        0.045       34.055        5.735        0.028      332.901        1.867      861.545
11/18/2013  06:13:00       12.444      -10.572        7.950       23.652       14.411       18.501      559.401      207.688      342.275        0.072        0.055       16.329       16.734        1.050      332.765        1.640      861.543
11/18/2013  06:14:00       69.692       64.475       44.112       24.130       21.394       24.320      582.255      457.688      591.458        0.630        0.082       94.942       17.703        0.035      332.946        1.939      861.503
11/18/2013  06:15:00       62.879       23.514        7.340       32.512       15.401       14.628     1057.050      237.176      213.983        0.303        0.075       67.132        4.328        0.004      332.888        1.845      861.533
11/18/2013  06:16:00       27.944        6.819        3.754       15.159       10.924       11.915      229.788      119.341      141.974        0.067        0.025       28.764        3.602        0.016      332.864        1.805      861.573
11/18/2013  06:17:00       -2.078      -41.808       -5.562       23.124       33.306       16.870      534.699     1109.308      284.601        0.186        0.096       41.859       19.403        0.215      332.944        1.936      861.603
11/18/2013  06:18:00      -11.126      -22.995      -11.531       16.969        9.017        9.521      287.942       81.310       90.651        0.062        0.023       25.545        7.353        0.083      333.008        2.042      861.630
11/18/2013  06:19:00       24.372       10.463       23.401       29.648       22.299       21.377      878.976      497.242      456.986        0.154        0.092       26.523       16.152        0.371      332.928        1.909      861.639
11/18/2013  06:20:00       45.369      -60.042       -0.165       30.311       54.280       25.980      918.742     2946.275      674.986        0.510        0.227       75.255       22.632        0.090      333.061        2.129      861.650
11/18/2013  06:21:00       67.843      -56.678        5.916       39.141       29.533       24.260     1532.014      872.182      588.566        0.542        0.150       88.403       26.655        0.091      333.102        2.198      861.705
11/18/2013  06:22:00       52.548      -34.624       13.027       49.598       34.862       22.608     2459.992     1215.353      511.133        0.416        0.209       62.930       27.165        0.186      333.101        2.196      861.748
11/18/2013  06:23:00       31.473       -8.635       25.533       44.233       49.754       38.009     1956.595     2475.506     1444.717        0.380        0.294       32.636       45.466        1.941      333.043        2.099      861.740
11/18/2013  06:24:00        9.491      -10.317       51.565       28.677       57.040       28.183      822.344     3253.585      794.274        0.386        0.244       14.019       34.949        6.215      333.036        2.088      861.737
11/18/2013  06:25:00       19.303      -30.672       44.012       31.447       60.568       32.558      988.940     3668.426     1060.001        0.448        0.286       36.240       32.857        0.822      333.047        2.107      861.734
11/18/2013  06:26:00       11.257      -40.672       32.318       31.717       45.628       32.425     1005.998     2081.931     1051.411        0.348        0.207       42.202       29.139        0.477      332.962        1.964      861.767
11/18/2013  06:27:00       -1.425      -10.151       28.823       20.607       42.625       24.662      424.634     1816.927      608.209        0.189        0.142       10.251       14.404        1.975      332.878        1.828      861.790
11/18/2013  06:28:00        1.334       14.133       46.348       23.714       34.523       23.110      562.348     1191.815      534.053        0.232        0.114       14.196       22.099        2.424      332.911        1.882      861.810
11/18/2013  06:29:00       -2.697      -40.090       -3.711       25.357       19.008       15.321      642.980      361.299      234.739        0.143        0.062       40.181        9.531        0.056      333.002        2.031      861.850
11/18/2013  06:30:00      -39.151      -12.852        3.076       23.183       15.314       12.656      537.451      234.506      160.173        0.132        0.047       41.206        3.777        0.008      332.908        1.877      861.899
11/18/2013  06:31:00       21.694       31.426       -2.047       13.187       27.334       21.589      173.895      747.160      466.096        0.142        0.069       38.187       18.809        0.243      332.883        1.836      861.901
11/18/2013  06:32:00       17.131       55.188       45.226       21.441       19.825       26.118      459.697      393.020      682.171        0.346        0.077       57.785        8.564        0.022      332.878        1.827      861.866
11/18/2013  06:33:00       60.984       54.096       51.431       44.849       28.454       27.489     2011.442      809.637      755.642        0.643        0.179       81.520       26.971        0.109      332.836        1.760      861.839
11/18/2013  06:34:00        6.510        9.417       46.760       19.263       33.384       19.476      371.059     1114.505      379.308        0.209        0.093       11.448       20.011        3.055      332.768        1.646      861.870
11/18/2013  06:35:00       68.146      -23.637       11.160       44.720       45.589       30.113     1999.872     2078.372      906.773        0.516        0.249       72.129       35.284        0.239      332.794        1.689      861.899
11/18/2013  06:36:00        1.650       61.097       97.130       33.012       59.127       39.815     1089.804     3495.955     1585.248        0.967        0.309       61.119       45.554        0.556      332.765        1.640      861.864
11/18/2013  06:37:00       15.301       68.864       76.468       31.741       50.810       42.907     1007.505     2581.615     1841.003        0.813        0.272       70.544       36.937        0.274      332.699        1.531      861.835
11/18/2013  06:38:00       55.151      -53.944       19.251       47.886       71.445       41.139     2293.025     5104.415     1692.448        0.770        0.454       77.147       48.886        0.402      332.765        1.639      861.860
11/18/2013  06:39:00       72.963      -77.147       -5.723       48.870       47.775       33.866     2388.240     2282.478     1146.898        0.856        0.291      106.185       31.617        0.089      332.786        1.675      861.894
11/18/2013  06:40:00      -14.024      -14.811       -0.527       24.883       25.424       15.959      619.151      646.400      254.687        0.097        0.076       20.397       11.310        0.307      332.902        1.867      861.947
11/18/2013  06:41:00      -13.002       -8.106       10.775       28.787       14.700       16.748      828.711      216.085      280.491        0.084        0.066       15.322       11.389        0.552      332.852        1.787      861.951
11/18/2013  06:42:00        8.448       -7.249      -12.961       25.037       18.774       19.269      626.846      352.452      371.300        0.082        0.068       11.132        2.940        0.070      332.947        1.941      861.965
11/18/2013  06:43:00       23.293      -18.050       11.937       30.895       47.656       32.053      954.509     2271.133     1027.427        0.263        0.213       29.468       29.285        0.988      333.030        2.077      861.960
11/18/2013  06:44:00        3.808       20.031       38.641       20.637       28.454       16.322      425.886      809.619      266.402        0.171        0.075       20.389       13.795        0.458      332.901        1.865      861.944
11/18/2013  06:45:00       -5.463      -21.949        9.024       40.857       33.377       32.104     1669.267     1114.039     1030.695        0.220        0.191       22.619       32.608        2.078      332.933        1.918      861.977
11/18/2013  06:46:00        5.317       33.113       25.596       38.388       34.815       26.028     1473.626     1212.107      677.480        0.257        0.168       33.538       11.417        0.116      332.898        1.862      861.961
11/18/2013  06:47:00       36.012      -48.491       12.526       42.513       63.482       36.516     1807.317     4029.923     1333.448        0.549        0.359       60.400       41.449        0.471      333.039        2.092      861.949
11/18/2013  06:48:00       -0.129      -31.547        8.025       48.135       32.069       24.928     2316.994     1028.435      621.384        0.251        0.198       31.548       25.486        0.653      332.980        1.996      861.982
11/18/2013  06:49:00      -67.155      -50.083       15.795       63.183       54.090       30.901     3992.134     2925.753      954.900        0.757        0.394       83.774       28.752        0.118      332.886        1.842      862.020
11/18/2013  06:50:00      -81.812      -45.511        6.622       49.010       42.596       20.136     2401.983     1814.413      405.473        0.671        0.231       93.619       22.791        0.059      332.795        1.691      862.026
11/18/2013  06:51:00        0.219       -6.661       21.493       19.275       15.712       14.953      371.528      246.864      223.578        0.067        0.042        6.665       15.404        5.342      332.748        1.615      862.014
11/18/2013  06:52:00      -27.925      -33.060        4.638       29.678       26.095       14.265      880.788      680.927      203.503        0.183        0.088       43.275       12.844        0.088      332.823        1.736      862.013
11/18/2013  06:53:00      -36.743      -24.326        5.704       40.634       22.396       10.901     1651.091      501.588      118.839        0.212        0.114       44.066       13.986        0.101      332.842        1.769      862.023
11/18/2013  06:54:00      -10.457        2.110        5.840       16.415       16.933       11.623      269.450      286.721      135.091        0.042        0.035       10.668        8.034        0.567      332.687        1.512      862.048
11/18/2013  06:55:00      -85.244       -9.076       -4.444       42.376       32.062       17.955     1795.733     1027.953      322.381        0.526        0.157       85.726       16.040        0.035      332.567        1.314      862.048
11/18/2013  06:56:00     -122.272      -34.009       -9.125       49.212       34.433       20.119     2421.847     1185.661      404.769        1.010        0.201      126.913       18.034        0.020      332.325        0.914      862.041
11/18/2013  06:57:00      -38.723        6.717       -4.521       28.452       31.070       17.998      809.519      965.372      323.918        0.183        0.105       39.301       12.826        0.107      332.214        0.733      862.021
11/18/2013  06:58:00      -24.610       45.651       -2.850       18.352       23.633       10.757      336.807      558.538      115.714        0.185        0.051       51.862       12.121        0.055      332.315        0.897      861.993
11/18/2013  06:59:00      -69.340      -11.140       -2.118       53.679       19.935       11.242     2881.414      397.385      126.386        0.417        0.170       70.229       18.438        0.069      332.450        1.120      861.989
11/18/2013  07:00:00     -116.942      -49.810      -12.123       58.460       25.895       20.750     3417.544      670.536      430.556        1.041        0.226      127.108        5.513        0.002      332.375        0.996      862.020
11/18/2013  07:01:00      -67.454      -25.735        5.925       41.753       28.748       16.757     1743.280      826.444      280.802        0.405        0.143       72.196       19.886        0.076      332.399        1.034      862.015
11/18/2013  07:02:00     -117.816       15.013      -10.328       49.070       26.164       16.858     2407.906      684.550      284.189        0.879        0.169      118.769       21.322        0.032      332.348        0.951      862.001
11/18/2013  07:03:00     -146.326        9.016       -8.691       56.615       37.679       32.929     3205.213     1419.724     1084.340        1.364        0.285      146.603       26.626        0.033      332.201        0.710      862.041
11/18/2013  07:04:00      -95.561       18.834       -9.655       42.294       30.255       20.962     1788.753      915.386      439.390        0.636        0.157       97.399       13.194        0.018      332.220        0.744      862.065
11/18/2013  07:05:00      -48.531      -27.235       -3.400       30.940       31.229       13.830      957.287      975.219      191.268        0.262        0.106       55.651        7.611        0.019      332.339        0.937      862.046
11/18/2013  07:06:00      -15.954       -6.216        0.234       18.064       13.372       12.813      326.317      178.821      164.180        0.048        0.033       17.122       11.944        0.487      332.459        1.135      862.048
11/18/2013  07:07:00      -22.937       -9.851       -4.364       13.569       11.079       11.085      184.126      122.739      122.885        0.054        0.021       24.962        7.155        0.082      332.513        1.224      862.061
11/18/2013  07:08:00      -50.369      -30.398       -6.532       31.423       18.187       16.075      987.385      330.752      258.405        0.254        0.079       58.831        3.574        0.004      332.578        1.333      862.088
11/18/2013  07:09:00      -88.500      -43.518       -7.265       35.072       25.420       18.375     1230.013      646.199      337.627        0.600        0.111       98.621       12.492        0.016      332.477        1.165      862.111
11/18/2013  07:10:00       -9.612      -62.043      -11.755       33.193       28.083       15.808     1101.777      788.668      249.888        0.311        0.107       62.783       13.589        0.047      332.591        1.353      862.091
11/18/2013  07:11:00     -101.278      -32.919        1.215       45.215       24.225       17.097     2044.424      586.848      292.295        0.713        0.146      106.493       22.079        0.043      332.512        1.222      862.097
11/18/2013  07:12:00      -25.735      -30.789        3.541       38.812       24.860       18.809     1506.403      618.039      353.776        0.205        0.124       40.128       18.961        0.223      332.618        1.398      862.118
11/18/2013  07:13:00        6.241       -1.189        8.672       11.958       10.493       10.243      142.983      110.109      104.928        0.024        0.018        6.354        8.485        1.784      332.710        1.550      862.116
11/18/2013  07:14:00      -69.095      -19.917      -11.572       34.037       18.141       10.087     1158.548      329.103      101.750        0.345        0.079       71.909        6.433        0.008      332.571        1.319      862.144
11/18/2013  07:15:00      -92.631      -33.112       -9.612       41.318       30.653       14.685     1707.147      939.634      215.661        0.632        0.143       98.371       17.561        0.032      332.517        1.231      862.185
11/18/2013  07:16:00      -37.880      -33.088       -5.007       19.228       15.336       12.240      369.725      235.191      149.812        0.165        0.038       50.296        7.296        0.021      332.579        1.333      862.189
11/18/2013  07:17:00      -21.556        6.430      -16.587       19.374       12.483        8.711      375.338      155.814       75.875        0.069        0.030       22.494        8.142        0.131      332.813        1.720      862.193
11/18/2013  07:18:00      -65.650       -5.713      -16.346       14.123       12.149        9.615      199.460      147.587       92.452        0.252        0.022       65.898        5.981        0.008      332.808        1.713      862.219
11/18/2013  07:19:00      -40.913       -5.594        1.974       36.090       12.921       13.866     1302.462      166.943      192.259        0.169        0.083       41.294        7.919        0.037      332.829        1.747      862.236
11/18/2013  07:20:00      -13.186        4.357       21.585       16.533       16.240       15.107      273.347      263.749      228.215        0.071        0.038       13.887       10.070        0.526      333.077        2.156      862.223
11/18/2013  07:21:00      -10.948       13.523       20.354       29.764       16.706       16.889      885.924      279.106      285.252        0.108        0.073       17.399       17.465        1.008      333.062        2.131      862.217
11/18/2013  07:22:00        1.054       26.036       47.850       26.282       21.920       19.184      690.717      480.480      368.026        0.225        0.077       26.057       14.474        0.309      333.247        2.435      862.221
11/18/2013  07:23:00      -17.677      -21.733       21.192       22.934       30.307       22.994      525.950      918.493      528.724        0.160        0.099       28.014       18.079        0.416      333.099        2.192      862.268
11/18/2013  07:24:00      -72.958      -54.889       10.510       58.612       39.883       27.723     3435.313     1590.615      768.551        0.712        0.290       91.300       28.668        0.099      332.992        2.016      862.304
11/18/2013  07:25:00       22.991       32.895       44.160       42.747       45.419       40.712     1827.337     2062.879     1657.492        0.455        0.277       40.133       39.583        0.973      333.193        2.348      862.292
11/18/2013  07:26:00      -11.958        3.556       40.414       32.620       41.517       31.584     1064.049     1723.627      997.542        0.279        0.189       12.475       33.367        7.154      333.309        2.540      862.301
11/18/2013  07:27:00      -51.846      -43.942        2.645       69.980       57.988       27.524     4897.141     3362.593      757.574        0.682        0.451       67.963       33.298        0.240      333.195        2.351      862.364
11/18/2013  07:28:00     -113.150      -99.737       -8.002       53.914       40.353       23.490     2906.714     1628.383      551.766        1.395        0.254      150.832        8.911        0.003      332.984        2.002      862.403
11/18/2013  07:29:00      -61.958      -19.076       -8.614       45.017       35.028       21.931     2026.571     1226.943      480.949        0.400        0.187       64.828       22.814        0.124      333.011        2.049      862.400
11/18/2013  07:30:00     -143.698      -29.061      -13.752       38.546       35.681       28.604     1485.763     1273.118      818.207        1.263        0.179      146.607       24.948        0.029      332.883        1.836      862.391
11/18/2013  07:31:00     -113.405      -50.052       -3.747       29.500       32.938       19.458      870.276     1084.881      378.628        0.886        0.117      123.959       14.436        0.014      332.842        1.769      862.400
11/18/2013  07:32:00      -67.079      -44.883        1.412       30.300       32.329       20.443      918.077     1045.164      417.924        0.445        0.119       80.710       15.822        0.038      332.920        1.898      862.380
11/18/2013  07:33:00     -101.006      -20.998       -8.296       19.571       25.344       17.149      383.017      642.325      294.083        0.602        0.066      103.166       10.330        0.010      332.917        1.892      862.366
11/18/2013  07:34:00     -109.246        6.857       -5.151       38.191       34.688       27.255     1458.551     1203.279      742.851        0.771        0.170      109.461       19.266        0.031      332.820        1.734      862.373
11/18/2013  07:35:00     -118.130      -15.860       -3.497       45.446       36.423       24.348     2065.329     1326.643      592.828        0.910        0.199      119.190       24.143        0.041      332.851        1.783      862.379
11/18/2013  07:36:00      -72.676      -32.297       -1.122       47.768       26.244       19.601     2281.777      688.750      384.195        0.484        0.168       79.530       28.418        0.128      333.041        2.096      862.363
11/18/2013  07:37:00      -44.233      -32.365        1.585       31.213       19.783       11.404      974.271      391.352      130.058        0.225        0.075       54.809       14.391        0.069      333.098        2.192      862.371
11/18/2013  07:38:00      -55.377      -17.630        5.010       23.938       24.858       13.791      573.021      617.896      190.190        0.239        0.069       58.116       12.487        0.046      333.078        2.157      862.382
11/18/2013  07:39:00      -89.674       29.716       -9.056       31.555       18.577       15.001      995.690      345.097      225.016        0.529        0.078       94.469       11.483        0.015      333.129        2.242      862.394
11/18/2013  07:40:00      -95.272        3.720       -8.910       26.571       23.226       13.212      706.022      539.429      174.551        0.529        0.071       95.345        9.335        0.010      333.124        2.234      862.424
11/18/2013  07:41:00      -74.058      -28.243       -1.693       39.930       26.184       17.751     1594.396      685.619      315.113        0.444        0.130       79.260       16.713        0.044      333.126        2.236      862.446
11/18/2013  07:42:00      -62.748      -17.319       -5.771       34.566       20.089       21.649     1194.797      403.552      468.698        0.317        0.103       65.094       21.811        0.112      333.205        2.367      862.445
11/18/2013  07:43:00      -82.637      -34.312       -7.977       24.954       23.891       15.933      622.687      570.791      253.860        0.476        0.072       89.477        2.138        0.001      333.221        2.392      862.432
11/18/2013  07:44:00      -99.830      -34.924      -11.172       22.441       28.197       16.363      503.607      795.061      267.756        0.644        0.078      105.763       13.017        0.015      333.226        2.402      862.433
11/18/2013  07:45:00      -86.625      -32.041       -6.549       20.329       23.379       16.228      413.275      546.564      263.352        0.490        0.061       92.361       12.396        0.018      333.250        2.441      862.428
11/18/2013  07:46:00      -67.350      -18.588      -13.727       28.962       30.629       11.935      838.795      938.163      142.444        0.349        0.096       69.868        9.693        0.019      333.313        2.544      862.422
11/18/2013  07:47:00      -67.812      -49.372       -5.648       18.410       23.805       15.022      338.922      566.673      225.646        0.410        0.057       83.881       15.192        0.033      333.357        2.618      862.407
11/18/2013  07:48:00       -2.454      -25.221       -1.584       20.883       13.574       11.502      436.119      184.248      132.307        0.070        0.038       25.340       13.771        0.295      333.447        2.768      862.374
11/18/2013  07:49:00      -62.338       15.274       -8.589       31.164       22.643       13.864      971.189      512.684      192.205        0.293        0.084       64.182       12.255        0.036      333.472        2.809      862.341
11/18/2013  07:50:00      -89.181       21.320      -16.818       25.356       19.343       16.652      642.904      374.133      277.277        0.499        0.065       91.694       12.090        0.017      333.517        2.882      862.325
11/18/2013  07:51:00      -73.575        5.450       -9.863       30.864       18.832       13.849      952.609      354.648      191.795        0.352        0.075       73.776       13.484        0.033      333.554        2.944      862.311
11/18/2013  07:52:00      -72.006      -19.819      -12.766       27.228       18.617        9.125      741.387      346.577       83.264        0.346        0.059       74.684        5.944        0.006      333.563        2.959      862.312
11/18/2013  07:53:00      -92.243      -44.390       -7.985       24.655       23.601       14.363      607.865      557.021      206.289        0.596        0.069      102.368       10.084        0.010      333.612        3.042      862.301
11/18/2013  07:54:00     -118.647       -6.819       -3.602       31.245       31.195       25.029      976.251      973.137      626.447        0.836        0.129      118.843       21.007        0.031      333.613        3.041      862.291
11/18/2013  07:55:00      -91.121        9.186      -13.184       22.388       27.613       19.446      501.244      762.475      378.154        0.510        0.082       91.583        9.588        0.011      333.653        3.108      862.283
11/18/2013  07:56:00      -92.589        4.628      -11.526       30.078       20.938       13.625      904.704      438.386      185.637        0.513        0.076       92.704        9.586        0.011      333.704        3.192      862.278
11/18/2013  07:57:00     -126.396        0.085      -13.470       21.539       15.199       17.734      463.910      231.002      314.481        0.858        0.050      126.396       13.692        0.012      333.696        3.179      862.275
11/18/2013  07:58:00     -105.684       -5.544       -7.185       43.164       35.940       20.538     1863.155     1291.658      421.801        0.741        0.179      105.830       23.475        0.049      333.750        3.269      862.271
11/18/2013  07:59:00      -90.830        6.350       -9.894       25.625       18.407       15.060      656.620      338.805      226.799        0.481        0.061       91.052       10.499        0.013      333.795        3.344      862.271
11/18/2013  08:00:00      -87.547       15.501       -9.526       31.130       18.752       16.660      969.061      351.648      277.563        0.480        0.080       88.909        8.702        0.010      333.858        3.449      862.278
11/18/2013  08:01:00      -79.808        9.139       -6.703       24.625       23.758       15.767      606.412      564.449      248.593        0.396        0.071       80.330       10.752        0.018      333.920        3.551      862.271
11/18/2013  08:02:00      -61.111       23.221      -10.951       22.742       17.365       11.036      517.184      301.527      121.798        0.267        0.047       65.374        9.463        0.021      333.900        3.520      862.246
11/18/2013  08:03:00      -32.421       19.206      -13.641       13.392       17.134       11.367      179.346      293.561      129.210        0.110        0.030       37.682        8.929        0.056      334.028        3.733      862.238
11/18/2013  08:04:00      -53.692       -1.629       -4.211       14.299       11.666        9.588      204.464      136.097       91.936        0.167        0.022       53.717        5.241        0.010      334.053        3.771      862.237
11/18/2013  08:05:00     -101.919       19.913       -6.916       26.918       26.267       13.678      724.561      689.933      187.098        0.622        0.080      103.846       12.330        0.014      334.016        3.710      862.218
11/18/2013  08:06:00      -66.802       38.169      -13.145       29.101       21.305       13.184      846.890      453.899      173.807        0.378        0.074       76.937       12.794        0.028      334.034        3.742      862.200
11/18/2013  08:07:00      -44.742       -4.979       -8.607       17.269       26.949        8.897      298.230      726.245       79.161        0.160        0.055       45.018        5.932        0.017      334.095        3.841      862.194
11/18/2013  08:08:00      -72.936      -29.660       -6.829       16.527       18.172       11.593      273.157      330.212      134.398        0.349        0.037       78.736       11.387        0.021      334.093        3.837      862.207
11/18/2013  08:09:00      -54.130      -14.778      -14.021       24.548       24.585       12.717      602.611      604.439      161.710        0.236        0.068       56.111        8.628        0.024      334.100        3.849      862.215
11/18/2013  08:10:00      -46.027        8.898       -8.976       14.477        8.841        8.574      209.598       78.166       73.509        0.132        0.018       46.879        7.188        0.024      334.139        3.915      862.224
11/18/2013  08:11:00      -30.921       -8.626       -4.540        7.524        6.790        5.683       56.604       46.106       32.298        0.059        0.007       32.102        3.988        0.015      334.203        4.020      862.235
11/18/2013  08:12:00      -87.636      -17.764        1.208       46.069       30.591       18.777     2122.329      935.838      352.591        0.570        0.171       89.419       22.413        0.063      334.221        4.051      862.250
11/18/2013  08:13:00      -99.389        4.297       -6.988       19.914       19.890       12.795      396.552      395.617      163.710        0.545        0.048       99.482        8.782        0.008      334.177        3.978      862.261
11/18/2013  08:14:00      -85.122       -8.759      -11.664       26.107       23.769       13.164      681.561      564.964      173.278        0.444        0.071       85.572       12.867        0.023      334.276        4.142      862.267
11/18/2013  08:15:00      -70.168       -7.921       -0.519       21.241       22.833       17.060      451.174      521.364      291.055        0.312        0.063       70.613        6.419        0.008      334.320        4.216      862.262
11/18/2013  08:16:00      -26.652      -21.498       -2.695       20.767       19.458       17.941      431.259      378.630      321.891        0.116        0.057       34.242       10.662        0.097      334.448        4.429      862.248
11/18/2013  08:17:00      -46.923       -4.244       -1.214       14.642       16.679        8.480      214.377      278.187       71.910        0.139        0.028       47.115        4.573        0.009      334.385        4.324      862.222
11/18/2013  08:18:00      -69.684       24.739       -6.231       13.605       14.954       10.517      185.096      223.628      110.613        0.301        0.026       73.945        7.258        0.010      334.359        4.279      862.197
11/18/2013  08:19:00      -45.181        4.815       -5.421       21.131       13.974       10.745      446.516      195.266      115.446        0.143        0.038       45.437       11.949        0.069      334.481        4.480      862.184
11/18/2013  08:20:00       -4.969       -8.748        3.699       14.855       16.241        8.430      220.678      263.764       71.061        0.034        0.028       10.060        6.136        0.372      334.679        4.810      862.187
11/18/2013  08:21:00      -27.356        1.648       11.049       16.500        9.517       16.039      272.262       90.573      257.245        0.075        0.031       27.406       13.229        0.233      334.832        5.064      862.188
11/18/2013  08:22:00      -11.285      -11.168       20.493       10.891       16.411       10.064      118.618      269.316      101.288        0.058        0.024       15.877        8.607        0.294      335.031        5.395      862.191
11/18/2013  08:23:00      -43.157       -3.814       -6.523       11.719       14.086        8.406      137.334      198.427       70.661        0.116        0.020       43.325        3.817        0.008      334.653        4.768      862.193
11/18/2013  08:24:00      -36.280        7.609       -2.640       23.374       26.638       13.031      546.332      709.560      169.811        0.140        0.071       37.069        7.514        0.041      334.681        4.815      862.200
11/18/2013  08:25:00      -66.023       31.601      -11.852       26.506       25.935       17.202      702.589      672.606      295.921        0.358        0.084       73.196        9.339        0.016      334.630        4.729      862.230
11/18/2013  08:26:00     -116.237       13.659      -14.074       31.503       26.755       14.090      992.426      715.843      198.533        0.790        0.095      117.037       13.533        0.013      334.616        4.707      862.269
11/18/2013  08:27:00     -112.733       -2.417      -12.069       18.897       23.066       17.038      357.113      532.029      290.298        0.702        0.059      112.759        6.653        0.003      334.635        4.737      862.314
11/18/2013  08:28:00      -80.865        3.740       -4.867       37.910       27.624       18.201     1437.154      763.059      331.258        0.455        0.127       80.952       15.788        0.038      334.705        4.853      862.331
11/18/2013  08:29:00      -52.135      -33.262       -2.572       22.573       27.674       14.641      509.537      765.852      214.348        0.266        0.074       61.842       13.789        0.050      334.739        4.910      862.320
11/18/2013  08:30:00      -58.353       -7.113       -6.081       25.229       19.262       12.495      636.510      371.017      156.117        0.233        0.058       58.785       12.219        0.043      334.751        4.929      862.300
11/18/2013  08:31:00      -50.843       12.445        1.364       39.646       16.768       15.209     1571.826      281.179      231.306        0.241        0.104       52.344       19.030        0.132      334.911        5.196      862.270
11/18/2013  08:32:00      -47.435        0.583       -7.625       27.151       21.787       20.783      737.187      474.681      431.915        0.198        0.082       47.439       19.000        0.160      334.821        5.047      862.237
11/18/2013  08:33:00      -31.123       28.866      -16.086       12.705       14.324        9.902      161.418      205.169       98.052        0.126        0.023       42.448        5.109        0.014      334.831        5.064      862.220
11/18/2013  08:34:00      -42.251        1.368       -4.640       33.638       26.094       24.322     1131.488      680.894      591.558        0.211        0.120       42.273       20.204        0.228      335.047        5.422      862.208
11/18/2013  08:35:00      -40.812      -31.842       -8.923       21.526       33.876       12.457      463.384     1147.609      155.165        0.226        0.088       51.764       10.867        0.044      335.042        5.413      862.186
11/18/2013  08:36:00      -58.319      -79.276        4.175       19.721       33.252       17.496      388.908     1105.713      306.118        0.575        0.090       98.416       14.079        0.020      335.024        5.383      862.161
11/18/2013  08:37:00      -23.592      -18.794       34.726       39.140       50.074       26.373     1531.940     2507.391      695.531        0.342        0.237       30.162       34.230        1.288      335.586        6.319      862.128
11/18/2013  08:38:00       27.397        2.569       34.166       54.058       42.977       30.604     2922.316     1847.032      936.596        0.381        0.285       27.517       25.119        0.833      335.631        6.393      862.108
11/18/2013  08:39:00       21.642       32.398       49.459       28.411       37.180       19.983      807.186     1382.361      399.311        0.328        0.129       38.962       18.984        0.237      335.401        6.010      862.083
11/18/2013  08:40:00       -0.698      -45.762        2.644       21.090       19.184       19.071      444.788      368.039      363.717        0.164        0.059       45.767       12.117        0.070      335.451        6.094      862.063
11/18/2013  08:41:00      -20.499      -28.696        9.752       22.865       19.275       15.468      522.821      371.511      239.262        0.124        0.057       35.266       10.882        0.095      335.305        5.850      862.052
11/18/2013  08:42:00       -5.883       -8.584       24.345       11.800       13.828       11.115      139.240      191.215      123.540        0.058        0.023       10.407        7.762        0.556      335.862        6.779      862.061
11/18/2013  08:43:00      -30.758      -29.421        4.929       23.930       15.947       11.737      572.667      254.303      137.766        0.140        0.048       42.564        7.643        0.032      335.383        5.979      862.085
11/18/2013  08:44:00      -36.198      -21.061        4.913       30.271       22.560       13.805      916.356      508.949      190.575        0.170        0.081       41.879       16.296        0.151      335.446        6.084      862.095
11/18/2013  08:45:00      -14.501      -24.457       -0.809       29.851       17.823       18.017      891.059      317.650      324.616        0.117        0.077       28.433       10.148        0.127      335.455        6.098      862.092
11/18/2013  08:46:00      -20.841      -22.364       12.050       26.268       17.400       19.309      690.024      302.750      372.826        0.122        0.068       30.569       15.160        0.246      335.589        6.323      862.073
11/18/2013  08:47:00      -32.051      -11.732        2.060       21.438       11.725       10.554      459.598      137.465      111.384        0.094        0.035       34.131        6.952        0.041      335.424        6.048      862.051
11/18/2013  08:48:00      -35.500      -35.922       -3.821       21.001       18.244       14.414      441.042      332.858      207.750        0.177        0.049       50.504        7.419        0.022      335.408        6.020      862.037
11/18/2013  08:49:00      -65.029      -44.010       -2.562       18.256       33.077       13.930      333.278     1094.105      194.050        0.390        0.081       78.522        9.810        0.016      335.306        5.850      862.044
11/18/2013  08:50:00      -79.489      -46.509       -7.179       14.463       18.682       13.614      209.175      349.023      185.346        0.464        0.037       92.095        9.356        0.010      335.358        5.936      862.060
11/18/2013  08:51:00      -89.375      -53.755       -4.855       33.993       30.113       22.007     1155.525      906.797      484.320        0.672        0.127      104.295       17.102        0.027      335.373        5.964      862.068
11/18/2013  08:52:00      -70.805      -66.598       -9.586       30.460       33.726       18.172      927.838     1137.424      330.217        0.597        0.120       97.204       11.211        0.013      335.407        6.019      862.072
11/18/2013  08:53:00      -67.495      -74.238       -3.663       18.940       31.998       19.643      358.712     1023.865      385.834        0.592        0.088      100.333       10.448        0.011      335.393        5.997      862.071
11/18/2013  08:54:00      -59.320      -41.156      -10.296       35.658       19.693        9.493     1271.502      387.825       90.118        0.353        0.087       72.199       13.690        0.036      335.400        6.008      862.065
11/18/2013  08:55:00      -43.472      -13.949        0.538       21.580       25.668       13.050      465.700      658.859      170.298        0.169        0.065       45.655       11.553        0.064      335.537        6.238      862.054
11/18/2013  08:56:00      -34.478      -14.437       -8.929       24.180       22.962       11.470      584.692      527.247      131.565        0.136        0.062       37.379       10.110        0.073      335.656        6.434      862.045
11/18/2013  08:57:00      -48.595      -77.410        0.887       27.871       22.567       17.181      776.792      509.278      295.175        0.497        0.079       91.399       14.539        0.025      335.605        6.350      862.048
11/18/2013  08:58:00      -99.136      -34.058        4.451       41.717       32.764       21.613     1740.294     1073.502      467.133        0.714        0.164      104.824       20.902        0.040      335.530        6.223      862.061
11/18/2013  08:59:00     -113.834      -46.749       -8.213       31.560       40.101       21.448      996.005     1608.112      460.032        0.914        0.153      123.060        5.894        0.002      335.624        6.383      862.088
11/18/2013  09:00:00      -89.614      -61.758       -2.901       38.125       33.610       16.622     1453.489     1129.655      276.300        0.736        0.143      108.834       15.490        0.020      335.646        6.420      862.115
11/18/2013  09:01:00      -72.364      -61.462      -10.962       40.861       33.895       20.169     1669.592     1148.867      406.800        0.618        0.161       94.942       16.631        0.031      335.705        6.519      862.129
11/18/2013  09:02:00      -53.764      -50.526       -1.298       37.343       40.404       22.661     1394.532     1632.467      513.500        0.449        0.177       73.780       19.739        0.072      335.778        6.639      862.136
11/18/2013  09:03:00      -42.356      -75.817        9.537       60.736       43.759       32.556     3688.878     1914.819     1059.890        0.715        0.333       86.846       40.451        0.217      335.871        6.794      862.129
11/18/2013  09:04:00      -51.214      -90.531       -7.044       42.344       29.282       20.797     1792.985      857.414      432.498        0.698        0.154      104.014       18.827        0.033      335.785        6.651      862.113
11/18/2013  09:05:00      -48.174     -120.170        2.186       39.705       43.223       24.313     1576.449     1868.187      591.141        1.040        0.202      129.466       21.566        0.028      335.750        6.595      862.092
11/18/2013  09:06:00      -47.917     -109.758       -4.145       34.774       30.320       14.170     1209.205      919.308      200.781        0.834        0.116      119.762       14.427        0.015      335.725        6.552      862.048
11/18/2013  09:07:00      -11.982      -16.618       12.069       22.083       22.272       15.671      487.675      496.040      245.578        0.090        0.061       20.487       12.980        0.401      336.169        7.291      861.982
11/18/2013  09:08:00      -11.440       22.933       -1.399       37.907       22.502       23.255     1436.932      506.334      540.787        0.157        0.124       25.628       16.804        0.430      336.280        7.476      861.934
11/18/2013  09:09:00      -54.704        9.582        5.314       29.939       25.228       24.717      896.327      636.453      610.920        0.263        0.107       55.537       23.988        0.187      336.077        7.137      861.901
11/18/2013  09:10:00       -7.910       -6.466       14.164       33.826       29.189       17.842     1144.221      851.987      318.329        0.131        0.116       10.216       16.755        2.690      336.381        7.645      861.892
11/18/2013  09:11:00        3.617       -6.593        9.297       17.659       29.972       14.676      311.844      898.319      215.382        0.078        0.071        7.520        8.264        1.208      336.349        7.591      861.881
11/18/2013  09:12:00       -4.552       25.861       13.866       18.031       27.468       21.942      325.104      754.494      481.462        0.122        0.078       26.259       13.796        0.276      336.566        7.955      861.862
11/18/2013  09:13:00       16.177       39.745       39.946       25.767       16.453       10.220      663.941      270.703      104.453        0.224        0.052       42.912        6.893        0.026      336.536        7.904      861.839
11/18/2013  09:14:00      -52.335        9.751       -1.904       22.025       23.082       17.188      485.087      532.781      295.443        0.208        0.066       53.236       13.826        0.067      336.118        7.204      861.825
11/18/2013  09:15:00      -27.257        9.537       -8.764       18.364       19.599       12.177      337.222      384.130      148.275        0.089        0.043       28.877        7.652        0.070      336.274        7.465      861.808
11/18/2013  09:16:00      -18.058        3.845       -5.232       17.309       11.621       11.721      299.603      135.037      137.383        0.047        0.029       18.463        7.418        0.161      336.446        7.754      861.804
11/18/2013  09:17:00      -46.863      -28.547       -6.244       23.809       33.929       12.664      566.868     1151.151      160.364        0.246        0.094       54.873       18.261        0.111      336.290        7.491      861.807
11/18/2013  09:18:00      -85.327      -60.034      -17.246       37.548       23.025       15.833     1409.880      530.160      250.698        0.669        0.110      104.331        8.331        0.006      336.126        7.218      861.816
11/18/2013  09:19:00      -46.098      -62.632        9.228       40.289       48.501       26.432     1623.205     2352.326      698.677        0.540        0.234       77.768       32.488        0.175      336.317        7.538      861.841
11/18/2013  09:20:00      -59.915      -95.806       -0.122       36.479       38.232       21.837     1330.751     1461.708      476.851        0.802        0.163      112.998       23.747        0.044      336.126        7.217      861.856
11/18/2013  09:21:00      -78.524     -102.309      -13.796       26.883       20.103       14.147      722.715      404.124      200.125        0.907        0.066      128.970       12.500        0.009      336.074        7.130      861.858
11/18/2013  09:22:00      -73.251      -50.467       -5.633       19.222       21.054       12.326      369.479      443.285      151.934        0.445        0.048       88.953       11.692        0.017      336.215        7.367      861.853
11/18/2013  09:23:00      -20.980      -74.624       11.232       40.678       31.605       27.987     1654.714      998.868      783.265        0.479        0.172       77.518       25.405        0.107      336.337        7.571      861.843
11/18/2013  09:24:00      -52.785      -59.182        1.908       28.527       25.300       19.933      813.815      640.071      397.312        0.407        0.093       79.302       15.869        0.040      336.351        7.592      861.853
11/18/2013  09:25:00      -51.506     -105.911       -5.448       36.057       36.862       19.836     1300.114     1358.802      393.471        0.848        0.153      117.771       15.802        0.018      336.287        7.488      861.861
11/18/2013  09:26:00      -47.002      -69.565      -17.981       29.538       32.489       16.576      872.516     1055.546      274.767        0.479        0.110       83.956       13.522        0.026      336.420        7.709      861.856
11/18/2013  09:27:00      -56.019       -1.545       -7.719       24.782       31.435       27.752      614.152      988.188      770.184        0.279        0.119       56.040       20.862        0.139      336.520        7.876      861.854
11/18/2013  09:28:00      -55.824        0.569       -1.467       25.741       19.397       11.251      662.592      376.248      126.580        0.214        0.058       55.826        8.961        0.026      336.547        7.923      861.861
11/18/2013  09:29:00      -25.781       32.761        2.194       23.209       24.106       17.880      538.653      581.083      319.709        0.159        0.072       41.689       19.039        0.209      336.803        8.351      861.869
11/18/2013  09:30:00      -23.780       19.329       -2.698       13.953       15.518       16.243      194.682      240.815      263.824        0.082        0.035       30.645        6.441        0.044      336.896        8.506      861.872
11/18/2013  09:31:00      -10.882       10.044        8.755       18.158       20.335       25.394      329.710      413.528      644.846        0.084        0.069       14.809       22.177        2.243      336.952        8.598      861.876
11/18/2013  09:32:00      -25.830       33.076       34.388       18.477       27.988       21.956      341.418      783.351      482.082        0.227        0.080       41.967        6.798        0.026      336.992        8.666      861.865
11/18/2013  09:33:00      -23.122       -1.167      -10.004       23.014       32.778       13.589      529.654     1074.388      184.657        0.121        0.089       23.152        9.156        0.156      336.588        7.991      861.865
11/18/2013  09:34:00       -8.326      -66.776      -10.866       23.235       21.947       16.013      539.846      481.682      256.431        0.296        0.064       67.293       12.542        0.035      336.489        7.824      861.875
11/18/2013  09:35:00      -78.955      -66.758        6.424       57.290       41.585       24.665     3282.103     1729.343      608.352        0.817        0.281      103.395       28.074        0.074      336.525        7.885      861.884
11/18/2013  09:36:00      -74.124      -76.674       -4.883       48.173       31.397       18.246     2320.663      985.750      332.928        0.752        0.182      106.646        7.874        0.005      336.431        7.729      861.890
11/18/2013  09:37:00      -55.124      -74.722        1.195       25.438       26.735       23.861      647.093      714.742      569.329        0.528        0.097       92.855       16.092        0.030      336.440        7.743      861.871
11/18/2013  09:38:00      -77.227      -84.941       -5.314       38.850       26.593       24.322     1509.287      707.189      591.551        0.801        0.140      114.800       25.533        0.049      336.603        8.016      861.864
11/18/2013  09:39:00      -42.996      -81.445       -1.697       34.339       29.547       19.217     1179.153      873.043      369.310        0.545        0.121       92.097       11.218        0.015      336.588        7.992      861.867
11/18/2013  09:40:00      -69.391      -72.125       -1.083       40.926       29.626       22.433     1674.935      877.680      503.230        0.654        0.153      100.086       21.665        0.047      336.587        7.989      861.865
11/18/2013  09:41:00      -67.969      -83.769      -13.474        8.278       11.166        7.590       68.527      124.671       57.614        0.603        0.013      107.875        5.621        0.003      336.455        7.768      861.872
11/18/2013  09:42:00      -77.229      -61.477       -1.735       29.152       26.040       17.511      849.845      678.081      306.643        0.579        0.092       98.710       17.453        0.031      336.569        7.960      861.880
11/18/2013  09:43:00      -56.590      -57.685        9.023       28.793       30.147       22.248      829.045      908.836      494.985        0.442        0.112       80.808       19.629        0.059      336.662        8.115      861.874
11/18/2013  09:44:00      -47.028      -47.805       -1.774       21.554       23.634       12.825      464.582      558.587      164.476        0.284        0.059       67.059       11.091        0.027      336.646        8.088      861.871
11/18/2013  09:45:00      -25.553      -23.872        0.532       28.451       19.982       11.455      809.432      399.279      131.217        0.128        0.067       34.969       15.267        0.191      336.832        8.399      861.847
11/18/2013  09:46:00      -30.403        5.826        4.828       13.540        8.203       13.059      183.340       67.285      170.532        0.070        0.021       30.956        8.325        0.072      336.791        8.329      861.844
11/18/2013  09:47:00      -75.091        9.746      -12.256       36.542       22.075       19.328     1335.323      487.313      373.557        0.404        0.110       75.721       15.374        0.041      336.725        8.219      861.838
11/18/2013  09:48:00      -25.806      -12.760       -4.313       17.137       19.630       17.753      293.662      385.342      315.181        0.092        0.050       28.789       11.224        0.152      336.885        8.487      861.852
11/18/2013  09:49:00      -12.552       23.876       16.809       29.281       30.587       18.179      857.387      935.592      330.474        0.157        0.106       26.974        6.228        0.053      337.272        9.134      861.856
11/18/2013  09:50:00       13.237       46.494       53.451       22.437       40.151       21.906      503.410     1612.067      479.877        0.389        0.130       48.342       22.240        0.212      337.271        9.132      861.868
11/18/2013  09:51:00      -17.199      -27.817       11.431       31.455       32.844       20.313      989.406     1078.746      412.620        0.184        0.124       32.705       17.587        0.289      337.079        8.812      861.880
11/18/2013  09:52:00      -29.053      -66.686      -12.585       31.077       49.523       17.827      965.782     2452.499      317.806        0.459        0.187       72.739        7.686        0.011      336.718        8.209      861.900
11/18/2013  09:53:00      -23.212       -1.566      -12.366       14.975        8.273        8.249      224.253       68.438       68.047        0.053        0.018       23.265        9.005        0.150      336.842        8.416      861.907
11/18/2013  09:54:00      -44.570      -41.135       -3.515       31.998       41.154       14.182     1023.890     1693.615      201.117        0.330        0.146       60.651       19.110        0.099      336.769        8.294      861.920
11/18/2013  09:55:00      -34.928      -44.392        6.578       22.104       38.525       16.897      488.593     1484.158      285.512        0.275        0.113       56.485       18.819        0.111      336.746        8.254      861.916
11/18/2013  09:56:00      -44.285        3.006       -5.299       29.126       10.549       10.133      848.332      111.285      102.684        0.153        0.053       44.387        8.990        0.041      336.820        8.380      861.907
11/18/2013  09:57:00      -17.031       30.397       34.225       20.017       25.233       27.633      400.682      636.712      763.573        0.209        0.090       34.843       13.471        0.149      337.322        9.216      861.886
11/18/2013  09:58:00       -0.837       -7.217       49.387       22.064       28.902       18.433      486.809      835.300      339.778        0.208        0.083        7.265       10.973        2.281      337.300        9.182      861.868
11/18/2013  09:59:00      -19.479      -46.976       -8.791       27.859       34.391       24.078      776.108     1182.720      579.750        0.260        0.127       50.854       12.842        0.064      337.052        8.766      861.862
11/18/2013  10:00:00      -27.030      -13.785        5.748       33.551       20.507       18.107     1125.649      420.528      327.847        0.141        0.094       30.342       20.381        0.451      337.321        9.217      861.837
11/18/2013  10:01:00      -54.399      -14.191       -2.054       32.396       21.040       13.571     1049.507      442.699      184.184        0.242        0.084       56.220       13.776        0.060      337.057        8.772      861.826
11/18/2013  10:02:00      -31.971       -9.928        3.036       19.828       23.258       15.753      393.143      540.954      248.149        0.116        0.059       33.477       14.439        0.186      337.070        8.794      861.801
11/18/2013  10:03:00      -31.207      -27.084        6.772       24.585       29.702       15.100      604.429      882.218      228.010        0.173        0.086       41.321       14.027        0.115      337.135        8.904      861.802
11/18/2013  10:04:00      -42.221      -70.346       -2.405       26.330       23.999       17.474      693.249      575.930      305.331        0.416        0.079       82.043       13.758        0.028      336.923        8.550      861.813
11/18/2013  10:05:00      -52.836      -56.702       -1.400       39.594       29.898       24.343     1567.660      893.916      592.593        0.453        0.153       77.503       23.991        0.096      337.002        8.681      861.801
11/18/2013  10:06:00      -69.245      -56.972       -2.808       34.376       38.694       16.638     1181.706     1497.197      276.816        0.550        0.148       89.669       16.452        0.034      336.933        8.567      861.795
11/18/2013  10:07:00      -51.514      -61.268        1.374       27.348       24.026       17.958      747.940      577.232      322.488        0.403        0.082       80.047       18.220        0.052      336.937        8.573      861.795
11/18/2013  10:08:00      -59.977      -41.741        5.676       36.650       34.244       25.465     1343.224     1172.666      648.445        0.427        0.158       73.073       25.613        0.123      337.063        8.785      861.792
11/18/2013  10:09:00      -53.011      -47.363        3.998       33.151       40.678       23.942     1099.012     1654.674      573.206        0.420        0.166       71.087       20.535        0.083      337.055        8.771      861.805
11/18/2013  10:10:00      -48.077      -92.688        0.200       31.391       39.265       21.060      985.422     1541.715      443.531        0.694        0.149      104.415       21.193        0.041      336.949        8.593      861.798
11/18/2013  10:11:00      -27.139      -80.754        6.527       27.640       38.948       25.983      763.971     1516.934      675.131        0.513        0.148       85.193       29.958        0.124      337.011        8.699      861.795
11/18/2013  10:12:00      -65.360      -66.751       -9.462       28.344       38.746       16.190      803.386     1501.258      262.132        0.569        0.128       93.422        7.005        0.006      336.913        8.533      861.806
11/18/2013  10:13:00      -59.729      -76.004        4.420       32.880       28.670       18.254     1081.123      821.955      333.192        0.580        0.112       96.665       16.441        0.029      336.985        8.652      861.799
11/18/2013  10:14:00     -105.708      -73.450       -7.139       54.943       42.320       23.362     3018.733     1790.988      545.795        1.099        0.268      128.721       23.615        0.034      336.998        8.674      861.805
11/18/2013  10:15:00      -65.832      -51.027        5.059       52.383       38.203       28.672     2743.968     1459.485      822.099        0.599        0.251       83.292       20.145        0.058      337.083        8.817      861.812
11/18/2013  10:16:00      -52.954      -76.011       -0.799       43.372       30.991       21.774     1881.088      960.466      474.095        0.595        0.166       92.638       20.463        0.049      337.031        8.731      861.817
11/18/2013  10:17:00      -70.170      -56.010       13.723       52.354       36.865       28.033     2740.960     1359.063      785.848        0.657        0.244       89.782       21.123        0.055      337.137        8.909      861.825
11/18/2013  10:18:00      -77.239      -78.341       -4.539       41.355       35.552       21.259     1710.251     1263.939      451.963        0.777        0.171      110.015        8.408        0.006      337.111        8.864      861.840
11/18/2013  10:19:00      -76.986      -98.859        0.057       44.397       42.566       28.228     1971.083     1811.848      796.842        1.014        0.229      125.300       21.712        0.030      337.068        8.792      861.830
11/18/2013  10:20:00      -61.319     -176.786       -2.421       20.578       47.058       21.002      423.453     2214.452      441.071        1.905        0.154      187.118       19.166        0.010      336.923        8.548      861.828
11/18/2013  10:21:00      -87.683     -115.195        3.442       61.481       47.780       33.681     3779.972     2282.891     1134.385        1.408        0.360      144.769       28.920        0.040      337.033        8.732      861.826
11/18/2013  10:22:00     -100.355      -68.514       -1.611       39.466       31.616       22.275     1557.603      999.582      496.172        0.891        0.153      121.512       16.547        0.019      337.065        8.786      861.810
11/18/2013  10:23:00     -101.965      -75.040      -14.353       34.773       18.183       23.225     1209.174      330.618      539.420        0.916        0.104      126.601        9.442        0.006      337.045        8.753      861.790
11/18/2013  10:24:00      -42.289      -17.747        4.654       18.235       17.294       14.330      332.516      299.078      205.359        0.148        0.042       45.862        8.964        0.038      337.149        8.928      861.776
11/18/2013  10:25:00      -52.969       -9.114       -1.993       21.609       17.170       11.349      466.937      294.796      128.806        0.189        0.045       53.747        6.155        0.013      337.144        8.920      861.788
11/18/2013  10:26:00      -19.033       -6.320       16.890       24.613       19.069       15.050      605.824      363.627      226.511        0.094        0.060       20.055       10.302        0.264      337.588        9.663      861.802
11/18/2013  10:27:00      -38.061      -11.499       21.679       30.348       43.936       24.921      921.009     1930.403      621.076        0.276        0.174       39.760       17.328        0.190      337.605        9.692      861.829
11/18/2013  10:28:00      -22.028      -20.903       16.470       41.419       33.253       25.494     1715.541     1105.771      649.964        0.233        0.174       30.367       21.971        0.523      337.723        9.889      861.845
11/18/2013  10:29:00      -69.728      -72.867       -7.563       45.252       45.520       22.400     2047.759     2072.087      501.778        0.742        0.231      100.854        5.105        0.003      337.246        9.091      861.831
11/18/2013  10:30:00      -71.299      -61.998      -13.391       30.890       32.603       17.094      954.169     1062.935      292.203        0.571        0.115       94.484       17.958        0.036      337.203        9.018      861.804
11/18/2013  10:31:00      -46.603        9.684        2.685       29.848       26.204       24.962      890.884      686.650      623.113        0.224        0.110       47.599       20.547        0.186      337.569        9.632      861.775
11/18/2013  10:32:00      -55.399      -26.736       -0.109       47.113       38.165       15.055     2219.644     1456.585      226.643        0.384        0.195       61.513       13.347        0.047      337.487        9.494      861.752
11/18/2013  10:33:00      -47.984      -10.362        6.722       44.400       29.220       19.876     1971.351      853.793      395.058        0.284        0.161       49.090       18.052        0.135      337.614        9.707      861.739
11/18/2013  10:34:00      -16.563      -31.337        7.957       37.224       20.530       16.885     1385.637      421.484      285.089        0.171        0.105       35.445       14.004        0.156      337.549        9.599      861.733
11/18/2013  10:35:00      -34.162        5.018        8.497       30.050       29.361       20.446      903.016      862.093      418.019        0.172        0.109       34.529       12.316        0.127      337.769        9.967      861.716
11/18/2013  10:36:00      -34.714      -15.392        6.669       43.660       29.295       18.505     1906.168      858.216      342.441        0.230        0.155       37.974        8.255        0.047      337.763        9.957      861.727
11/18/2013  10:37:00      -31.708       -4.595       -4.667       25.189       21.489       18.938      634.461      461.757      358.644        0.125        0.073       32.039        9.723        0.092      337.602        9.688      861.745
11/18/2013  10:38:00      -23.279       10.959       -5.685       19.637       22.871       12.937      385.618      523.097      167.373        0.089        0.054       25.730       13.247        0.265      337.640        9.750      861.744
11/18/2013  10:39:00      -67.232      -31.792       -3.360       38.057       39.353       21.914     1448.316     1548.678      480.236        0.451        0.174       74.370       11.674        0.025      337.635        9.743      861.746
11/18/2013  10:40:00      -51.634      -16.117       -4.321       21.977       20.807       14.102      482.986      432.934      198.871        0.203        0.056       54.091       11.377        0.044      337.660        9.786      861.745
11/18/2013  10:41:00      -17.404       -6.508       -5.755       28.478       25.385       20.939      811.024      644.392      438.423        0.114        0.095       18.581        6.294        0.115      337.900       10.187      861.710
11/18/2013  10:42:00      -20.608       14.592       40.550       17.228       23.670       26.874      296.797      560.282      722.219        0.193        0.079       25.251       17.391        0.474      338.082       10.492      861.684
11/18/2013  10:43:00      -13.872       38.956       72.281       15.391       26.404       18.242      236.871      697.149      332.777        0.410        0.063       41.352       16.630        0.162      337.921       10.221      861.655
11/18/2013  10:44:00      -11.541      -10.136       26.546       15.140       33.004       28.641      229.214     1089.288      820.321        0.154        0.107       15.361       25.643        2.787      337.861       10.121      861.650
11/18/2013  10:45:00      -33.459      -40.093       -9.052       45.655       22.854       21.210     2084.383      522.325      449.862        0.293        0.153       52.220       13.572        0.068      337.671        9.803      861.644
11/18/2013  10:46:00      -27.281       -5.331       11.934       20.217       20.542       16.690      408.710      421.988      278.572        0.101        0.055       27.797       13.250        0.227      337.835       10.078      861.631
11/18/2013  10:47:00        2.376       21.041       25.221       22.819       19.865       14.242      520.710      394.614      202.827        0.110        0.056       21.175       10.116        0.228      338.181       10.658      861.626
11/18/2013  10:48:00      -20.269       21.375       16.910       31.124       21.056       19.366      968.711      443.371      375.046        0.147        0.089       29.458       11.783        0.160      338.154       10.614      861.619
11/18/2013  10:49:00      -12.030      -11.662       11.258       21.825       30.051       15.898      476.316      903.059      252.740        0.102        0.082       16.755       12.215        0.532      338.208       10.703      861.616
11/18/2013  10:50:00       14.989      -22.114       12.930       18.486       23.359       17.942      341.723      545.635      321.923        0.104        0.060       26.715       11.157        0.174      338.275       10.816      861.612
11/18/2013  10:51:00      -49.791       -6.732        8.893       37.049       45.032       21.234     1372.662     2027.910      450.899        0.323        0.193       50.244       18.744        0.139      338.139       10.588      861.606
11/18/2013  10:52:00      -41.846      -35.496      -17.207       31.000       39.331       18.727      960.996     1546.917      350.701        0.308        0.143       54.873        8.681        0.025      337.579        9.648      861.605
11/18/2013  10:53:00      -36.588       -3.723      -17.658       15.895       13.863       12.140      252.646      192.186      147.372        0.113        0.030       36.777        8.007        0.047      337.678        9.815      861.596
11/18/2013  10:54:00      -63.246       -0.222       -6.130       11.800       31.483       12.014      139.237      991.194      144.325        0.266        0.064       63.246        6.997        0.012      337.583        9.655      861.603
11/18/2013  10:55:00      -49.154       28.321       -6.168       23.442       20.442       19.634      549.512      417.864      385.482        0.230        0.068       56.729       16.661        0.086      337.871       10.137      861.608
11/18/2013  10:56:00      -53.223      -44.962       15.801       40.734       43.255       29.252     1659.299     1871.026      855.651        0.474        0.219       69.673       23.377        0.113      337.974       10.311      861.589
11/18/2013  10:57:00      -61.819      -30.211        4.633       26.929       33.866       24.385      725.178     1146.890      594.648        0.361        0.123       68.806       22.739        0.109      337.991       10.340      861.569
11/18/2013  10:58:00      -35.546       -5.532        3.768       20.186       18.017       12.064      407.461      324.605      145.547        0.109        0.044       35.974       10.523        0.086      337.932       10.240      861.555
11/18/2013  10:59:00      -34.520      -44.932        0.764       24.874       37.167       23.541      618.740     1381.354      554.160        0.288        0.128       56.661       16.075        0.080      338.065       10.464      861.521
11/18/2013  11:00:00        4.682       38.665       64.278       27.589       37.416       32.394      761.138     1399.930     1049.391        0.443        0.161       38.947       25.658        0.434      338.432       11.080      861.498
11/18/2013  11:01:00      -41.326      -51.598       10.413       40.469       52.809       42.293     1637.769     2788.795     1788.679        0.535        0.311       66.107       33.190        0.252      338.126       10.565      861.500
11/18/2013  11:02:00       -1.711      -12.780       35.832       38.274       56.134       43.835     1464.892     3150.976     1921.497        0.399        0.327       12.894       22.761        3.116      338.303       10.864      861.470
11/18/2013  11:03:00       89.034      -55.313       -5.797       61.463       62.868       49.343     3777.720     3952.352     2434.715        1.059        0.508      104.817       53.347        0.259      338.021       10.392      861.467
11/18/2013  11:04:00       40.373      -19.262       14.640       34.892       41.016       39.067     1217.446     1682.311     1526.207        0.332        0.221       44.732       31.994        0.512      338.149       10.606      861.467
11/18/2013  11:05:00       45.622      -20.352       28.169       37.326       37.300       29.812     1393.236     1391.280      888.739        0.348        0.184       49.956       22.118        0.196      338.200       10.690      861.436
11/18/2013  11:06:00       13.025      -40.148        3.070       54.666       40.807       33.232     2988.336     1665.201     1104.347        0.377        0.288       42.208       31.749        0.566      338.364       10.964      861.420
11/18/2013  11:07:00       42.037      -88.582      -15.579       46.284       37.795       26.796     2142.163     1428.448      718.039        0.707        0.214       98.051       10.188        0.011      338.154       10.613      861.420
11/18/2013  11:08:00       -1.180      -80.393       -0.448       38.549       51.169       37.110     1486.015     2618.295     1377.127        0.597        0.274       80.402       29.002        0.130      338.357       10.954      861.419
11/18/2013  11:09:00       23.044      -50.370       22.592       40.690       41.646       40.035     1655.695     1734.378     1602.833        0.428        0.250       55.391       26.035        0.221      338.388       11.005      861.406
11/18/2013  11:10:00       28.344       58.104       43.057       39.494       33.078       30.812     1559.811     1094.170      949.351        0.482        0.180       64.649       26.847        0.172      338.273       10.813      861.377
11/18/2013  11:11:00       19.328        0.523       56.135       47.364       62.737       37.555     2243.352     3935.894     1410.349        0.556        0.379       19.335       47.146        5.946      338.263       10.796      861.350
11/18/2013  11:12:00       42.821       30.701       33.490       31.139       34.281       28.400      969.649     1175.166      806.569        0.342        0.148       52.690        7.225        0.019      338.077       10.483      861.348
11/18/2013  11:13:00       40.163       33.237       30.005       20.334       25.357       18.595      413.453      642.981      345.787        0.251        0.070       52.132       11.831        0.051      338.099       10.522      861.342
11/18/2013  11:14:00       90.445      -53.404       22.067       66.781       56.719       45.079     4459.749     3217.083     2032.083        1.061        0.485      105.035       31.292        0.089      338.180       10.655      861.319
11/18/2013  11:15:00       65.798       11.891       41.422       56.987       62.140       49.864     3247.540     3861.379     2486.388        0.789        0.480       66.864       52.916        0.626      338.199       10.688      861.312
11/18/2013  11:16:00       18.092      -52.958       42.895       49.432       88.694       49.923     2443.561     7866.629     2492.330        0.888        0.640       55.963       59.968        1.148      338.397       11.021      861.312
11/18/2013  11:17:00       61.679      -95.349      -14.332       40.442       57.504       27.541     1635.572     3306.681      758.532        0.940        0.285      113.559       23.386        0.042      337.990       10.338      861.333
11/18/2013  11:18:00       51.203      -41.885       20.666       31.693       59.788       23.482     1004.477     3574.556      551.393        0.497        0.257       66.152       23.302        0.124      338.019       10.386      861.322
11/18/2013  11:19:00       31.078      -20.182       -3.642       21.823       22.538       15.851      476.262      507.969      251.270        0.131        0.062       37.056        8.609        0.054      338.036       10.414      861.300
11/18/2013  11:20:00       25.098      -39.124       -2.416       33.007       28.978       24.358     1089.460      839.726      593.315        0.234        0.126       46.482       12.765        0.075      338.094       10.511      861.307
11/18/2013  11:21:00        9.960        5.348       32.693       20.444       40.898       24.820      417.952     1672.671      616.044        0.195        0.135       11.305       21.030        3.461      338.533       11.250      861.326
11/18/2013  11:22:00       31.835       11.627       29.580       25.296       24.933       19.167      639.876      621.653      367.362        0.183        0.081       33.892       12.037        0.126      338.278       10.821      861.342
11/18/2013  11:23:00       38.362       36.980       39.130       40.362       43.367       34.732     1629.082     1880.694     1206.290        0.454        0.236       53.284       27.440        0.265      338.363       10.963      861.343
11/18/2013  11:24:00       -0.610       28.857       50.251       22.759       26.693       24.432      517.959      712.538      596.935        0.259        0.091       28.863       18.074        0.392      338.545       11.270      861.339
11/18/2013  11:25:00        2.261       -9.605       28.259       17.288       42.828       28.144      298.892     1834.204      792.104        0.191        0.146        9.867       28.433        8.304      338.575       11.321      861.331
11/18/2013  11:26:00       44.089       44.759       20.189       38.905       27.482       36.713     1513.594      755.276     1347.867        0.399        0.181       62.827       21.696        0.119      338.428       11.073      861.306
11/18/2013  11:27:00       46.583       19.916       11.388       34.060       37.685       26.515     1160.057     1420.140      703.037        0.299        0.164       50.662       17.969        0.126      338.511       11.213      861.266
11/18/2013  11:28:00       90.571       63.909       12.244       38.698       30.305       24.419     1497.498      918.405      596.264        0.772        0.151      110.849        8.244        0.006      338.172       10.643      861.235
11/18/2013  11:29:00      111.758       53.966       17.790       43.163       47.030       29.423     1863.012     2211.789      865.728        1.033        0.247      124.105       16.154        0.017      338.334       10.914      861.208
11/18/2013  11:30:00      144.416       86.660        4.496       48.962       37.401       31.457     2397.312     1398.870      989.537        1.658        0.239      168.422       24.238        0.021      338.114       10.546      861.197
11/18/2013  11:31:00       98.803       75.407       13.888       35.695       33.513       29.951     1274.110     1123.107      897.035        0.947        0.165      124.291       17.812        0.021      338.127       10.568      861.199
11/18/2013  11:32:00       69.585       34.273       10.380       34.187       31.670       27.452     1168.785     1002.968      753.618        0.452        0.146       77.568       18.975        0.060      338.186       10.667      861.204
11/18/2013  11:33:00       -4.916       -0.274       16.909       35.265       21.674       14.687     1243.592      469.762      215.700        0.112        0.096        4.923       13.290        7.288      338.272       10.813      861.197
11/18/2013  11:34:00       20.379       28.211       19.766       21.583       14.067       18.117      465.827      197.874      328.228        0.130        0.050       34.802        9.913        0.081      338.279       10.823      861.167
11/18/2013  11:35:00       59.652       79.749       15.582       35.974       29.300       23.181     1294.139      858.477      537.341        0.642        0.134       99.590       18.624        0.035      338.182       10.659      861.125
11/18/2013  11:36:00       19.583       40.118       43.641       37.681       39.216       43.237     1419.837     1537.859     1869.445        0.436        0.241       44.642       32.721        0.537      338.496       11.186      861.080
11/18/2013  11:37:00       55.635       46.969       30.981       39.727       43.270       33.480     1578.216     1872.258     1120.886        0.542        0.229       72.811       32.462        0.199      338.269       10.806      861.051
11/18/2013  11:38:00       33.298       69.137       79.888       31.025       38.148       31.962      962.558     1455.272     1021.600        0.785        0.172       76.738       26.424        0.119      338.367       10.971      861.032
11/18/2013  11:39:00       48.576       65.752       63.332       37.850       35.693       24.864     1432.626     1273.979      618.226        0.701        0.166       81.749       19.147        0.055      338.316       10.884      861.032
11/18/2013  11:40:00       31.807      -64.592       10.948       46.195       44.345       30.601     2134.004     1966.513      936.437        0.517        0.252       71.999       32.001        0.198      338.474       11.150      861.037
11/18/2013  11:41:00       18.885       14.454       36.293       32.594       39.695       26.707     1062.365     1575.707      713.257        0.262        0.168       23.781       25.521        1.152      338.459       11.124      861.033
11/18/2013  11:42:00       79.348       85.167       82.495       63.861       38.172       39.678     4078.236     1457.111     1574.356        1.373        0.355      116.402       21.090        0.033      338.358       10.956      861.008
11/18/2013  11:43:00       72.725       64.982       65.123       36.918       31.606       37.476     1362.921      998.935     1404.415        0.876        0.188       97.528       22.299        0.052      338.289       10.840      861.005
11/18/2013  11:44:00       16.881      -21.014       27.029       24.496       54.677       32.679      600.078     2989.552     1067.936        0.306        0.233       26.955       34.400        1.629      338.625       11.404      861.029
11/18/2013  11:45:00       42.959      -11.683       19.859       48.976       40.545       28.317     2398.658     1643.905      801.879        0.361        0.242       44.520       33.732        0.574      338.544       11.267      861.043
11/18/2013  11:46:00        6.169      -19.327       25.499       24.280       49.849       32.016      589.502     2484.883     1024.994        0.258        0.205       20.287       36.484        3.234      338.497       11.189      861.029
11/18/2013  11:47:00       67.623       44.730       48.100       77.786       38.251       39.447     6050.596     1463.101     1556.078        0.898        0.453       81.078       41.362        0.260      338.474       11.150      860.992
11/18/2013  11:48:00       78.300       35.854        5.524       54.068       50.262       33.368     2923.332     2526.307     1113.419        0.700        0.328       86.118       20.050        0.054      338.389       11.007      860.967
11/18/2013  11:49:00      117.928       81.469        2.321       41.890       39.710       24.061     1754.749     1576.919      578.938        1.223        0.196      143.333       16.373        0.013      338.338       10.921      860.939
11/18/2013  11:50:00       91.835       52.262        0.988       34.392       26.429       26.836     1182.789      698.506      720.166        0.688        0.130      105.664       15.347        0.021      338.280       10.823      860.908
11/18/2013  11:51:00      109.712       71.239       27.563       36.020       36.393       30.614     1297.418     1324.476      937.244        1.071        0.178      130.812       16.215        0.015      338.341       10.926      860.882
11/18/2013  11:52:00       79.293       54.344       26.538       22.967       32.961       29.269      527.467     1086.457      856.695        0.621        0.124       96.128       14.865        0.024      338.302       10.860      860.868
11/18/2013  11:53:00       90.980       56.804       10.761       23.512       25.875       17.795      552.805      669.515      316.655        0.658        0.077      107.257        9.031        0.007      338.232       10.744      860.858
11/18/2013  11:54:00       18.891        2.336        9.133       34.082       38.608       16.643     1161.562     1490.567      276.974        0.169        0.146       19.035       12.026        0.399      338.429       11.075      860.848
11/18/2013  11:55:00      -14.021      -10.172       13.041       13.361       21.151       17.375      178.511      447.355      301.899        0.070        0.046       17.322       17.967        1.076      338.531       11.246      860.833
11/18/2013  11:56:00      -21.355       10.470        9.296       30.027       12.624       14.533      901.639      159.372      211.213        0.096        0.064       23.783       13.648        0.329      338.492       11.180      860.809
11/18/2013  11:57:00       48.910       36.438       28.043       35.773       29.139       31.061     1279.686      849.086      964.771        0.380        0.155       60.991       19.782        0.105      338.611       11.380      860.785
11/18/2013  11:58:00       90.425       52.617       37.046       40.483       31.562       28.704     1638.856      996.129      823.898        0.789        0.173      104.619       22.365        0.046      338.452       11.113      860.750
11/18/2013  11:59:00       59.560       49.634       25.629       44.305       24.552       36.046     1962.902      602.788     1299.285        0.527        0.193       77.530       31.197        0.162      338.502       11.197      860.707
11/18/2013  12:00:00       53.855       90.035       67.216       51.819       35.235       50.049     2685.210     1241.519     2504.855        1.098        0.322      104.912       37.696        0.129      338.660       11.462      860.694
11/18/2013  12:01:00       40.622       65.445       70.799       41.200       34.109       25.752     1697.452     1163.450      663.185        0.723        0.176       77.028       20.499        0.071      338.518       11.224      860.689
11/18/2013  12:02:00       87.444       30.925        6.852       24.135       32.100       24.620      582.503     1030.402      606.155        0.543        0.111       92.751       15.682        0.029      338.403       11.031      860.688
11/18/2013  12:03:00        9.070       66.506      -10.307       31.934       21.363       13.101     1019.770      456.387      171.642        0.313        0.082       67.122        9.958        0.022      338.405       11.034      860.673
11/18/2013  12:04:00       -6.312       80.295      -12.478       29.017       34.321       15.394      842.005     1177.901      236.973        0.445        0.113       80.543       15.279        0.036      338.467       11.137      860.690
11/18/2013  12:05:00       34.933       30.635       17.041       30.303       29.889       19.985      918.242      893.379      399.408        0.233        0.111       46.463       16.320        0.123      338.545       11.268      860.724
11/18/2013  12:06:00        0.625       44.502       59.896       16.938       26.035       16.902      286.891      677.841      285.675        0.341        0.063       44.507       12.441        0.078      338.681       11.498      860.714
11/18/2013  12:07:00       31.354       94.696       91.906       44.076       46.150       38.163     1942.716     2129.780     1456.412        1.196        0.276       99.752       32.332        0.105      338.602       11.365      860.665
11/18/2013  12:08:00       20.040       22.900       53.937       42.615       63.817       37.043     1816.042     4072.647     1372.152        0.555        0.363       30.431       40.599        1.780      338.574       11.318      860.658
11/18/2013  12:09:00        8.244      -39.177       20.874       53.220       50.921       43.648     2832.407     2592.977     1905.126        0.468        0.367       40.035       32.292        0.651      338.674       11.486      860.678
11/18/2013  12:10:00      -34.681       -5.354       12.282       44.397       38.197       24.820     1971.105     1459.015      616.010        0.271        0.202       35.092       28.510        0.660      338.718       11.560      860.687
11/18/2013  12:11:00      -19.917        9.565       24.203       35.135       30.122       22.229     1234.484      907.345      494.133        0.185        0.132       22.095        9.317        0.178      338.800       11.697      860.659
11/18/2013  12:12:00       -5.473      -10.276       41.900       44.453       47.821       25.042     1976.105     2286.836      627.101        0.339        0.245       11.643       21.166        3.305      338.755       11.622      860.629
11/18/2013  12:13:00       18.858      -21.225       48.688       49.738       87.292       54.216     2473.894     7619.888     2939.388        0.810        0.652       28.392       51.498        3.290      338.685       11.505      860.586
11/18/2013  12:14:00       37.796     -107.150       -7.650       49.636       60.351       45.906     2463.742     3642.262     2107.345        1.059        0.411      113.621       44.022        0.150      338.680       11.497      860.557
11/18/2013  12:15:00       76.292      -62.830       -6.778       50.939       65.634       48.838     2594.747     4307.771     2385.126        0.955        0.464       98.833       46.483        0.221      338.592       11.348      860.540
11/18/2013  12:16:00       46.434      -87.448        1.126       57.382       75.665       40.880     3292.750     5725.239     1671.189        1.024        0.534       99.012       42.022        0.180      338.636       11.422      860.530
11/18/2013  12:17:00       54.933      -76.842        2.981       54.027       56.865       38.197     2918.948     3233.593     1459.032        0.827        0.381       94.458       43.561        0.213      338.546       11.271      860.522
11/18/2013  12:18:00      -34.750      -10.638       10.102       45.382       32.231       23.898     2059.554     1038.866      571.124        0.255        0.183       36.342       22.001        0.367      338.576       11.321      860.517
11/18/2013  12:19:00       14.378       16.045       15.743       26.513       20.365       20.347      702.927      414.734      414.007        0.112        0.077       21.544        8.753        0.165      338.641       11.430      860.516
11/18/2013  12:20:00      -19.272      -16.612       -2.925       26.809       20.453       12.493      718.710      418.341      156.064        0.097        0.065       25.444        6.853        0.073      338.671       11.481      860.521
11/18/2013  12:21:00        1.415       -6.538        5.043       25.265       35.325       25.684      638.297     1247.821      659.673        0.131        0.127        6.690       24.924       13.881      338.661       11.464      860.512
11/18/2013  12:22:00      -22.907      -12.785       -1.710       24.172       15.230       14.494      584.303      231.943      210.065        0.086        0.051       26.234        5.252        0.040      338.592       11.349      860.490
11/18/2013  12:23:00      -33.726      -23.589       10.984       37.842       39.053       26.186     1432.049     1525.133      685.706        0.273        0.182       41.156       23.264        0.320      338.663       11.468      860.474
11/18/2013  12:24:00      -76.810      -60.222        3.678       52.438       31.819       23.859     2749.721     1012.425      569.254        0.693        0.217       97.604       24.694        0.064      338.539       11.259      860.473
11/18/2013  12:25:00      -83.549      -82.726        3.852       51.438       46.884       29.620     2645.875     2198.115      877.324        0.978        0.286      117.576       21.506        0.033      338.526       11.237      860.470
11/18/2013  12:26:00      -50.049      -76.868       -4.119       37.361       29.810       16.113     1395.879      888.646      259.618        0.549        0.127       91.726       16.797        0.034      338.448       11.104      860.465
11/18/2013  12:27:00      -61.315      -24.286       -9.719       19.268       15.475       15.333      371.252      239.482      235.097        0.264        0.042       65.949       12.125        0.034      338.471       11.146      860.468
11/18/2013  12:28:00      -19.491      -30.877        2.646       17.356       12.645       15.572      301.228      159.885      242.479        0.102        0.035       36.514       12.593        0.119      338.523       11.231      860.456
11/18/2013  12:29:00      -25.236      -14.027       -2.512       14.713       19.920       12.065      216.487      396.813      145.567        0.080        0.038       28.873        8.052        0.078      338.579       11.326      860.445
11/18/2013  12:30:00       -5.698      -17.736        9.312       22.334       15.636       10.585      498.803      244.487      112.038        0.064        0.043       18.629       10.164        0.298      338.680       11.497      860.443
11/18/2013  12:31:00      -15.397      -16.478       10.050       23.250       19.256       12.648      540.557      370.791      159.966        0.084        0.054       22.553       12.417        0.303      338.700       11.530      860.423
11/18/2013  12:32:00      -40.817      -28.043       -0.018       13.991       13.407        9.628      195.735      179.759       92.691        0.146        0.023       49.522        8.585        0.030      338.572       11.316      860.402
11/18/2013  12:33:00      -46.766      -18.106       -5.600       10.494        8.003        7.671      110.127       64.042       58.851        0.139        0.012       50.148        5.810        0.013      338.575       11.319      860.383
11/18/2013  12:34:00       -1.534       -6.435       14.958        9.386        8.259        9.394       88.089       68.216       88.251        0.026        0.012        6.615        8.145        1.516      338.940       11.933      860.365
11/18/2013  12:35:00       -5.607        3.313       31.149       20.161       42.033       28.080      406.446     1766.804      788.491        0.199        0.148        6.512       30.555       22.013      338.925       11.908      860.347
11/18/2013  12:36:00       22.956      -89.981       19.600       58.051       64.105       52.180     3369.931     4109.396     2722.740        0.960        0.510       92.863       46.610        0.252      338.836       11.758      860.337
11/18/2013  12:37:00      123.542     -139.876      -36.985       45.743       57.586       32.131     2092.432     3316.112     1032.411        2.132        0.322      186.622       31.619        0.029      338.628       11.408      860.317
11/18/2013  12:38:00       53.753      -61.977       -3.116       43.885       34.504       33.282     1925.908     1190.504     1107.692        0.548        0.211       82.040       33.041        0.162      338.672       11.484      860.288
11/18/2013  12:39:00       44.968      -44.317        0.017       42.117       38.539       29.273     1773.826     1485.276      856.936        0.405        0.206       63.136       25.626        0.165      338.787       11.675      860.273
11/18/2013  12:40:00       12.695       -5.954       18.891       30.967       21.702       16.782      958.962      470.984      281.635        0.113        0.086       14.022       14.635        1.089      338.923       11.903      860.287
11/18/2013  12:41:00      -36.353      -18.200       12.795       48.039       33.070       22.207     2307.780     1093.612      493.129        0.285        0.195       40.654       24.081        0.351      338.846       11.774      860.299
11/18/2013  12:42:00      -75.146      -80.791       -0.135       50.125       45.053       24.765     2512.483     2029.812      613.329        0.866        0.258      110.336       30.145        0.075      338.645       11.436      860.313
11/18/2013  12:43:00      -53.243      -47.579        0.299       38.653       32.947       24.616     1494.080     1085.526      605.941        0.414        0.159       71.404       24.530        0.118      338.659       11.460      860.289
11/18/2013  12:44:00      -26.968      -28.881       -2.930       23.950       24.921       16.162      573.581      621.048      261.200        0.151        0.073       39.514        5.259        0.018      338.737       11.591      860.248
11/18/2013  12:45:00      -67.090      -48.173        2.317       48.519       38.564       24.200     2354.062     1487.153      585.661        0.563        0.221       82.594       23.916        0.084      338.684       11.504      860.236
11/18/2013  12:46:00      -92.890      -87.299        0.242       46.034       48.607       22.403     2119.157     2362.631      501.883        1.062        0.249      127.475       20.365        0.026      338.648       11.442      860.245
11/18/2013  12:47:00      -55.099     -123.570       -3.687       30.161       38.505       20.992      909.708     1482.605      440.674        1.058        0.142      135.298       15.395        0.013      338.616       11.388      860.238
11/18/2013  12:48:00      -26.949      -10.509        1.987       28.330       35.751       14.245      802.603     1278.160      202.908        0.156        0.114       28.926       13.851        0.229      338.740       11.597      860.193
11/18/2013  12:49:00      -35.101       10.693       -4.254       11.999       12.092       13.150      143.977      146.209      172.934        0.091        0.023       36.694        7.710        0.044      338.741       11.599      860.163
11/18/2013  12:50:00      -26.776      -15.613       -6.848       16.967       19.171        9.749      287.887      367.536       95.046        0.088        0.038       30.996        5.284        0.029      338.747       11.608      860.183
11/18/2013  12:51:00      -70.270      -39.742       -1.254       29.952       24.061       16.036      897.143      578.933      257.162        0.413        0.087       80.730        8.212        0.010      338.722       11.567      860.238
11/18/2013  12:52:00        5.279      -26.970       14.577       36.206       27.296       20.828     1310.872      745.075      433.788        0.173        0.124       27.482       17.518        0.406      338.940       11.933      860.285
11/18/2013  12:53:00      -19.292      -29.480       10.693       36.321       18.327       15.983     1319.244      335.868      255.450        0.163        0.096       35.231       14.155        0.161      338.891       11.850      860.297
11/18/2013  12:54:00      -66.349      -47.284       -4.291       18.770       12.105       10.568      352.314      146.540      111.679        0.363        0.031       81.474        3.738        0.002      338.644       11.436      860.302
11/18/2013  12:55:00      -78.967      -32.782       -7.484       22.518       14.180       13.501      507.066      201.082      182.267        0.413        0.045       85.501       11.257        0.017      338.665       11.471      860.312
11/18/2013  12:56:00      -79.448      -32.069       -6.297       15.320       24.680       13.538      234.708      609.099      183.285        0.420        0.051       85.676        7.394        0.007      338.694       11.519      860.319
11/18/2013  12:57:00      -98.690      -36.568       -4.345       30.107       23.235       12.290      906.448      539.843      151.033        0.635        0.080      105.248       11.735        0.012      338.730       11.579      860.310
11/18/2013  12:58:00     -116.195      -29.535       -6.611       23.579       20.210       14.658      555.981      408.463      214.866        0.780        0.059      119.890       13.629        0.013      338.696       11.522      860.309
11/18/2013  12:59:00      -52.588       -9.109       -0.331       34.715       29.682       17.330     1205.136      881.022      300.338        0.262        0.119       53.371       19.924        0.139      338.810       11.714      860.301
11/18/2013  13:00:00      -75.558       -8.331      -13.507       23.837       11.041        9.337      568.206      121.911       87.183        0.337        0.039       76.016        7.146        0.009      338.723       11.567      860.286
11/18/2013  13:01:00       -5.979       -1.503       -1.478        7.712        5.639        8.137       59.468       31.801       66.219        0.010        0.008        6.164        6.161        0.999      338.912       11.887      860.272
11/18/2013  13:02:00       -3.438       -8.548       -4.464        5.412        5.117        4.253       29.290       26.183       18.092        0.009        0.004        9.214        2.948        0.102      338.828       11.746      860.260
11/18/2013  13:03:00      -26.989       -5.535       -9.415       10.107        7.400        6.910      102.157       54.766       47.749        0.053        0.010       27.551        3.898        0.020      338.799       11.696      860.254
11/18/2013  13:04:00      -78.453       -2.131       -8.833       25.208        8.068        8.441      635.456       65.099       71.259        0.350        0.039       78.482        5.954        0.006      338.774       11.655      860.258
11/18/2013  13:05:00      -90.027      -11.782      -11.267       15.627       17.490       11.378      244.208      305.905      129.456        0.452        0.034       90.794        5.880        0.004      338.761       11.631      860.249
11/18/2013  13:06:00      -58.212       -2.245       -4.248       11.510       16.141        9.965      132.485      260.537       99.297        0.195        0.025       58.256        7.155        0.015      338.786       11.675      860.222
11/18/2013  13:07:00      -24.555      -15.413        4.259       22.703       15.343       12.095      515.432      235.411      146.284        0.088        0.045       28.991       11.276        0.151      338.871       11.817      860.202
11/18/2013  13:08:00      -10.771       -5.161       13.388       14.508        9.992       12.009      210.473       99.833      144.218        0.039        0.023       11.944       12.392        1.076      339.028       12.079      860.181
11/18/2013  13:09:00       -3.231       21.755        0.454       12.311       22.328        8.184      151.553      498.538       66.977        0.060        0.036       21.994        5.607        0.065      338.942       11.937      860.156
11/18/2013  13:10:00      -19.713       16.579       -1.545       12.673        9.243        9.440      160.597       85.433       89.109        0.050        0.017       25.758        5.180        0.040      338.904       11.873      860.130
11/18/2013  13:11:00      -78.289       19.087       -5.976       17.947       19.068       10.096      322.107      363.587      101.939        0.366        0.039       80.582        4.912        0.004      338.837       11.760      860.117
11/18/2013  13:12:00      -36.633       39.242      -15.690       14.362        6.639        7.295      206.262       44.081       53.213        0.172        0.015       53.683        2.612        0.002      338.813       11.716      860.087
11/18/2013  13:13:00      -17.460       23.369      -11.610        4.749       12.238        3.924       22.554      149.763       15.399        0.059        0.009       29.171        2.028        0.005      338.845       11.770      860.066
11/18/2013  13:14:00      -27.629      -21.305       -7.469       12.029       10.299        9.654      144.695      106.079       93.201        0.081        0.017       34.889        8.080        0.054      338.882       11.834      860.076
11/18/2013  13:15:00       -8.628      -51.136        1.162       17.886       23.161       17.571      319.923      536.433      308.736        0.193        0.058       51.859       14.158        0.075      338.992       12.020      860.080
11/18/2013  13:16:00      -25.947      -68.301       -4.181       16.837       23.283       11.315      283.476      542.111      128.025        0.315        0.048       73.063       12.767        0.031      338.897       11.860      860.081
11/18/2013  13:17:00      -23.606      -40.254        9.107       31.341       27.589       23.634      982.248      761.176      558.555        0.228        0.115       46.665       21.654        0.215      339.048       12.113      860.061
11/18/2013  13:18:00      -59.278      -40.744       -0.864       15.482       21.086       14.477      239.705      444.638      209.587        0.303        0.045       71.931       11.843        0.027      338.933       11.922      860.043
11/18/2013  13:19:00      -47.341      -38.862       -5.992       14.423       22.563        7.575      208.026      509.068       57.381        0.228        0.039       61.249        8.591        0.020      338.919       11.897      860.014
11/18/2013  13:20:00      -19.254        9.992        1.611       14.643        9.814       10.175      214.424       96.312      103.532        0.044        0.021       21.692        9.292        0.183      339.003       12.040      859.968
11/18/2013  13:21:00       42.089       26.889       14.091       25.593       15.017       14.263      655.026      225.518      203.435        0.189        0.054       49.945       11.609        0.054      339.063       12.139      859.918
11/18/2013  13:22:00       85.729       56.000        6.410       28.133       25.732       21.379      791.467      662.142      457.049        0.622        0.096      102.398       12.323        0.014      339.049       12.118      859.895
11/18/2013  13:23:00      122.510       72.345        0.930       38.640       37.220       28.228     1493.018     1385.313      796.815        1.196        0.184      142.276       12.343        0.008      339.015       12.060      859.864
11/18/2013  13:24:00      112.240       62.552        7.471       49.591       39.937       28.986     2459.273     1594.942      840.174        1.073        0.245      128.494       19.110        0.022      339.010       12.051      859.844
11/18/2013  13:25:00      128.691       85.968       15.850       37.635       30.670       34.208     1416.414      940.662     1170.218        1.386        0.176      154.764       30.420        0.039      338.982       12.005      859.814
11/18/2013  13:26:00      102.382       66.555       36.987       49.457       44.637       47.766     2446.037     1992.425     2281.632        1.150        0.336      122.113       34.440        0.080      339.069       12.150      859.776
11/18/2013  13:27:00       92.938       67.992       31.664       38.863       28.318       34.618     1510.361      801.923     1198.409        0.889        0.176      115.154       15.517        0.018      338.999       12.033      859.760
11/18/2013  13:28:00       75.952       52.622       15.174       43.731       31.499       20.680     1912.420      992.216      427.643        0.605        0.167       92.400       20.598        0.050      339.004       12.041      859.737
11/18/2013  13:29:00       16.203       28.487       41.973       26.558       24.995       23.024      705.334      624.758      530.108        0.235        0.093       32.772       19.895        0.369      339.176       12.329      859.719
11/18/2013  13:30:00       16.471       39.246       29.516       23.016       14.383       14.672      529.748      206.862      215.257        0.182        0.048       42.562       12.733        0.090      339.085       12.175      859.699
11/18/2013  13:31:00       17.816        2.733        3.080       25.467       16.897       11.545      648.586      285.504      133.298        0.070        0.053       18.025       10.258        0.324      339.068       12.149      859.682
11/18/2013  13:32:00       -0.348        4.593       -4.034       16.258       12.595       11.067      264.307      158.622      122.489        0.029        0.027        4.607       10.748        5.444      339.210       12.387      859.665
11/18/2013  13:33:00       -3.970       -2.130       -3.389        8.839       27.091        9.568       78.134      733.919       91.548        0.047        0.045        4.506        4.628        1.055      339.171       12.323      859.647
11/18/2013  13:34:00       19.999        9.759       36.859       33.875       44.974       27.456     1147.540     2022.660      753.834        0.289        0.196       22.253       27.495        1.527      339.241       12.440      859.624
11/18/2013  13:35:00       88.822       74.162       40.519       37.485       51.769       40.098     1405.147     2680.050     1607.832        1.036        0.285      115.713       31.440        0.074      339.178       12.331      859.596
11/18/2013  13:36:00       95.318      114.671       72.284       69.148       49.435       51.176     4781.498     2443.817     2619.007        1.865        0.492      149.114       45.156        0.092      339.106       12.209      859.566
11/18/2013  13:37:00       98.608      120.340       91.407       57.683       47.504       52.262     3327.367     2256.667     2731.312        2.044        0.416      155.581       48.187        0.096      339.139       12.266      859.549
11/18/2013  13:38:00       33.503      113.246      115.808       37.455       47.567       28.992     1402.910     2262.665      840.509        1.593        0.225      118.098       23.693        0.040      339.199       12.368      859.542
11/18/2013  13:39:00       19.731       68.773       97.423       41.322       51.139       21.937     1707.540     2615.160      481.219        0.971        0.240       71.547       26.759        0.140      339.304       12.544      859.543
11/18/2013  13:40:00       16.123       29.690       61.598       33.871       38.136       30.649     1147.243     1454.325      939.365        0.424        0.177       33.786       29.742        0.775      339.295       12.531      859.550
11/18/2013  13:41:00       27.030       48.828       55.075       40.672       29.757       26.265     1654.199      885.502      689.876        0.469        0.161       55.811       12.827        0.053      339.249       12.453      859.563
11/18/2013  13:42:00       55.873        7.533       29.708       49.133       31.555       31.867     2414.023      995.735     1015.487        0.424        0.221       56.378       29.454        0.273      339.140       12.269      859.582
11/18/2013  13:43:00       32.499        8.889        8.752       31.218       22.677       23.093      974.533      514.245      533.264        0.162        0.101       33.693       13.185        0.153      339.195       12.361      859.594
11/18/2013  13:44:00       48.734        6.083        4.940       26.619       16.194       16.036      708.545      262.238      257.163        0.183        0.061       49.112        5.494        0.013      339.176       12.331      859.610
11/18/2013  13:45:00       34.738       24.841       30.315       25.444       30.325       25.381      647.415      919.634      644.212        0.248        0.111       42.706       21.429        0.252      339.221       12.405      859.614
11/18/2013  13:46:00       54.331       27.770       29.409       35.462       31.828       26.142     1257.529     1012.995      683.402        0.377        0.148       61.016       17.336        0.081      339.239       12.438      859.616
11/18/2013  13:47:00       11.197       15.838       55.199       25.378       27.815       21.702      644.028      773.684      470.993        0.266        0.094       19.396        7.487        0.149      339.364       12.646      859.630
11/18/2013  13:48:00       29.138       11.004       44.007       36.271       26.175       27.581     1315.557      685.127      760.726        0.283        0.138       31.147       20.804        0.446      339.280       12.505      859.625
11/18/2013  13:49:00       56.525      -50.895       -9.922       22.818       55.342       22.004      520.660     3062.694      484.163        0.497        0.203       76.062       29.245        0.148      339.177       12.331      859.618
11/18/2013  13:50:00       37.655       37.424       28.699       40.462       23.970       28.316     1637.144      574.546      801.823        0.333        0.151       53.089       27.268        0.264      339.220       12.404      859.602
11/18/2013  13:51:00       92.580       69.789       11.070       27.083       16.480       21.374      733.477      271.577      456.854        0.751        0.073      115.938       13.139        0.013      339.136       12.262      859.575
11/18/2013  13:52:00       66.587       46.081       22.464       22.968       20.182       25.018      527.533      407.311      625.909        0.431        0.078       80.977       14.797        0.033      339.183       12.342      859.547
11/18/2013  13:53:00       43.664       48.220       41.090       43.501       33.105       35.162     1892.372     1095.961     1236.373        0.507        0.211       65.052       33.897        0.272      339.238       12.434      859.524
11/18/2013  13:54:00       70.603       55.252       38.136       27.705       22.803       31.280      767.551      519.982      978.446        0.588        0.113       89.653       20.271        0.051      339.226       12.414      859.521
11/18/2013  13:55:00       19.158       31.635       41.372       25.785       25.571       19.859      664.876      653.857      394.362        0.240        0.086       36.984       18.875        0.260      339.279       12.504      859.530
11/18/2013  13:56:00       71.789       40.136       29.197       46.066       35.242       32.182     2122.061     1242.010     1035.659        0.601        0.220       82.247       15.335        0.035      339.261       12.472      859.523
11/18/2013  13:57:00       86.573       61.081       37.102       53.026       32.923       39.885     2811.781     1083.921     1590.774        0.904        0.274      105.951       33.613        0.101      339.198       12.368      859.515
11/18/2013  13:58:00       38.165       53.708       66.978       39.179       41.319       26.522     1534.971     1707.282      703.422        0.639        0.197       65.887       23.225        0.124      339.256       12.464      859.510
11/18/2013  13:59:00       20.894       57.360       61.163       29.769       26.649       23.644      886.175      710.178      559.040        0.481        0.108       61.047       13.819        0.051      339.252       12.458      859.500
11/18/2013  14:00:00       35.367       38.692       47.435       48.756       33.212       24.638     2377.179     1103.039      607.014        0.454        0.204       52.420       26.537        0.256      339.253       12.459      859.499
11/18/2013  14:01:00       23.485       -3.848       22.099       22.043       15.457       14.666      485.909      238.920      215.097        0.100        0.047       23.798        9.785        0.169      339.290       12.521      859.505
11/18/2013  14:02:00       -6.354        6.738        2.405       12.540       24.432       11.512      157.260      596.922      132.527        0.049        0.044        9.261        4.298        0.215      339.318       12.568      859.515
11/18/2013  14:03:00      -12.084       21.223        5.162       23.856       19.639       10.871      569.090      385.679      118.188        0.085        0.054       24.422        3.031        0.015      339.247       12.452      859.527
11/18/2013  14:04:00      -13.032      -12.422        9.348       13.609       14.031        7.996      185.217      196.865       63.935        0.043        0.022       18.004        6.463        0.129      339.296       12.534      859.528
11/18/2013  14:05:00       26.288       31.988        7.146       21.231       33.887       13.923      450.739     1148.331      193.837        0.178        0.090       41.404       18.585        0.201      339.285       12.514      859.515
11/18/2013  14:06:00       52.021       47.237       -0.041       23.069       27.466       15.490      532.177      754.387      239.928        0.323        0.076       70.268       12.872        0.034      339.213       12.395      859.511
11/18/2013  14:07:00       57.250       49.263       -2.047       37.388       23.472       24.027     1397.880      550.931      577.312        0.412        0.126       75.527       15.618        0.043      339.216       12.399      859.502
11/18/2013  14:08:00       97.218       49.747       10.381       44.486       27.540       24.857     1978.962      758.475      617.863        0.769        0.168      109.206       16.346        0.022      339.251       12.455      859.495
11/18/2013  14:09:00      100.540       46.750        5.163       27.202       23.592       17.416      739.933      556.571      303.332        0.696        0.080      110.878        5.182        0.002      339.258       12.465      859.509
11/18/2013  14:10:00       57.150       40.357        3.890       30.830       20.684       15.100      950.483      427.847      228.002        0.326        0.080       69.963        9.881        0.020      339.247       12.445      859.525
11/18/2013  14:11:00        8.186       34.305       -2.042       13.213       19.875       11.551      174.589      395.022      133.431        0.098        0.035       35.268       12.325        0.122      339.257       12.463      859.546
11/18/2013  14:12:00      -11.913       22.422       -5.519       10.231       15.819        6.396      104.674      250.246       40.905        0.054        0.020       25.390        4.392        0.030      339.256       12.464      859.566
11/18/2013  14:13:00      -33.111       -1.468       -7.945       10.167        9.810        8.934      103.372       96.236       79.821        0.072        0.014       33.143        3.262        0.010      339.253       12.457      859.587
11/18/2013  14:14:00      -27.659       -9.488       -2.463       11.454       13.019        9.350      131.193      169.486       87.425        0.062        0.019       29.241        6.549        0.050      339.236       12.430      859.596
11/18/2013  14:15:00      -15.642        9.061       -6.488        8.854        9.223       11.590       78.394       85.057      134.336        0.033        0.015       18.077        8.505        0.221      339.259       12.465      859.591
11/18/2013  14:16:00       29.387       44.571        5.384       30.617       12.068       13.548      937.382      145.626      183.537        0.207        0.063       53.387       10.226        0.037      339.286       12.514      859.570
11/18/2013  14:17:00      118.595       70.903        2.161       25.348       18.631       16.008      642.532      347.104      256.264        1.017        0.062      138.174       11.046        0.006      339.241       12.439      859.524
11/18/2013  14:18:00      182.874       89.579       10.334       35.386       25.545       31.259     1252.190      652.539      977.151        2.223        0.144      203.635       20.069        0.010      339.267       12.480      859.457
11/18/2013  14:19:00      202.197       88.001        6.763       34.723       43.944       33.746     1205.705     1931.071     1138.803        2.647        0.214      220.517       22.733        0.011      339.280       12.502      859.431
11/18/2013  14:20:00      144.939       86.690        5.907       60.131       37.207       33.906     3615.778     1384.372     1149.631        1.735        0.307      168.886       20.707        0.015      339.298       12.534      859.419
11/18/2013  14:21:00       61.449       35.642        5.019       65.032       39.359       30.274     4229.115     1549.110      916.498        0.588        0.335       71.038       16.330        0.053      339.312       12.558      859.437
11/18/2013  14:22:00       -0.869      134.545      -25.280       23.206       41.900       15.830      538.525     1755.591      250.575        1.064        0.127      134.548       19.738        0.022      339.327       12.584      859.482
11/18/2013  14:23:00       -8.523      109.772      -19.001       35.807       34.919       14.620     1282.164     1219.369      213.740        0.760        0.136      110.102       15.153        0.019      339.442       12.778      859.520
11/18/2013  14:24:00       53.902       83.846       -9.851       21.572       42.776       22.214      465.365     1829.758      493.455        0.641        0.139       99.677       22.211        0.050      339.313       12.558      859.522
11/18/2013  14:25:00       96.493       44.487        8.812       39.741       32.606       24.248     1579.319     1063.170      587.969        0.730        0.162      106.254       16.508        0.024      339.335       12.596      859.511
11/18/2013  14:26:00       45.955       59.976       32.906       43.484       26.951       38.742     1890.854      726.368     1500.945        0.545        0.206       75.558       27.272        0.130      339.366       12.650      859.488
11/18/2013  14:27:00       72.629       57.351       41.907       42.420       33.296       28.532     1799.484     1108.643      814.072        0.702        0.186       92.542       18.732        0.041      339.395       12.700      859.474
11/18/2013  14:28:00       97.766       79.038       12.776       27.557       31.558       29.652      759.383      995.900      879.216        0.930        0.132      125.719       15.293        0.015      339.373       12.662      859.480
11/18/2013  14:29:00      120.738       77.814       15.556       28.714       25.531       24.234      824.520      651.818      587.287        1.147        0.103      143.640       14.542        0.010      339.408       12.722      859.491
11/18/2013  14:30:00       47.023       58.797       30.068       50.818       27.685       32.345     2582.453      766.436     1046.185        0.548        0.220       75.288       35.079        0.217      339.439       12.774      859.505
11/18/2013  14:31:00       13.079       71.752       74.581       30.369       27.083       19.515      922.292      733.500      380.823        0.646        0.102       72.934       20.086        0.076      339.456       12.802      859.506
11/18/2013  14:32:00       57.097       62.695       40.052       24.327       15.814       19.489      591.799      250.070      379.827        0.501        0.061       84.799       13.646        0.026      339.477       12.835      859.506
11/18/2013  14:33:00       21.859       30.237       31.717       24.248       17.076       11.960      587.980      291.589      143.042        0.171        0.051       37.310        8.890        0.057      339.496       12.869      859.502
11/18/2013  14:34:00       28.939       30.541        0.828       13.188       20.905       15.969      173.921      437.031      255.001        0.132        0.043       42.074        9.997        0.056      339.475       12.832      859.488
11/18/2013  14:35:00       20.062       38.426       -6.878       16.492       28.163       13.380      271.984      793.174      179.017        0.159        0.062       43.348       15.940        0.135      339.457       12.802      859.475
11/18/2013  14:36:00       11.120       80.662      -16.456       13.846       12.526        7.744      191.702      156.906       59.975        0.365        0.020       81.424        4.664        0.003      339.522       12.911      859.461
11/18/2013  14:37:00       26.165       85.293      -13.618       12.574       14.324       13.454      158.115      205.179      181.019        0.434        0.027       89.216       11.860        0.018      339.488       12.854      859.428
11/18/2013  14:38:00       24.560       38.647      -11.737       20.571       24.147       12.664      423.173      583.096      160.386        0.170        0.058       45.790       14.016        0.094      339.502       12.877      859.394
11/18/2013  14:39:00       -7.542      -40.307       -9.533       22.494       26.160       10.347      505.978      684.331      107.051        0.153        0.065       41.007       15.118        0.136      339.552       12.963      859.397
11/18/2013  14:40:00      -40.057      -49.461        3.545       39.227       52.584       32.962     1538.787     2765.070     1086.516        0.473        0.270       63.647       31.942        0.252      339.579       13.009      859.433
11/18/2013  14:41:00      -75.856      -74.436        0.826       47.091       32.814       25.389     2217.574     1076.761      644.602        0.762        0.197      106.277       22.736        0.046      339.604       13.051      859.455
11/18/2013  14:42:00      -70.688      -70.282        1.859       62.461       49.237       30.617     3901.396     2424.280      937.396        0.860        0.363       99.681       32.344        0.105      339.642       13.114      859.462
11/18/2013  14:43:00     -213.489      -70.153       -1.377       87.651       48.795       27.390     7682.619     2380.984      750.209        3.066        0.541      224.720       28.500        0.016      339.700       13.210      859.478
11/18/2013  14:44:00     -226.062      -69.075       -5.230      101.224       80.588       54.125    10246.359     6494.376     2929.499        3.778        0.984      236.380       57.134        0.058      339.734       13.266      859.480
11/18/2013  14:45:00     -331.491     -130.672       -6.442      140.264       90.933       62.452    19673.958     8268.845     3900.236        7.942        1.592      356.317       72.888        0.042      339.758       13.308      859.472
11/18/2013  14:46:00     -337.310     -101.692      -22.487      165.023      108.824       67.704    27232.440    11842.593     4583.769        8.413        2.183      352.306       73.878        0.044      339.783       13.350      859.458
11/18/2013  14:47:00     -259.543     -115.463        4.832      149.808      124.511       64.209    22442.424    15502.952     4122.742        6.138        2.103      284.068       63.342        0.050      339.853       13.468      859.469
11/18/2013  14:48:00     -107.889      -92.406        1.289       69.548       66.738       32.779     4836.961     4453.897     1074.458        1.527        0.518      142.052       28.768        0.041      339.857       13.476      859.434
11/18/2013  14:49:00      -99.104      -87.049       13.869       94.227       60.681       43.549     8878.659     3682.240     1896.527        1.602        0.723      131.906       48.165        0.133      339.860       13.480      859.422
11/18/2013  14:50:00     -148.944      -68.898        4.224      103.031       76.154       39.894    10615.451     5799.495     1591.516        2.247        0.900      164.107       37.772        0.053      339.865       13.489      859.442
11/18/2013  14:51:00     -156.162      -77.445       -0.399      109.526       97.098       58.324    11995.903     9428.044     3401.738        2.760        1.241      174.311       50.541        0.084      339.835       13.438      859.447
11/18/2013  14:52:00     -202.146      -86.076        6.582      175.861      125.446       69.050    30927.200    15736.804     4767.959        4.986        2.572      219.709       76.914        0.123      339.825       13.421      859.462
11/18/2013  14:53:00     -251.133     -136.409       -4.977      169.542      136.645       86.775    28744.403    18671.825     7529.899        6.831        2.747      285.789       86.537        0.092      339.819       13.410      859.505
11/18/2013  14:54:00     -139.659      -66.281        5.710       92.265       77.272       52.656     8512.807     5970.886     2772.680        2.059        0.863      154.589       52.948        0.117      339.839       13.444      859.481
11/18/2013  14:55:00     -166.037      -90.402        3.970      116.219       63.780       45.275    13506.943     4067.832     2049.811        2.769        0.981      189.052       49.316        0.068      339.822       13.416      859.455
11/18/2013  14:56:00     -197.412      -76.977       -5.978      106.659       79.562       39.081    11376.083     6330.033     1527.340        3.208        0.962      211.889       29.802        0.020      339.816       13.406      859.401
11/18/2013  14:57:00     -333.938      -87.020      -17.897      106.291      103.342       66.510    11297.835    10679.489     4423.518        7.290        1.320      345.090       60.719        0.031      339.859       13.477      859.383
11/18/2013  14:58:00     -217.303      -86.866      -24.411       69.261       66.759       36.710     4797.106     4456.719     1347.611        3.298        0.530      234.022       24.260        0.011      339.851       13.466      859.387
11/18/2013  14:59:00      -34.133      -27.719       19.337       81.918       57.019       36.559     6710.609     3251.157     1336.581        0.680        0.565       43.971       33.400        0.577      339.834       13.437      859.416
11/18/2013  15:00:00     -130.600     -122.159       -3.981       83.872       70.217       40.385     7034.484     4930.490     1630.983        2.279        0.680      178.828       45.289        0.064      339.871       13.498      859.439
11/18/2013  15:01:00      -58.586     -106.405        5.888       66.598       61.171       47.194     4435.294     3741.850     2227.278        1.259        0.520      121.468       41.725        0.118      339.879       13.513      859.426
11/18/2013  15:02:00      -69.430      -84.208       -4.348       34.137       58.297       27.188     1165.343     3398.505      739.190        0.862        0.265      109.141       15.853        0.021      339.868       13.495      859.398
11/18/2013  15:03:00      -29.586      -13.823       -9.017       19.765       15.048       14.009      390.636      226.429      196.253        0.098        0.041       32.656        9.658        0.087      339.888       13.529      859.371
11/18/2013  15:04:00      -82.376       22.544       -6.927       27.861       32.099       25.116      776.250     1030.372      630.794        0.489        0.122       85.405       17.795        0.043      339.847       13.462      859.375
11/18/2013  15:05:00      -13.367        8.707       13.421       26.257       19.563       14.861      689.425      382.728      220.850        0.086        0.065       15.953       11.678        0.536      339.861       13.484      859.345
11/18/2013  15:06:00       23.128      -12.284       40.788       47.561       56.205       59.131     2262.080     3158.995     3496.484        0.563        0.446       26.188       45.114        2.968      339.907       13.562      859.292
11/18/2013  15:07:00       16.808       87.996      127.509       52.877       75.685       48.729     2795.981     5728.251     2374.551        1.759        0.545       89.587       41.014        0.210      339.910       13.566      859.234
11/18/2013  15:08:00       55.981       47.391      108.061       85.740       98.762       66.887     7351.392     9753.914     4473.866        1.931        1.079       73.347       58.044        0.626      339.906       13.560      859.184
11/18/2013  15:09:00      106.003       83.603      147.842      132.240       85.877       63.891    17487.399     7374.877     4082.062        3.451        1.447      135.004       64.199        0.226      339.908       13.562      859.140
11/18/2013  15:10:00       53.791       60.944      147.847       88.259      122.860       91.389     7789.739    15094.547     8351.954        2.985        1.562       81.287       75.284        0.858      339.886       13.524      859.108
11/18/2013  15:11:00      173.506     -165.380      -18.966      123.838      178.059      106.155    15335.792    31704.870    11268.836        5.805        2.915      239.698      110.974        0.214      339.891       13.531      859.135
11/18/2013  15:12:00      123.621     -178.608      -15.739       79.219      120.103       75.176     6275.579    14424.814     5651.444        3.689        1.318      217.216       81.796        0.142      339.953       13.637      859.169
11/18/2013  15:13:00      105.956     -186.737      -41.601       80.372       88.451       61.766     6459.602     7823.513     3815.098        3.296        0.905      214.703       53.235        0.061      340.004       13.723      859.178
11/18/2013  15:14:00       19.329      -21.998       30.378       57.782       53.667       40.319     3338.712     2880.134     1625.641        0.481        0.392       29.284       35.759        1.491      340.011       13.737      859.166
11/18/2013  15:15:00       -0.302      127.253      156.900       49.323       84.495       59.527     2432.765     7139.333     3543.417        2.696        0.656      127.253       57.432        0.204      339.954       13.640      859.141
11/18/2013  15:16:00       81.399      -65.979       40.159       89.178      146.308       98.821     7952.736    21405.888     9765.563        2.585        1.956      104.781      107.728        1.057      339.946       13.628      859.153
11/18/2013  15:17:00      101.201     -157.164       13.645      121.832      128.709       92.404    14843.028    16566.009     8538.553        3.753        1.997      186.928       82.897        0.197      340.014       13.741      859.171
11/18/2013  15:18:00        3.720     -236.435      -11.437      129.238      121.558      101.204    16702.378    14776.443    10242.168        4.888        2.086      236.464       68.807        0.085      340.064       13.824      859.212
11/18/2013  15:19:00       47.468     -170.408       -1.341      133.845       93.406       63.097    17914.564     8724.740     3981.265        3.095        1.531      176.895       41.708        0.056      340.133       13.941      859.313
11/18/2013  15:20:00      -31.648     -130.065      -13.624       94.528       84.550       54.548     8935.488     7148.729     2975.535        1.858        0.953      133.860       34.077        0.065      340.083       13.857      859.311
11/18/2013  15:21:00       51.312      -75.873        7.576       84.903      122.829       60.178     7208.439    15086.909     3621.374        1.718        1.296       91.595       63.081        0.474      340.159       13.987      859.276
11/18/2013  15:22:00      118.475     -246.399      -26.976       97.032      104.481       66.949     9415.196    10916.321     4482.193        5.014        1.241      273.403       46.356        0.029      340.108       13.898      859.264
11/18/2013  15:23:00      106.864      -53.354       31.458       79.879      118.292       73.367     6380.696    13992.951     5382.782        2.050        1.288      119.443       85.158        0.508      340.107       13.897      859.242
11/18/2013  15:24:00       48.924      -46.376       71.116       84.479      151.970       86.036     7136.785    23094.833     7402.199        2.361        1.882       67.411       95.813        2.020      340.036       13.779      859.218
11/18/2013  15:25:00      -14.793      -86.180        3.454       87.890       77.069       31.770     7724.671     5939.705     1009.332        1.116        0.734       87.440       21.207        0.059      340.082       13.856      859.274
11/18/2013  15:26:00     -166.763      -82.642       24.802      138.696      118.658       71.763    19236.603    14079.684     5149.913        3.685        1.923      186.117       65.510        0.124      339.919       13.579      859.289
11/18/2013  15:27:00     -248.996     -216.405       -2.575      190.565      115.349       65.406    36315.147    13305.365     4277.908        8.136        2.695      329.894       79.445        0.058      340.082       13.853      859.339
11/18/2013  15:28:00     -153.351     -206.182      -18.217      109.256      157.727       48.635    11936.910    24877.905     2365.335        5.276        1.959      256.958       38.262        0.022      340.111       13.902      859.373
11/18/2013  15:29:00      -39.461        0.341        4.344       97.928       81.293       28.277     9589.844     6608.582      799.584        0.928        0.850       39.462       17.871        0.205      340.068       13.834      859.314
11/18/2013  15:30:00        1.384      -59.302        5.902       32.124       29.090       26.250     1031.926      846.248      689.051        0.306        0.128       59.318       17.623        0.088      340.085       13.863      859.326
11/18/2013  15:31:00      -33.396      -88.745       -8.574       46.075       41.931       26.232     2122.888     1758.237      688.113        0.682        0.228       94.821       15.051        0.025      340.108       13.901      859.352
11/18/2013  15:32:00      -45.258      -61.408       16.031      111.451       65.672       43.558    12421.261     4312.752     1897.265        1.235        0.932       76.283       50.254        0.434      340.068       13.833      859.356
11/18/2013  15:33:00     -274.558     -101.383      -18.577      105.264       82.037       61.535    11080.424     6730.123     3786.608        5.380        1.080      292.679       52.611        0.032      339.758       13.308      859.395
11/18/2013  15:34:00     -208.327     -105.302      -12.254       67.644       54.809       37.042     4575.767     3004.038     1372.084        3.179        0.448      233.428       31.086        0.018      339.686       13.186      859.415
11/18/2013  15:35:00      -51.142      -32.368      -14.480       34.137       71.649       13.618     1165.343     5133.548      185.454        0.518        0.324       60.524       16.829        0.077      339.660       13.146      859.417
11/18/2013  15:36:00      -66.931       37.879       -7.290       44.099       37.718       25.163     1944.755     1422.647      633.152        0.498        0.200       76.907       27.277        0.126      339.706       13.224      859.393
11/18/2013  15:37:00      -34.741       11.193        5.106       34.632       25.885       19.901     1199.390      670.009      396.057        0.181        0.113       36.500       10.357        0.081      339.786       13.357      859.366
11/18/2013  15:38:00       -6.257      -75.441        8.530       54.084      141.594       46.313     2925.028    20048.872     2144.875        1.546        1.256       75.700       42.283        0.312      339.802       13.383      859.326
11/18/2013  15:39:00      -45.533        4.148       43.713       49.642       76.050       36.810     2464.353     5783.546     1354.999        0.680        0.480       45.722       30.769        0.453      339.734       13.271      859.336
11/18/2013  15:40:00       87.048     -105.858       10.311       82.961       90.513       73.193     6882.508     8192.645     5357.270        1.966        1.022      137.052       72.792        0.282      339.912       13.568      859.315
11/18/2013  15:41:00       38.839      -29.754       47.312       65.356       84.347       63.028     4271.352     7114.364     3972.532        0.999        0.768       48.926       67.337        1.894      339.909       13.565      859.321
11/18/2013  15:42:00       93.238     -137.914      -33.974       71.337      114.574       56.708     5088.935    13127.255     3215.801        2.515        1.072      166.474       66.508        0.160      339.951       13.634      859.347
11/18/2013  15:43:00       67.929      -89.652      -12.311       41.679       63.054       34.042     1737.116     3975.783     1158.843        0.984        0.344      112.481       35.634        0.100      339.694       13.201      859.365
11/18/2013  15:44:00      -82.891      -71.984       18.177      120.614       83.776       48.271    14547.780     7018.488     2330.088        1.813        1.195      109.784       48.680        0.197      339.681       13.179      859.387
11/18/2013  15:45:00      -97.263     -131.466        6.457       83.372      116.402       51.370     6950.942    13549.480     2638.880        2.496        1.157      163.533       59.060        0.130      339.478       12.837      859.424
11/18/2013  15:46:00     -157.745     -204.009        7.572       88.502      116.545       51.796     7832.692    13582.851     2682.842        4.532        1.205      257.882       50.006        0.038      339.247       12.447      859.438
11/18/2013  15:47:00     -120.294     -248.154        1.818       78.319      106.870       44.845     6133.904    11421.288     2011.112        4.781        0.978      275.774       41.218        0.022      339.328       12.583      859.474
11/18/2013  15:48:00      -62.177      -66.319        0.337      105.165       72.711       45.058    11059.699     5286.849     2030.217        1.332        0.919       90.908       33.417        0.135      339.467       12.819      859.450
11/18/2013  15:49:00       26.734     -119.186      -11.969       56.077       72.812       51.182     3144.576     5301.518     2619.577        1.306        0.553      122.148       34.262        0.079      339.502       12.878      859.425
11/18/2013  15:50:00       36.010       24.543       94.649       81.839      114.941       95.967     6697.615    13211.428     9209.608        1.998        1.456       43.579       96.828        4.937      339.417       12.734      859.355
11/18/2013  15:51:00       94.870     -165.956      -20.617       94.498       85.989       69.841     8929.939     7394.114     4877.697        2.908        1.060      191.159       53.657        0.079      339.693       13.198      859.323
11/18/2013  15:52:00       34.953     -134.722      -13.375       59.165       55.052       40.166     3500.451     3030.682     1613.275        1.385        0.407      139.182       24.962        0.032      339.729       13.263      859.333
11/18/2013  15:53:00        2.251      -25.672       77.821       66.905       94.225       54.174     4476.285     8878.408     2934.835        1.150        0.814       25.770       47.607        3.413      339.491       12.860      859.372
11/18/2013  15:54:00     -148.622      -68.673        1.996       79.005       85.809       41.437     6241.748     7363.123     1717.050        2.106        0.766      163.721       40.267        0.060      339.372       12.657      859.388
11/18/2013  15:55:00      -57.079      -47.696       11.331       83.242       48.395       33.746     6929.264     2342.067     1138.814        0.803        0.521       74.384       33.931        0.208      339.318       12.568      859.376
11/18/2013  15:56:00      -99.058      -58.249       -5.410       82.531       43.275       27.704     6811.346     1872.704      767.503        1.134        0.473      114.915       31.942        0.077      339.268       12.484      859.342
11/18/2013  15:57:00     -103.534      -99.252        6.889       82.401       63.616       37.095     6789.921     4047.026     1376.021        1.641        0.611      143.423       35.089        0.060      339.284       12.509      859.331
11/18/2013  15:58:00     -113.305      -94.807        3.994       73.560       69.393       32.120     5411.137     4815.404     1031.702        1.655        0.563      147.738       32.555        0.049      339.241       12.437      859.351
11/18/2013  15:59:00     -114.464     -107.297       -5.652       54.387       45.710       31.026     2957.926     2089.407      962.640        1.533        0.300      156.891       10.485        0.004      339.198       12.368      859.362
11/18/2013  16:00:00      -38.467      -23.224        7.444       41.742       37.192       21.028     1742.400     1383.221      442.182        0.282        0.178       44.934       19.357        0.186      339.250       12.453      859.358
11/18/2013  16:01:00        2.374      -29.916        0.308       45.081       29.450       14.649     2032.316      867.315      214.594        0.201        0.156       30.010        6.497        0.047      339.237       12.434      859.347
11/18/2013  16:02:00       58.766       33.454       48.648       65.288       41.411       56.180     4262.580     1714.844     3156.175        0.803        0.457       67.621       53.028        0.615      339.289       12.520      859.320
11/18/2013  16:03:00       -9.974      -49.423       45.419       39.107       61.178       39.381     1529.389     3742.699     1550.865        0.571        0.341       50.419       39.868        0.625      339.257       12.465      859.308
11/18/2013  16:04:00       98.740      -67.367       11.566       48.725       45.479       31.305     2374.145     2068.378      979.999        0.992        0.271      119.531       33.234        0.077      339.289       12.520      859.303
11/18/2013  16:05:00       39.829      -69.696       -4.506       31.995       41.372       26.378     1023.654     1711.632      695.812        0.495        0.172       80.274       26.731        0.111      339.345       12.613      859.311
11/18/2013  16:06:00       69.119     -109.441      -17.998       68.357       48.616       27.938     4672.659     2363.485      780.537        1.245        0.391      129.440       32.144        0.062      339.460       12.809      859.303
11/18/2013  16:07:00       70.929     -129.587      -26.642       46.723       61.190       35.960     2183.025     3744.180     1293.128        1.488        0.361      147.728       29.291        0.039      339.525       12.917      859.303
11/18/2013  16:08:00       65.165      -13.600       31.306       46.170       84.751       43.155     2131.687     7182.807     1862.322        0.829        0.559       66.570       54.209        0.663      339.380       12.673      859.285
11/18/2013  16:09:00       -9.661       41.158       76.059       32.187       49.067       31.674     1035.977     2407.596     1003.254        0.601        0.222       42.277       32.598        0.595      339.327       12.584      859.271
11/18/2013  16:10:00       -2.969       20.892       39.811       20.303       38.843       19.695      412.193     1508.813      387.893        0.217        0.115       21.102       18.970        0.808      339.313       12.561      859.275
11/18/2013  16:11:00       -5.877       43.040       37.752       15.477       28.786       19.040      239.539      828.621      362.523        0.237        0.072       43.439        7.477        0.030      339.289       12.521      859.265
11/18/2013  16:12:00       28.523       35.320       42.567       35.088       27.471       24.439     1231.199      754.651      597.281        0.323        0.129       45.399       16.298        0.129      339.399       12.705      859.247
11/18/2013  16:13:00       56.065     -111.255       12.044       84.241       90.651       47.641     7096.539     8217.685     2269.676        1.662        0.879      124.583       46.537        0.140      339.703       13.217      859.241
11/18/2013  16:14:00       40.358      -68.015       27.260       54.519       61.710       37.262     2972.285     3808.095     1388.425        0.758        0.408       79.088       27.626        0.122      339.581       13.012      859.229
11/18/2013  16:15:00       -1.123      -28.637       13.683       33.924       44.065       32.860     1150.861     1941.709     1079.792        0.259        0.209       28.659       13.197        0.212      339.588       13.025      859.185
11/18/2013  16:16:00      -56.121        8.334        3.128       39.694       37.309       23.107     1575.603     1391.968      533.913        0.336        0.175       56.736       17.033        0.090      339.546       12.953      859.168
11/18/2013  16:17:00     -117.535      -37.853       -4.700       54.310       31.991       18.360     2949.597     1023.453      337.094        0.979        0.216      123.481       19.460        0.025      339.500       12.876      859.163
11/18/2013  16:18:00      -97.840      -28.249        3.465       58.849       42.517       24.225     3463.201     1807.656      586.856        0.812        0.293      101.837       28.570        0.079      339.291       12.523      859.168
11/18/2013  16:19:00     -136.169      -35.043       -8.395       44.740       22.719       17.996     2001.707      516.139      323.868        1.134        0.142      140.605       18.785        0.018      339.229       12.419      859.183
11/18/2013  16:20:00     -208.514      -99.588       -7.887       69.198       66.887       38.031     4788.424     4473.898     1446.333        3.208        0.535      231.076       32.799        0.020      339.172       12.319      859.205
11/18/2013  16:21:00     -179.911       60.377      -24.976       58.419       52.748       22.927     3412.811     2782.353      525.630        2.168        0.336      189.772       14.872        0.006      339.500       12.874      859.197
11/18/2013  16:22:00     -144.323      -55.419        1.525       58.761       58.940       30.894     3452.811     3473.899      954.419        1.589        0.394      154.597       29.937        0.037      339.293       12.526      859.216
11/18/2013  16:23:00      -53.170      -37.047        1.715       43.477       27.768       21.208     1890.233      771.046      449.780        0.366        0.156       64.804       21.784        0.113      339.258       12.468      859.187
11/18/2013  16:24:00       -4.353      -35.271        9.895       41.940       22.217       20.195     1758.990      493.602      407.842        0.201        0.133       35.538       25.026        0.496      339.205       12.379      859.173
11/18/2013  16:25:00      -19.904      -16.628       -4.245       26.277       36.711       31.105      690.497     1347.702      967.517        0.185        0.150       25.936       25.037        0.932      339.261       12.472      859.155
11/18/2013  16:26:00      -60.274      -92.634       10.024       73.140       82.863       41.082     5349.497     6866.311     1687.727        1.311        0.695      110.517       45.735        0.171      339.476       12.835      859.137
11/18/2013  16:27:00      -52.390      -71.067        8.642       43.860       56.420       34.785     1923.680     3183.202     1210.028        0.709        0.316       88.291       30.781        0.122      339.461       12.809      859.138
11/18/2013  16:28:00     -186.906     -290.919      -21.993      114.315      187.096       51.956    13067.892    35004.925     2699.397        8.540        2.539      345.786       31.361        0.008      339.471       12.824      859.170
11/18/2013  16:29:00     -128.976     -160.630        4.066      107.097      108.827       54.676    11469.673    11843.405     2989.442        3.437        1.315      206.002       54.453        0.070      339.481       12.841      859.156
11/18/2013  16:30:00      -72.825     -124.929       26.159      104.215      104.461       44.120    10860.810    10912.154     1946.587        2.265        1.186      144.606       46.860        0.105      339.571       12.995      859.131
11/18/2013  16:31:00     -310.427      -99.235       -2.750      200.722      119.045       67.199    40289.512    14171.663     4515.649        8.259        2.949      325.903       75.404        0.054      339.635       13.101      859.138
11/18/2013  16:32:00     -212.049     -153.837       -7.445      130.827      157.788       68.541    17115.726    24897.057     4697.841        5.769        2.336      261.974       67.493        0.066      339.679       13.176      859.152
11/18/2013  16:33:00     -347.556     -145.380       -9.394      150.654      106.958       71.010    22696.706    11440.025     5042.451        9.059        1.959      376.736       78.010        0.043      339.647       13.121      859.129
11/18/2013  16:34:00     -163.391     -194.778       -2.369      166.908      123.736       62.638    27858.312    15310.490     3923.508        5.586        2.355      254.235       64.754        0.065      339.664       13.148      859.165
11/18/2013  16:35:00     -259.363     -226.100       -1.105      109.243      140.792       64.193    11934.081    19822.315     4120.692        7.713        1.794      344.079       59.802        0.030      339.651       13.126      859.159
11/18/2013  16:36:00     -239.059     -225.038       -3.562      148.436      136.250       74.984    22033.140    18564.095     5622.575        7.700        2.311      328.316       79.834        0.059      339.667       13.153      859.164
11/18/2013  16:37:00     -161.636     -131.004      -18.382       87.626       77.008       39.474     7678.236     5930.264     1558.203        2.939        0.758      208.058       36.199        0.030      339.655       13.133      859.164
11/18/2013  16:38:00     -275.203     -110.098       -5.824      176.694      128.116       82.690    31220.864    16413.646     6837.712        7.117        2.724      296.409       85.468        0.083      339.648       13.124      859.190
11/18/2013  16:39:00     -335.928      -36.728      -22.630      125.036      135.948       57.346    15634.034    18481.729     3288.543        7.605        1.870      337.929       48.202        0.020      339.618       13.071      859.190
11/18/2013  16:40:00     -298.385      -53.367       -4.408      161.887      123.371       69.109    26207.326    15220.456     4776.022        6.904        2.310      303.120       76.262        0.063      339.601       13.043      859.152
11/18/2013  16:41:00     -310.774      -48.566       -9.223      226.082      115.350       68.389    51112.847    13305.567     4677.090        8.405        3.455      314.546      101.291        0.104      339.550       12.958      859.139
11/18/2013  16:42:00     -300.877      -65.150       -2.871      185.079      131.606       72.140    34254.100    17320.111     5204.148        7.577        2.839      307.850       81.600        0.070      339.539       12.937      859.157
11/18/2013  16:43:00     -354.536     -138.040       -7.473      153.669      132.116       73.748    23614.127    17454.670     5438.721        9.565        2.325      380.461       67.746        0.032      339.540       12.940      859.174
11/18/2013  16:44:00     -383.653     -124.537      -25.093      130.447       87.367       55.181    17016.464     7633.073     3044.964        9.551        1.385      403.359       48.865        0.015      339.539       12.938      859.210
11/18/2013  16:45:00     -376.722     -156.332      -24.666      204.106      148.789       91.339    41659.122    22138.025     8342.760       11.954        3.607      407.871      104.126        0.065      339.536       12.933      859.221
11/18/2013  16:46:00     -348.691     -173.788      -16.191      162.082      165.542       77.200    26270.572    27404.235     5959.778       10.583        2.982      389.599       78.680        0.041      339.523       12.911      859.226
11/18/2013  16:47:00     -352.871     -101.557      -20.446      212.225      152.479       85.712    45039.368    23249.921     7346.589       10.543        3.782      367.194       94.426        0.066      339.495       12.864      859.216
11/18/2013  16:48:00     -334.449      -89.134        0.926      172.881      129.390       80.430    29887.820    16741.744     6468.945        8.644        2.655      346.122       83.691        0.058      339.461       12.807      859.220
11/18/2013  16:49:00     -598.112     -157.654      -30.733      218.689      157.458      103.696    47824.723    24793.160    10752.773       23.344        4.169      618.541       95.100        0.024      339.467       12.816      859.220
11/18/2013  16:50:00     -312.941     -117.547        0.065      183.928      152.026       84.315    33829.478    23112.034     7108.998        8.789        3.203      334.290       79.839        0.057      339.441       12.775      859.254
11/18/2013  16:51:00     -269.047      -95.266       -3.382      141.537      121.047       65.275    20032.817    14652.364     4260.770        6.020        1.947      285.415       61.916        0.047      339.450       12.790      859.296
11/18/2013  16:52:00     -261.333       -7.829       -3.472      145.126       98.560       54.060    21061.454     9714.130     2922.507        5.103        1.685      261.450       62.953        0.058      339.431       12.756      859.301
11/18/2013  16:53:00     -129.945     -109.273       19.598      106.647       75.416       53.396    11373.521     5687.597     2851.134        2.456        0.996      169.784       50.191        0.087      339.427       12.750      859.311
11/18/2013  16:54:00     -307.529     -138.556      -18.093      171.092      131.395       67.650    29272.313    17264.518     4576.548        8.260        2.556      337.301       56.702        0.028      339.425       12.747      859.334
11/18/2013  16:55:00     -446.116     -131.609      -31.278      201.235      173.235       85.942    40495.625    30010.293     7385.965       14.759        3.895      465.124       83.176        0.032      339.439       12.770      859.350
11/18/2013  16:56:00     -311.179     -277.000      -18.356      209.863      132.729       75.603    44042.527    17617.082     5715.867       12.062        3.369      416.607       83.640        0.040      339.448       12.785      859.327
11/18/2013  16:57:00     -316.595     -121.032        5.751      177.780      110.058       61.677    31605.730    12112.742     3804.066        8.121        2.376      338.941       67.411        0.040      339.419       12.737      859.274
11/18/2013  16:58:00     -389.345     -101.886       -9.762      151.813      131.122       68.253    23047.223    17192.963     4658.448       10.347        2.245      402.456       74.227        0.034      339.418       12.734      859.243
11/18/2013  16:59:00     -382.725     -171.329      -21.771      188.911      165.539       95.577    35687.333    27403.254     9135.008       12.425        3.611      419.324      109.062        0.068      339.447       12.784      859.249
11/18/2013  17:00:00     -250.704     -229.909      -19.723      188.776      144.188       89.366    35636.355    20790.311     7986.265        9.024        3.221      340.163      107.733        0.100      339.497       12.866      859.209
11/18/2013  17:01:00     -106.473      -32.265       32.610      141.850       95.295       67.252    20121.346     9081.072     4522.829        2.358        1.686      111.255       83.770        0.567      339.433       12.761      859.178
11/18/2013  17:02:00     -325.105     -210.142      -42.996      167.603      137.185       90.190    28090.820    18819.640     8134.188       10.336        2.752      387.108       76.060        0.039      339.445       12.780      859.141
11/18/2013  17:03:00     -360.459     -109.693      -19.417      139.335      103.157       47.397    19414.192    10641.330     2246.489        8.731        1.615      376.780       55.159        0.021      339.414       12.728      859.124
11/18/2013  17:04:00     -230.117      -72.677       -1.863      106.846       95.108       49.182    11416.113     9045.459     2418.877        4.056        1.144      241.321       45.410        0.035      339.387       12.683      859.155
11/18/2013  17:05:00     -169.208     -110.759        7.871      139.396       92.105       56.162    19431.302     8483.336     3154.181        3.601        1.553      202.235       58.777        0.084      339.392       12.693      859.155
11/18/2013  17:06:00     -283.829     -115.775      -13.137      170.595      109.653       83.704    29102.621    12023.831     7006.303        7.112        2.407      306.534       90.249        0.087      339.381       12.673      859.143
11/18/2013  17:07:00     -297.392     -112.135        7.162      195.552      147.954       90.624    38240.471    21890.429     8212.747        8.469        3.417      317.830      106.755        0.113      339.381       12.672      859.111
11/18/2013  17:08:00     -289.041     -234.229        1.756      210.850      159.517      110.564    44457.585    25445.769    12224.465       11.025        4.106      372.032      126.125        0.115      339.383       12.676      859.088
11/18/2013  17:09:00     -193.153      -91.256        5.924      157.853      172.517       73.242    24917.473    29762.205     5364.356        5.285        3.002      213.625       77.424        0.131      339.377       12.666      859.099
11/18/2013  17:10:00     -205.688      -30.311       -0.856       99.726       99.967       53.436     9945.310     9993.355     2855.429        3.301        1.140      207.910       49.126        0.056      339.343       12.608      859.130
11/18/2013  17:11:00     -282.834     -120.328       -3.550      173.328      114.691       72.192    30042.427    13154.000     5211.658        7.144        2.420      307.366       65.839        0.046      339.372       12.657      859.156
11/18/2013  17:12:00     -304.173     -175.166      -13.713      181.276      134.890       66.016    32861.145    18195.375     4358.139        8.939        2.771      351.005       73.196        0.043      339.423       12.744      859.155
11/18/2013  17:13:00     -109.809      -37.038       17.863      101.094       95.238       52.739    10219.960     9070.349     2781.421        1.791        1.104      115.887       46.965        0.164      339.367       12.651      859.178
11/18/2013  17:14:00     -381.998     -176.924        2.232      219.196      157.528       87.757    48046.982    24815.181     7701.241       12.888        4.028      420.981       90.962        0.047      339.377       12.664      859.149
11/18/2013  17:15:00     -409.112      -74.933      -12.518      190.914      143.960       62.438    36448.114    20724.568     3898.479       11.710        3.054      415.918       66.802        0.026      339.341       12.605      859.149
11/18/2013  17:16:00     -439.013     -178.304      -33.829      187.241      147.946       75.863    35059.234    21888.055     5755.197       14.417        3.135      473.841       82.082        0.030      339.356       12.629      859.139
11/18/2013  17:17:00     -275.804      -33.148      -11.979      155.199       99.494       60.864    24086.782     9898.995     3704.434        5.749        1.885      277.788       68.520        0.061      339.341       12.603      859.111
11/18/2013  17:18:00      -75.337      -21.207       25.918      103.908       95.510       54.281    10796.924     9122.181     2946.383        1.483        1.143       78.265       47.004        0.361      339.326       12.580      859.096
11/18/2013  17:19:00     -234.736     -117.240       -6.572      149.850      156.901       71.995    22455.098    24617.813     5183.285        6.056        2.613      262.386       77.789        0.088      339.344       12.609      859.116
11/18/2013  17:20:00     -381.796     -142.726      -26.969      173.370      113.461       69.929    30057.235    12873.469     4890.020       10.733        2.391      407.602       79.574        0.038      339.394       12.696      859.118
11/18/2013  17:21:00     -290.870      -33.420       -8.715      135.380       87.658       56.861    18327.842     7683.907     3233.207        5.752        1.462      292.784       64.262        0.048      339.356       12.629      859.097
11/18/2013  17:22:00     -126.914      -21.866        8.210      105.992       87.892       54.023    11234.383     7725.005     2918.527        1.926        1.094      128.784       51.517        0.160      339.331       12.589      859.098
11/18/2013  17:23:00     -196.905     -188.664      -17.138       79.672       84.705       51.371     6347.621     7174.904     2638.976        4.541        0.808      272.700       45.236        0.028      339.387       12.681      859.087
11/18/2013  17:24:00     -240.708      -26.433       -5.658      103.282       72.745       53.811    10667.105     5291.851     2895.658        3.876        0.943      242.155       57.017        0.055      339.334       12.591      859.070
11/18/2013  17:25:00     -150.287      -71.974       10.622      104.865       71.367       46.462    10996.648     5093.181     2158.731        2.306        0.912      166.633       49.710        0.089      339.314       12.560      859.064
11/18/2013  17:26:00      -31.955       -2.725       23.726       68.708       54.370       35.163     4720.843     2956.109     1236.414        0.525        0.446       32.071       41.922        1.709      339.285       12.513      859.060
11/18/2013  17:27:00     -148.370      -41.806       -2.278       99.423       65.864       45.099     9884.954     4338.031     2033.912        2.001        0.813      154.147       44.418        0.083      339.264       12.477      859.084
11/18/2013  17:28:00     -160.756      -61.806        1.430      113.649      104.938       58.613    12916.191    11012.010     3435.432        2.851        1.368      172.228       56.903        0.109      339.278       12.500      859.110
11/18/2013  17:29:00     -179.788     -145.115       -0.871      115.857      107.462       56.605    13422.892    11548.171     3204.168        4.077        1.409      231.046       62.889        0.074      339.319       12.567      859.144
11/18/2013  17:30:00     -145.813      -97.714        3.756      118.873      118.841       64.408    14130.866    14123.066     4148.338        3.161        1.620      175.526       70.162        0.160      339.285       12.509      859.188
11/18/2013  17:31:00     -285.451     -118.817      -13.439      153.944      107.479       67.264    23698.742    11551.691     4524.402        6.777        1.989      309.192       76.640        0.061      339.267       12.480      859.240
11/18/2013  17:32:00     -179.283      -60.158       -9.972      115.029       99.387       50.861    13231.649     9877.740     2586.802        3.077        1.285      189.106       52.510        0.077      339.250       12.453      859.262
11/18/2013  17:33:00     -196.215      -44.903        2.638      104.464       82.920       48.661    10912.625     6875.682     2367.897        3.034        1.008      201.287       42.582        0.045      339.229       12.418      859.283
11/18/2013  17:34:00     -167.682       -1.700        0.094       63.308       54.108       29.854     4007.893     2927.666      891.238        1.797        0.391      167.691       27.640        0.027      339.238       12.433      859.298
11/18/2013  17:35:00      -95.390        4.212        0.915       68.751       68.047       42.994     4726.636     4630.449     1848.508        1.016        0.560       95.483       44.283        0.215      339.195       12.362      859.318
11/18/2013  17:36:00     -137.653      -53.684      -19.329       82.926       56.622       36.522     6876.782     3206.075     1333.892        1.681        0.571      147.751       37.864        0.066      339.237       12.431      859.320
11/18/2013  17:37:00     -182.796      -82.934       -7.309      107.360       77.394       41.115    11526.237     5989.775     1690.416        2.977        0.960      200.730       42.786        0.045      339.247       12.448      859.318
11/18/2013  17:38:00     -181.712      -25.998        6.630       81.108       87.850       48.033     6578.535     7717.584     2307.129        2.517        0.830      183.562       38.715        0.044      339.230       12.418      859.327
11/18/2013  17:39:00     -231.114      -81.488       -1.600      160.231       95.878       51.595    25673.858     9192.535     2662.022        4.878        1.876      245.059       69.238        0.080      339.224       12.409      859.307
11/18/2013  17:40:00     -366.754     -192.679        2.081      192.939      182.856       90.689    37225.404    33436.279     8224.426       12.525        3.944      414.287       99.332        0.057      339.247       12.446      859.293
11/18/2013  17:41:00     -302.534     -154.215      -19.740      169.968      158.802       74.490    28889.228    25218.082     5548.728        8.767        2.983      339.572       96.663        0.081      339.256       12.461      859.325
11/18/2013  17:42:00     -324.404     -160.227      -25.896      121.994       93.546       60.110    14882.419     8750.793     3613.191        7.941        1.362      361.816       52.185        0.021      339.250       12.451      859.342
11/18/2013  17:43:00     -244.856     -167.563       -1.966      125.054      121.162       58.095    15638.458    14680.350     3374.994        6.086        1.685      296.702       59.319        0.040      339.260       12.469      859.341
11/18/2013  17:44:00     -178.710      -48.754       -4.751       87.908       88.371       51.558     7727.832     7809.386     2658.192        2.626        0.910      185.241       47.350        0.065      339.266       12.477      859.327
11/18/2013  17:45:00     -165.550      -97.325       -1.046       59.599       67.571       40.256     3552.064     4565.872     1620.542        2.331        0.487      192.039       34.824        0.033      339.245       12.443      859.324
11/18/2013  17:46:00     -247.113      -55.626       -5.830       97.968      105.039       54.756     9597.722    11033.111     2998.175        4.391        1.181      253.296       58.325        0.053      339.272       12.488      859.318
11/18/2013  17:47:00     -219.097      -93.226      -29.006       57.945       71.862       35.371     3357.584     5164.145     1251.139        3.365        0.489      238.106       21.185        0.008      339.248       12.445      859.293
11/18/2013  17:48:00     -368.886       14.758      -16.645      184.165      120.803       58.360    33916.608    14593.259     3405.865        9.423        2.596      369.181       70.216        0.036      339.216       12.394      859.267
11/18/2013  17:49:00     -371.540      -28.610      -40.761      119.686       97.314       52.624    14324.798     9469.965     2769.287        8.354        1.328      372.640       48.347        0.017      339.203       12.373      859.244
11/18/2013  17:50:00     -294.470      -21.398      -14.416      170.730      175.045       75.365    29148.806    30640.615     5679.947        7.641        3.273      295.246       77.975        0.070      339.180       12.334      859.245
11/18/2013  17:51:00     -192.704      -41.683       -9.588      146.238       91.363       54.883    21385.683     8347.211     3012.178        3.585        1.637      197.161       59.777        0.092      339.178       12.331      859.268
11/18/2013  17:52:00     -279.788      -35.419      -26.764      151.633       91.740       51.968    22992.542     8416.208     2700.722        5.717        1.705      282.021       59.701        0.045      339.194       12.359      859.252
11/18/2013  17:53:00     -287.036     -118.301      -26.096      120.411      126.059       53.854    14498.814    15890.817     2900.252        6.517        1.664      310.459       60.749        0.038      339.187       12.345      859.249
11/18/2013  17:54:00     -311.288      -53.292      -19.039      178.966      149.930       68.168    32028.926    22478.908     4646.862        7.962        2.958      315.817       82.445        0.068      339.183       12.338      859.238
11/18/2013  17:55:00     -235.251      -32.367        5.403      148.790      112.133       73.695    22138.547    12573.898     5430.976        4.827        2.007      237.467       85.215        0.129      339.156       12.293      859.221
11/18/2013  17:56:00     -350.802       45.663      -24.404      186.423      149.613       79.266    34753.633    22384.079     6283.164        9.457        3.171      353.762       88.626        0.063      339.161       12.302      859.219
11/18/2013  17:57:00     -251.743      -76.876       -5.749      144.457      142.480       65.122    20867.855    20300.409     4240.857        5.735        2.270      263.220       74.761        0.081      339.152       12.287      859.216
11/18/2013  17:58:00     -108.260      -21.922       18.012       96.668       96.897       59.175     9344.638     9389.084     3501.683        1.738        1.112      110.458       58.800        0.283      339.123       12.239      859.194
11/18/2013  17:59:00     -286.406     -107.470      -13.929      176.376      123.061       51.294    31108.570    15143.898     2631.045        7.132        2.444      305.905       45.397        0.022      339.120       12.235      859.190
11/18/2013  18:00:00     -411.612     -149.054      -23.541      128.945       99.192       53.181    16626.925     9839.008     2828.248       11.074        1.465      437.769       39.974        0.008      339.144       12.273      859.175
11/18/2013  18:01:00     -360.352     -106.589      -16.022      160.541      130.561       67.676    25773.516    17046.136     4579.989        9.443        2.370      375.786       54.163        0.021      339.117       12.227      859.149
11/18/2013  18:02:00     -413.494       -3.654      -23.755      244.998      149.277       89.195    60024.248    22283.539     7955.776       13.089        4.513      413.510      118.054        0.082      339.136       12.260      859.196
11/18/2013  18:03:00     -263.633      -68.687       -6.702      113.583      111.697       52.742    12901.092    12476.227     2781.742        5.121        1.408      272.434       54.988        0.041      339.194       12.357      859.229
11/18/2013  18:04:00     -144.908      -34.918       22.659      109.325      100.205       72.545    11951.963    10041.046     5262.764        2.499        1.363      149.055       67.557        0.205      339.159       12.300      859.246
11/18/2013  18:05:00     -428.134     -152.073      -20.380      190.792      219.130       88.360    36401.522    48017.795     7807.445       14.951        4.611      454.340       93.518        0.042      339.183       12.339      859.246
11/18/2013  18:06:00     -552.972     -173.139      -33.047      287.150      207.884       99.730    82454.992    43215.894     9946.014       23.620        6.781      579.444      118.138        0.042      339.172       12.320      859.238
11/18/2013  18:07:00     -301.725     -103.607       -5.091      139.389      115.542       63.815    19429.386    13349.908     4072.339        6.932        1.843      319.018       63.169        0.039      339.167       12.312      859.280
11/18/2013  18:08:00     -403.707     -106.295      -26.302      145.974      120.986       68.236    21308.422    14637.646     4656.097       10.778        2.030      417.466       71.265        0.029      339.171       12.319      859.300
11/18/2013  18:09:00     -220.051      -81.872      -14.563      102.938      112.099       66.319    10596.186    12566.180     4398.199        4.144        1.378      234.788       59.581        0.064      339.150       12.281      859.312
11/18/2013  18:10:00     -212.539      -72.814        0.954      204.510      128.614       71.549    41824.295    16541.504     5119.215        5.697        3.174      224.665       92.598        0.170      339.125       12.241      859.332
11/18/2013  18:11:00     -246.193      -11.648      -14.126      144.986       97.412       56.470    21020.881     9489.078     3188.856        4.732        1.685      246.469       49.805        0.041      339.094       12.191      859.338
11/18/2013  18:12:00     -439.139      -57.786      -12.889      161.435      176.170       85.998    26061.167    31035.981     7395.601       13.041        3.225      442.925       89.042        0.040      339.108       12.212      859.320
11/18/2013  18:13:00     -445.137     -171.007      -26.821      167.054      114.335       73.158    27907.108    13072.410     5352.154       13.721        2.317      476.855       69.318        0.021      339.116       12.225      859.336
11/18/2013  18:14:00     -432.006     -180.418       -0.968      200.294      139.110       92.785    40117.854    19351.587     8609.014       14.362        3.404      468.167       91.581        0.038      339.074       12.156      859.312
11/18/2013  18:15:00     -424.081     -107.656      -23.610      194.703      152.401       76.991    37909.284    23225.952     5927.550       12.951        3.353      437.532       74.664        0.029      339.098       12.195      859.282
11/18/2013  18:16:00     -284.225      -86.958       -0.845      159.118      126.902       66.674    25318.498    16104.156     4445.358        6.710        2.293      297.230       66.001        0.049      339.064       12.139      859.239
11/18/2013  18:17:00     -320.571     -125.105      -17.350      137.254      104.087       63.533    18838.790    10834.195     4036.388        7.621        1.685      344.117       72.503        0.044      339.064       12.138      859.236
11/18/2013  18:18:00     -372.652     -114.142      -11.363      158.036      144.256       84.968    24975.483    20809.924     7219.641       10.251        2.650      389.741       79.169        0.041      339.039       12.097      859.261
11/18/2013  18:19:00     -402.199      -72.047      -13.501      148.555      157.095       66.587    22068.650    24678.753     4433.824       10.915        2.559      408.601       60.194        0.022      339.031       12.083      859.228
11/18/2013  18:20:00     -479.065     -193.067      -30.329      160.926      127.756       72.360    25897.210    16321.640     5235.906       15.757        2.373      516.506       68.987        0.018      339.036       12.092      859.165
11/18/2013  18:21:00     -463.676      -89.893      -48.256      165.537      135.303       64.751    27402.581    18306.990     4192.718       13.764        2.495      472.310       34.175        0.005      339.019       12.062      859.122
11/18/2013  18:22:00     -349.590     -137.465      -25.328      165.730      110.736       53.829    27466.271    12262.529     2897.538        9.218        2.131      375.646       60.376        0.026      339.017       12.058      859.063
11/18/2013  18:23:00     -361.452     -145.383       -8.461      196.802      134.951       78.355    38731.117    18211.804     6139.549       10.746        3.154      389.594       88.182        0.051      339.031       12.083      859.073
11/18/2013  18:24:00     -283.225     -126.483      -11.879      151.927      105.457       58.685    23081.810    11121.251     3443.924        6.699        1.882      310.184       65.790        0.045      339.023       12.070      859.107
11/18/2013  18:25:00     -295.561      -64.325      -13.762      102.839      119.871       53.640    10575.850    14369.047     2877.205        5.975        1.391      302.480       45.762        0.023      339.024       12.072      859.153
11/18/2013  18:26:00     -424.173      -65.918      -48.361      141.300      108.941       58.022    19965.655    11868.135     3366.596       11.090        1.760      429.264       62.728        0.021      339.023       12.070      859.176
11/18/2013  18:27:00     -271.415      -23.712      -19.674      108.428      108.024       51.070    11756.694    11669.188     2608.186        5.032        1.302      272.449       44.143        0.026      338.989       12.012      859.203
11/18/2013  18:28:00     -337.015     -108.199      -24.532      156.863      111.823       73.094    24606.076    12504.484     5342.723        8.416        2.123      353.958       83.072        0.055      338.987       12.010      859.255
11/18/2013  18:29:00     -309.184      -17.640      -28.502      106.004       91.022       42.386    11236.867     8285.081     1796.531        5.901        1.066      309.686       27.953        0.008      338.989       12.014      859.302
11/18/2013  18:30:00     -250.582      -37.664       -1.782       92.130       76.384       49.243     8487.854     5834.510     2424.887        4.048        0.837      253.396       46.124        0.033      338.964       11.971      859.296
11/18/2013  18:31:00     -345.252      -37.862        6.249      199.864      132.741       82.401    39945.782    17620.103     6789.984        9.250        3.218      347.322       85.574        0.061      338.961       11.967      859.301
11/18/2013  18:32:00     -285.033      -19.566       -9.490      150.769      117.132       73.384    22731.365    13719.871     5385.205        6.177        2.092      285.703       73.102        0.065      338.957       11.960      859.298
11/18/2013  18:33:00     -225.327       -9.935        2.298      115.408       84.042       50.090    13319.030     7063.067     2508.966        3.688        1.145      225.545       47.441        0.044      338.951       11.949      859.305
11/18/2013  18:34:00     -187.176      -22.754        7.546      137.291       83.185       55.826    18848.707     6919.669     3116.522        3.224        1.444      188.554       77.306        0.168      338.952       11.950      859.291
11/18/2013  18:35:00      -83.640      -26.167       21.341       94.256       80.959       48.590     8884.152     6554.321     2361.023        1.296        0.890       87.638       53.980        0.379      338.937       11.927      859.242
11/18/2013  18:36:00     -121.009      -11.800       14.820      139.380       90.555       53.715    19426.921     8200.141     2885.302        2.275        1.526      121.583       62.716        0.266      338.910       11.881      859.207
11/18/2013  18:37:00     -471.647     -125.891      -20.194      203.065      154.247       80.040    41235.333    23792.194     6406.459       15.506        3.572      488.159       79.245        0.026      339.001       12.032      859.148
11/18/2013  18:38:00     -471.846     -123.937       -4.558      174.824      139.726       81.431    30563.262    19523.314     6631.005       14.736        2.836      487.852       91.648        0.035      338.984       12.004      859.161
11/18/2013  18:39:00     -257.460     -112.181        4.783      157.332      116.153       58.518    24753.423    13491.585     3424.391        6.027        2.083      280.838       64.361        0.053      338.969       11.980      859.176
11/18/2013  18:40:00     -227.303      -28.733        6.398      158.371       85.010       57.426    25081.347     7226.749     3297.767        4.406        1.780      229.112       58.829        0.066      338.965       11.972      859.153
11/18/2013  18:41:00     -206.319      -31.177        3.583      219.526      106.196       69.621    48191.848    11277.683     4847.131        5.392        3.216      208.661       99.090        0.226      338.982       12.002      859.127
11/18/2013  18:42:00     -213.539     -109.465        4.664      165.829      117.097       65.388    27499.094    13711.637     4275.614        5.154        2.274      239.961       84.534        0.124      339.032       12.087      859.136
11/18/2013  18:43:00     -328.291      -62.366        3.554      170.536      114.237       70.360    29082.654    13050.115     4950.471        7.937        2.354      334.162       78.273        0.055      338.981       12.000      859.184
11/18/2013  18:44:00     -227.341       -8.951       -6.760      154.555       81.397       65.710    23887.213     6625.467     4317.825        4.331        1.742      227.517       72.587        0.102      338.958       11.961      859.208
11/18/2013  18:45:00     -324.292      -78.989       -5.083      118.561      110.551       60.705    14056.777    12221.525     3685.047        7.069        1.498      333.773       64.215        0.037      338.939       11.929      859.215
11/18/2013  18:46:00     -346.371      -44.189      -14.490      130.237      108.588       62.416    16961.548    11791.387     3895.708        7.739        1.632      349.178       56.704        0.026      338.936       11.922      859.242
11/18/2013  18:47:00     -280.115      -75.941       -8.383      146.189      102.752       51.893    21371.333    10557.983     2692.848        5.946        1.731      290.227       48.754        0.028      338.924       11.903      859.276
11/18/2013  18:48:00     -236.613      -28.659       -3.270      191.588       95.089       61.908    36705.817     9041.901     3832.588        5.319        2.479      238.342       71.444        0.090      338.903       11.869      859.296
11/18/2013  18:49:00     -298.353      -62.649       -4.080      240.353      113.446       75.086    57769.415    12869.971     5637.897        8.460        3.814      304.859      100.447        0.109      338.937       11.925      859.307
11/18/2013  18:50:00     -218.226      -86.120       -1.995      151.489      137.472       75.395    22948.926    18898.461     5684.337        5.128        2.377      234.605       90.068        0.147      338.922       11.900      859.330
11/18/2013  18:51:00     -293.591      -88.001      -13.596      157.461      111.080       56.922    24794.047    12338.869     3240.129        6.724        2.019      306.497       66.880        0.048      338.917       11.891      859.331
11/18/2013  18:52:00     -205.180        5.527       -5.678      130.386       84.260       58.790    17000.464     7099.758     3456.273        3.485        1.378      205.254       70.525        0.118      338.908       11.876      859.330
11/18/2013  18:53:00     -395.789     -137.726      -14.418      145.146      107.174       63.901    21067.280    11486.184     4083.353       10.622        1.832      419.068       55.144        0.017      338.912       11.885      859.331
11/18/2013  18:54:00     -401.037      -66.715      -22.100      139.665      117.663       61.430    19506.295    13844.479     3773.693       10.144        1.856      406.548       62.279        0.023      338.909       11.877      859.356
11/18/2013  18:55:00     -400.420       -0.021      -31.451      208.360      129.017       77.232    43413.713    16645.297     5964.715       11.366        3.301      400.420       87.549        0.048      338.906       11.873      859.354
11/18/2013  18:56:00     -448.243      -28.463      -24.766      165.081      162.724       77.509    27251.676    26478.988     6007.635       13.103        2.987      449.146       80.245        0.032      338.892       11.848      859.362
11/18/2013  18:57:00     -304.371     -120.356       -3.491      183.246      134.323       79.637    33579.179    18042.778     6342.064        8.254        2.898      327.303       88.584        0.073      338.888       11.843      859.318
11/18/2013  18:58:00     -479.942     -126.934      -27.622      165.283      152.129       87.598    27318.307    23143.307     7673.352       15.267        2.907      496.444       89.069        0.032      338.869       11.811      859.275
11/18/2013  18:59:00     -460.204     -164.616      -10.161      171.573      128.506       88.122    29437.171    16513.718     7765.463       14.634        2.686      488.760       87.708        0.032      338.875       11.821      859.271
11/18/2013  19:00:00     -441.710      -20.261      -35.282      144.402      116.073       68.333    20851.850    13472.910     4669.398       11.787        1.950      442.175       74.326        0.028      338.856       11.789      859.268
11/18/2013  19:01:00     -414.304     -154.956      -21.030      114.414      116.460       68.748    13090.677    13562.943     4726.301       11.373        1.569      442.334       62.493        0.020      338.867       11.807      859.249
11/18/2013  19:02:00     -364.019      -27.764      -17.452      129.232      120.784       72.607    16700.860    14588.763     5271.775        8.507        1.828      365.076       68.361        0.035      338.850       11.778      859.279
11/18/2013  19:03:00     -398.822      -39.329      -16.364      151.846      169.445       76.558    23057.207    28711.540     5861.201       10.924        2.881      400.757       85.868        0.046      338.860       11.796      859.290
11/18/2013  19:04:00     -251.068      -39.026        7.225      211.944      131.831       74.567    44920.369    17379.281     5560.266        6.622        3.393      254.083       82.327        0.105      338.858       11.793      859.319
11/18/2013  19:05:00     -398.461      -82.171      -33.842      143.144      131.985       69.332    20490.216    17420.127     4806.928       10.468        2.136      406.845       62.925        0.024      338.873       11.818      859.417
11/18/2013  19:06:00     -320.952      -93.985      -11.885      171.597      119.509       79.015    29445.483    14282.425     6243.366        8.097        2.499      334.430       82.358        0.061      338.885       11.836      859.467
11/18/2013  19:07:00     -300.568      -10.362      -17.794      128.672      111.015       73.278    16556.485    12324.400     5369.630        6.250        1.713      300.746       63.841        0.045      338.865       11.803      859.451
11/18/2013  19:08:00     -324.354      -94.886      -21.480      159.673      180.628       74.268    25495.354    32626.424     5515.771        8.914        3.182      337.948       69.984        0.043      338.874       11.821      859.385
11/18/2013  19:09:00     -370.410      -70.036       -9.185      233.231      186.741       85.056    54396.848    34872.122     7234.589       11.933        4.825      376.973       97.220        0.067      338.879       11.827      859.307
11/18/2013  19:10:00     -501.181     -137.672      -22.650      197.203      137.291       84.943    38889.164    18848.760     7215.242       16.779        3.248      519.746       89.449        0.030      338.923       11.901      859.316
11/18/2013  19:11:00     -341.970     -142.443       -8.448      156.012      124.780       67.636    24339.626    15569.949     4574.581        9.089        2.224      370.450       81.616        0.049      338.900       11.861      859.345
11/18/2013  19:12:00     -245.062      -97.280       -6.391      128.492       88.276       58.284    16510.271     7792.720     3397.074        4.862        1.385      263.664       51.584        0.038      338.881       11.829      859.371
11/18/2013  19:13:00     -409.276      -68.691      -13.774      274.746      126.467       85.784    75485.432    15993.860     7358.886       13.561        4.942      415.000      116.095        0.078      338.853       11.784      859.381
11/18/2013  19:14:00     -396.530     -125.051      -21.605      191.750      153.132       86.405    36768.109    23449.339     7465.803       12.050        3.384      415.780       94.092        0.051      338.858       11.792      859.428
11/18/2013  19:15:00     -320.683      -52.356       13.904      195.084      125.484       84.406    38057.684    15746.359     7124.388        8.334        3.046      324.929       91.402        0.079      338.858       11.790      859.479
11/18/2013  19:16:00     -274.769      -18.318      -14.616      125.926      108.712       62.288    15857.437    11818.194     3879.787        5.379        1.578      275.379       63.208        0.053      338.846       11.773      859.455
11/18/2013  19:17:00     -405.543     -111.951      -10.348      185.469      145.032       89.174    34398.771    21034.220     7951.924       12.023        3.169      420.712       93.030        0.049      338.837       11.758      859.462
11/18/2013  19:18:00     -234.513     -125.758      -10.061      151.551      116.236       77.056    22967.854    13510.809     5937.645        5.666        2.121      266.104       82.561        0.096      338.846       11.771      859.480
11/18/2013  19:19:00     -293.534     -144.357      -25.315      118.545      119.281       70.012    14052.876    14227.942     4901.745        7.041        1.659      327.110       66.034        0.041      338.860       11.794      859.474
11/18/2013  19:20:00     -186.492      -56.798        4.966      163.489      121.031       60.007    26728.546    14648.520     3600.892        4.150        2.249      194.950       57.030        0.086      338.830       11.747      859.482
11/18/2013  19:21:00     -406.837     -160.364       -7.789      278.452      162.077       89.072    77535.776    26268.840     7933.791       15.149        5.587      437.302       84.384        0.037      338.868       11.810      859.430
11/18/2013  19:22:00     -267.403     -104.755       -9.153      153.367      145.658       74.713    23521.476    21216.186     5582.101        6.643        2.516      287.190       81.603        0.081      338.852       11.783      859.397
11/18/2013  19:23:00     -201.795        9.162      -13.020      148.049      109.113       65.629    21918.529    11905.651     4307.196        3.955        1.907      202.003       71.000        0.124      338.858       11.791      859.394
11/18/2013  19:24:00     -273.436     -117.496      -18.340      141.907      122.752       63.285    20137.730    15068.151     4005.048        6.405        1.961      297.611       65.502        0.048      338.836       11.756      859.387
11/18/2013  19:25:00     -321.757     -201.902      -16.985      217.121      164.411      109.154    47141.323    27031.130    11914.683       11.532        4.304      379.858      122.442        0.104      338.897       11.858      859.379
11/18/2013  19:26:00     -402.188     -125.969      -16.866      215.447      181.431       95.401    46417.365    32917.185     9101.276       13.315        4.422      421.454      104.900        0.062      338.828       11.741      859.361
11/18/2013  19:27:00     -421.128     -147.084      -25.389      207.651      162.173       81.293    43118.927    26300.235     6608.547       13.781        3.801      446.074       88.529        0.039      338.823       11.734      859.343
11/18/2013  19:28:00     -343.846     -207.678      -35.725      159.090      167.048       83.972    25309.630    27905.186     7051.333       11.144        3.013      401.696       82.653        0.042      338.816       11.720      859.329
11/18/2013  19:29:00     -318.273     -204.898      -15.399      161.900      164.613       95.078    26211.568    27097.347     9039.788       10.292        3.117      378.525       81.147        0.046      338.795       11.687      859.299
11/18/2013  19:30:00     -175.551      -43.982       12.233      143.671      119.763       70.344    20641.486    14343.079     4948.344        3.641        1.997      180.977       71.092        0.154      338.773       11.649      859.290
11/18/2013  19:31:00     -113.989      -83.796        7.025      105.559      115.757       54.679    11142.715    13399.592     2989.763        2.379        1.377      141.475       51.042        0.130      338.780       11.663      859.253
11/18/2013  19:32:00     -343.942     -107.889       -5.738      190.870      212.251       82.452    36431.256    45050.369     6798.388       10.911        4.414      360.466       95.955        0.071      338.776       11.654      859.202
11/18/2013  19:33:00     -232.409     -159.205       11.557      202.268      152.377       87.033    40912.453    23218.601     7574.797        7.559        3.585      281.709       99.180        0.124      338.771       11.646      859.149
11/18/2013  19:34:00     -154.749      -22.673       11.061      114.390      112.028       55.604    13085.042    12550.361     3091.835        2.665        1.436      156.401       49.793        0.101      338.766       11.639      859.107
11/18/2013  19:35:00     -259.263      -69.279       -7.145      168.549      114.469       66.722    28408.680    13103.074     4451.854        5.901        2.298      268.360       65.555        0.060      338.753       11.617      859.113
11/18/2013  19:36:00     -342.700      -36.162      -12.944      184.634      156.643       82.890    34089.665    24537.172     6870.743        9.220        3.275      344.603       84.779        0.061      338.743       11.600      859.116
11/18/2013  19:37:00     -159.872       13.088       10.416      117.135       98.888       70.947    13720.497     9778.821     5033.518        2.718        1.427      160.407       76.621        0.228      338.740       11.594      859.144
11/18/2013  19:38:00     -212.209      -78.051        5.582      155.187      119.031       78.403    24083.130    14168.493     6147.077        4.777        2.220      226.107       85.220        0.142      338.762       11.631      859.167
11/18/2013  19:39:00     -241.489      -67.481        0.846      181.445      143.378       83.091    32922.447    20557.329     6904.162        6.162        3.019      250.740       96.474        0.148      338.767       11.639      859.197
11/18/2013  19:40:00     -230.453     -126.856       -0.319      176.066      159.744       82.211    30999.097    25518.078     6758.576        6.623        3.164      263.061       89.033        0.115      338.761       11.629      859.243
11/18/2013  19:41:00     -215.174     -134.512       -2.267      167.873      191.586       89.562    28181.331    36705.377     8021.352        6.864        3.645      253.759       90.824        0.128      338.748       11.609      859.265
11/18/2013  19:42:00     -288.908     -224.376      -24.954      195.981      184.231       84.445    38408.638    33941.070     7131.016       10.694        3.974      365.804       98.552        0.073      338.736       11.588      859.315
11/18/2013  19:43:00     -393.603      -85.260      -33.724      183.526      133.773       82.701    33681.880    17895.193     6839.531       11.086        2.921      402.731       87.448        0.047      338.732       11.581      859.351
11/18/2013  19:44:00     -410.561       29.182      -38.082      164.533      110.988       62.194    27071.212    12318.416     3868.144       10.705        2.163      411.597       65.208        0.025      338.730       11.577      859.380
11/18/2013  19:45:00     -302.545      -14.757      -14.602      130.451      102.124       68.334    17017.428    10429.382     4669.593        6.203        1.606      302.905       64.153        0.045      338.710       11.544      859.448
11/18/2013  19:46:00     -293.934      -25.840      -13.815      119.432      100.531       58.459    14264.075    10106.433     3417.508        5.752        1.389      295.067       58.531        0.039      338.704       11.533      859.496
11/18/2013  19:47:00     -141.352      -89.119       15.967      139.577      121.023       79.265    19481.622    14646.537     6283.014        3.429        2.021      167.101       78.507        0.221      338.687       11.504      859.537
11/18/2013  19:48:00     -299.876      -79.730       -4.137      263.081      112.372       79.490    69211.447    12627.450     6318.722        9.221        4.408      310.294      113.351        0.133      338.687       11.504      859.563
11/18/2013  19:49:00     -330.487     -121.931      -15.907      157.584      131.468       76.762    24832.805    17283.815     5892.435        8.617        2.400      352.262       77.347        0.048      338.680       11.494      859.619
11/18/2013  19:50:00     -265.795     -104.814       -7.057      140.708       98.682       58.615    19798.868     9738.074     3435.708        5.732        1.649      285.715       68.303        0.057      338.679       11.490      859.628
11/18/2013  19:51:00     -309.186     -196.004        6.403      157.847      168.324       81.564    24915.723    28333.073     6652.635        9.697        2.995      366.079       79.183        0.047      338.663       11.465      859.642
11/18/2013  19:52:00     -258.584      -77.855      -11.832      114.014      136.724       67.533    12999.115    18693.549     4560.728        5.465        1.813      270.050       58.701        0.047      338.673       11.480      859.661
11/18/2013  19:53:00     -263.634      -49.791      -12.422      146.504      104.589       57.929    21463.554    10938.764     3355.786        5.394        1.788      268.295       66.312        0.061      338.683       11.498      859.664
11/18/2013  19:54:00     -175.982        5.273        3.810      114.607       96.347       57.542    13134.875     9282.801     3311.065        2.837        1.286      176.061       54.154        0.095      338.668       11.474      859.653
11/18/2013  19:55:00     -234.512     -108.591       -5.327      119.601      102.051       65.944    14304.315    10414.368     4348.618        4.794        1.453      258.433       65.328        0.064      338.685       11.502      859.618
11/18/2013  19:56:00     -398.747      -36.142      -13.320      192.667      129.900       64.290    37120.512    16873.995     4133.239       10.929        2.906      400.382       81.334        0.041      338.688       11.506      859.603
11/18/2013  19:57:00     -440.178      -18.101      -26.217      155.359      119.692       80.940    24136.423    14326.104     6551.364       11.988        2.251      440.550       80.900        0.034      338.674       11.482      859.587
11/18/2013  19:58:00     -369.203      -78.852      -33.605      130.148       97.826       59.353    16938.605     9569.845     3522.751        8.684        1.502      377.529       48.258        0.016      338.686       11.501      859.587
11/18/2013  19:59:00     -185.049      -97.180        3.646      158.185       65.416       45.894    25022.361     4279.242     2106.215        3.755        1.570      209.014       62.300        0.089      338.702       11.531      859.622
11/18/2013  20:00:00     -145.892       11.767       -7.002       75.653       58.565       34.637     5723.442     3429.900     1199.688        1.591        0.518      146.366       38.516        0.069      338.687       11.508      859.608
11/18/2013  20:01:00     -252.163     -124.779       13.352      187.616      140.145       85.756    35199.786    19640.679     7354.175        7.075        3.110      281.347       90.407        0.103      338.684       11.500      859.595
11/18/2013  20:02:00     -395.026      -54.858      -12.886      223.565      156.911       80.889    49981.406    24621.070     6543.014       12.017        4.057      398.817      102.570        0.066      338.703       11.529      859.604
11/18/2013  20:03:00     -252.437      -46.193       -4.884      125.555      110.969       51.415    15764.004    12314.208     2643.465        4.830        1.536      256.629       58.396        0.052      338.688       11.506      859.587
11/18/2013  20:04:00     -255.838      -51.953      -16.205       85.109       87.815       42.241     7243.514     7711.542     1784.338        4.257        0.837      261.060       39.635        0.023      338.673       11.479      859.624
11/18/2013  20:05:00     -275.174      -63.725      -18.785      133.842      154.310       60.388    17913.600    23811.454     3646.727        6.274        2.269      282.456       72.467        0.066      338.658       11.456      859.631
11/18/2013  20:06:00     -242.685     -160.766       14.374      179.567      125.506       80.275    32244.309    15751.793     6444.079        6.968        2.722      291.104       84.661        0.085      338.642       11.427      859.618
11/18/2013  20:07:00     -225.312      -37.220      -11.939      158.936      122.639       62.480    25260.540    15040.291     3903.802        4.824        2.210      228.365       57.565        0.064      338.646       11.436      859.606
11/18/2013  20:08:00     -355.246      -38.843      -19.673      141.781      124.807       52.231    20101.755    15576.668     2728.080        8.324        1.920      357.364       48.479        0.018      338.662       11.461      859.568
11/18/2013  20:09:00     -327.957     -111.325       -6.479      143.601      118.500       63.807    20621.205    14042.268     4071.330        7.935        1.937      346.336       70.589        0.042      338.643       11.429      859.572
11/18/2013  20:10:00     -390.002      -67.938       -8.141      150.251      130.241       77.257    22575.414    16962.789     5968.663       10.114        2.275      395.875       81.397        0.042      338.644       11.431      859.566
11/18/2013  20:11:00     -295.081     -107.124       -7.661      141.576      128.684       70.214    20043.802    16559.491     4930.039        7.006        2.077      313.924       67.914        0.047      338.631       11.411      859.579
11/18/2013  20:12:00     -276.565      -31.220       -9.949      122.213      105.325       58.306    14936.006    11093.301     3399.575        5.349        1.471      278.321       57.018        0.042      338.629       11.408      859.575
11/18/2013  20:13:00     -308.577      -77.516       -7.928      137.706      109.821       65.981    18962.947    12060.740     4353.469        6.833        1.769      318.164       69.459        0.048      338.600       11.358      859.558
11/18/2013  20:14:00     -247.801      -83.428       -7.854      133.747      113.846       52.311    17888.343    12960.892     2736.412        5.100        1.679      261.468       46.467        0.032      338.582       11.329      859.553
11/18/2013  20:15:00     -266.883      -36.953       11.641      209.573      125.666       69.217    43920.720    15792.012     4791.032        6.860        3.225      269.429       86.059        0.102      338.577       11.322      859.573
11/18/2013  20:16:00     -253.312      -53.443       -3.803      161.262      111.271       65.146    26005.355    12381.212     4244.047        5.483        2.132      258.888       81.267        0.099      338.614       11.383      859.607
11/18/2013  20:17:00     -200.362      -95.132       27.400      149.883      117.657       77.719    22464.777    13843.108     6040.198        4.614        2.117      221.800       85.732        0.149      338.593       11.349      859.633
11/18/2013  20:18:00     -227.779     -101.312        1.296      132.633      126.453       65.046    17591.573    15990.321     4230.944        4.997        1.891      249.294       69.912        0.079      338.621       11.393      859.651
11/18/2013  20:19:00     -325.453      -98.204      -25.245      215.781      109.897       64.010    46561.225    12077.250     4097.238        8.946        3.137      339.947       88.974        0.069      338.653       11.448      859.652
11/18/2013  20:20:00     -517.790     -104.492      -32.510      216.599      142.416       88.497    46914.941    20282.395     7831.678       17.754        3.751      528.228       92.172        0.030      338.646       11.436      859.597
11/18/2013  20:21:00     -313.527      -49.779      -16.494      111.907      115.749       57.674    12523.195    13397.736     3326.236        6.514        1.462      317.454       54.591        0.030      338.623       11.397      859.594
11/18/2013  20:22:00     -371.208     -131.879      -11.534      145.559      113.259       79.369    21187.301    12827.637     6299.489        9.781        2.016      393.939       79.798        0.041      338.619       11.390      859.561
11/18/2013  20:23:00     -480.285      -51.862      -33.285      157.154      124.585       65.410    24697.285    15521.462     4278.452       13.948        2.225      483.077       65.180        0.018      338.617       11.387      859.551
11/18/2013  20:24:00     -241.402      -15.428       -2.479      152.862      139.205       69.335    23366.641    19378.033     4807.379        5.303        2.378      241.895       71.458        0.087      338.614       11.382      859.542
11/18/2013  20:25:00     -276.925     -154.358       -8.583      197.928      138.806       69.829    39175.426    19267.204     4876.091        8.194        3.166      317.039       76.453        0.058      338.617       11.387      859.535
11/18/2013  20:26:00     -260.510     -131.196      -14.258      127.231      152.988       64.453    16187.625    23405.387     4154.217        6.451        2.187      291.682       60.185        0.043      338.613       11.380      859.533
11/18/2013  20:27:00     -326.871     -137.491        3.490      203.653      156.184       80.864    41474.655    24393.385     6538.999        9.907        3.620      354.610       98.901        0.078      338.587       11.338      859.523
11/18/2013  20:28:00     -199.827      -90.611        4.802      148.674      125.217       62.015    22103.880    15679.356     3845.887        4.489        2.081      219.411       64.079        0.085      338.574       11.316      859.519
11/18/2013  20:29:00     -175.141      -53.381       -1.568      206.626      112.822       75.649    42694.204    12728.723     5722.823        4.732        3.057      183.095       78.967        0.186      338.560       11.293      859.500
11/18/2013  20:30:00     -393.622      -87.356      -31.285      188.123      144.991       73.096    35390.084    21022.366     5343.050       11.264        3.088      403.199       80.634        0.040      338.597       11.353      859.515
11/18/2013  20:31:00     -448.752     -153.380      -23.478      227.861      131.583       86.904    51920.415    17314.030     7552.325       15.111        3.839      474.240      104.267        0.048      338.583       11.331      859.523
11/18/2013  20:32:00     -318.258      -61.797      -14.123      212.631      114.614       82.213    45211.794    13136.330     6759.010        8.519        3.255      324.202       97.820        0.091      338.586       11.335      859.538
11/18/2013  20:33:00     -225.526     -117.946      -18.854      175.877      105.536       70.151    30932.754    11137.918     4921.211        5.605        2.350      254.506       81.280        0.102      338.581       11.327      859.543
11/18/2013  20:34:00      -84.096      -43.827       26.699      110.092      111.924       64.385    12120.171    12526.929     4145.406        1.924        1.440       94.831       60.346        0.405      338.561       11.296      859.523
11/18/2013  20:35:00     -415.522     -182.769      -30.852      290.983      187.737      108.824    84670.847    35245.274    11842.631       16.936        6.588      453.942      144.664        0.102      338.595       11.351      859.516
11/18/2013  20:36:00     -274.704      -35.722       -4.978      227.018      147.577       82.028    51537.116    21778.943     6728.619        7.839        4.002      277.017      104.804        0.143      338.579       11.323      859.526
11/18/2013  20:37:00     -251.070      -72.360       -4.021      159.131      122.716       72.878    25322.822    15059.309     5311.236        5.698        2.285      261.289       84.521        0.105      338.581       11.327      859.543
11/18/2013  20:38:00     -445.570      -91.872      -14.419      219.184      170.314       97.412    48041.590    29006.757     9489.031       14.684        4.327      454.943      111.776        0.060      338.606       11.367      859.530
11/18/2013  20:39:00     -381.106     -123.839        9.103      184.065      177.188       88.602    33879.796    31395.447     7850.266       11.688        3.656      400.722       97.843        0.060      338.595       11.349      859.493
11/18/2013  20:40:00     -237.542     -162.243        9.150      191.778      201.919      100.374    36778.759    40771.126    10075.005        8.521        4.381      287.661       97.271        0.114      338.591       11.344      859.457
11/18/2013  20:41:00     -347.870     -172.907      -13.004      218.581      191.324      110.981    47777.474    36604.950    12316.880       12.387        4.835      388.472      119.180        0.094      338.573       11.313      859.377
11/18/2013  20:42:00     -495.487     -111.796      -15.127      266.901      208.695      119.610    71235.907    43553.533    14306.593       19.364        6.455      507.942      140.341        0.076      338.565       11.300      859.393
11/18/2013  20:43:00     -277.602     -181.196        6.677      202.874      176.049      102.948    41157.881    30993.248    10598.357        9.633        4.137      331.504       94.573        0.081      338.570       11.310      859.406
11/18/2013  20:44:00     -341.244     -112.453       10.337      224.427      196.336      108.228    50367.280    38547.660    11713.212       11.489        5.031      359.295      126.810        0.125      338.587       11.336      859.407
11/18/2013  20:45:00     -465.162     -150.490      -16.519      191.002      183.459       93.849    36481.753    33657.021     8807.642       15.911        3.947      488.900       88.264        0.033      338.608       11.372      859.455
11/18/2013  20:46:00     -466.771     -162.882       -1.709      304.031      230.470      123.852    92434.842    53116.470    15339.204       20.262        8.045      494.375      146.284        0.088      338.622       11.395      859.426
11/18/2013  20:47:00     -529.965     -180.607      -33.499      230.075      240.274      101.906    52934.303    57731.714    10384.773       21.780        6.053      559.895       96.411        0.030      338.609       11.374      859.439
11/18/2013  20:48:00     -401.152      -67.904        2.984      312.745      187.706      106.427    97809.584    35233.428    11326.754       15.493        7.218      406.858      134.574        0.109      338.588       11.339      859.459
11/18/2013  20:49:00     -606.588      -80.552      -31.611      253.329      200.682       90.095    64175.739    40273.121     8117.114       24.398        5.628      611.913      108.190        0.031      338.565       11.299      859.497
11/18/2013  20:50:00     -361.347     -194.568      -27.727      270.854      222.633      128.446    73361.979    49565.378    16498.277       15.428        6.971      410.400      138.942        0.115      338.569       11.307      859.528
11/18/2013  20:51:00     -623.827     -159.484      -16.524      238.216      221.453      111.123    56747.009    49041.539    12348.266       26.648        5.907      643.891      102.446        0.025      338.554       11.282      859.585
11/18/2013  20:52:00     -579.703     -213.014      -40.535      211.146      215.086      104.618    44582.569    46262.110    10944.872       24.241        5.089      617.600      102.019        0.027      338.540       11.259      859.612
11/18/2013  20:53:00     -484.395     -183.783      -35.643      270.832      186.472       85.810    73349.829    34771.912     7363.389       19.256        5.774      518.087      101.669        0.039      338.533       11.246      859.605
11/18/2013  20:54:00     -386.327     -149.287        5.964      278.687      178.111      104.082    77666.271    31723.567    10832.965       14.587        6.011      414.168      126.744        0.094      338.521       11.225      859.597
11/18/2013  20:55:00     -568.154     -194.088      -15.909      276.210      242.092      107.550    76291.965    58608.716    11566.978       25.357        7.323      600.391      119.132        0.039      338.522       11.229      859.624
11/18/2013  20:56:00     -531.869     -185.640      -16.418      248.791      174.017       89.525    61896.730    30281.747     8014.752       20.888        5.010      563.335      123.651        0.048      338.522       11.229      859.641
11/18/2013  20:57:00     -327.703     -219.786        6.222      269.451      176.856      126.430    72603.908    31277.897    15984.567       13.778        5.993      394.582      147.324        0.139      338.518       11.223      859.622
11/18/2013  20:58:00     -431.049     -246.122      -28.939      263.255      215.204      107.867    69303.405    46312.913    11635.305       18.721        6.363      496.366      122.972        0.061      338.513       11.211      859.612
11/18/2013  20:59:00     -350.021      -96.815        6.064      212.679      162.989      108.182    45232.247    26565.406    11703.302       10.770        4.175      363.163       95.540        0.069      338.505       11.200      859.600
11/18/2013  21:00:00     -453.041     -190.808      -24.892      216.652      167.688       95.356    46938.146    28119.280     9092.722       16.319        4.208      491.583       89.137        0.033      338.503       11.195      859.624
11/18/2013  21:01:00     -485.974     -188.043      -10.114      277.628      216.960      106.215    77077.081    47071.850    11281.694       20.350        6.772      521.086      112.113        0.046      338.503       11.196      859.625
11/18/2013  21:02:00     -497.742     -182.717      -42.409      209.980      185.823       91.411    44091.686    34530.362     8355.987       18.494        4.349      530.219       78.562        0.022      338.518       11.221      859.643
11/18/2013  21:03:00     -388.441     -158.730       -6.162      240.743      155.981       96.099    57957.276    24330.147     9235.051       13.380        4.576      419.621      119.501        0.081      338.511       11.208      859.660
11/18/2013  21:04:00     -244.712      -71.643        7.055      241.809      154.811       93.881    58471.526    23966.399     8813.635        7.814        4.563      254.984      104.839        0.169      338.493       11.178      859.680
11/18/2013  21:05:00     -565.740     -251.449      -41.879      269.126      177.254       98.612    72428.823    31418.965     9724.415       24.928        5.679      619.103      103.649        0.028      338.492       11.176      859.686
11/18/2013  21:06:00     -531.857     -282.051       -6.402      283.286      197.628      128.153    80250.769    39056.801    16423.111       24.907        6.787      602.017      156.413        0.068      338.526       11.236      859.688
11/18/2013  21:07:00     -420.150     -165.214      -17.418      197.251      200.772       94.352    38907.947    40309.333     8902.327       14.610        4.406      451.466       92.728        0.042      338.509       11.205      859.659
11/18/2013  21:08:00     -525.375     -189.436      -25.175      310.393      273.469      112.548    96343.736    74785.061    12667.012       24.813        9.190      558.484      129.505        0.054      338.487       11.167      859.611
11/18/2013  21:09:00     -533.227     -205.044      -19.794      245.739      186.567      100.048    60387.788    34807.139    10009.613       21.596        5.260      571.292      121.190        0.045      338.518       11.223      859.589
11/18/2013  21:10:00     -380.102      -96.657       -0.685      188.601      217.953      105.544    35570.269    47503.533    11139.440       12.400        4.711      392.199      112.634        0.082      338.479       11.153      859.598
11/18/2013  21:11:00     -409.858     -107.172      -13.097      240.671      164.853       99.068    57922.296    27176.468     9814.431       13.726        4.746      423.639      114.978        0.074      338.457       11.118      859.551
11/18/2013  21:12:00     -346.733     -114.483       -1.497      303.178      144.625      101.122    91916.857    20916.403    10225.610       12.817        6.153      365.144      123.609        0.115      338.464       11.130      859.518
11/18/2013  21:13:00     -362.426     -284.377       -4.259      201.120      166.059      108.959    40449.225    27575.702    11872.084       14.605        3.995      460.676      107.098        0.054      338.451       11.107      859.480
11/18/2013  21:14:00     -465.066     -241.928      -33.200      222.584      176.808      105.594    49543.761    31261.019    11150.113       18.392        4.598      524.228       97.986        0.035      338.440       11.088      859.478
11/18/2013  21:15:00     -397.090     -238.717       -5.340      223.108      220.319      111.288    49777.222    48540.676    12384.942       16.268        5.535      463.321      119.999        0.067      338.446       11.098      859.478
11/18/2013  21:16:00     -406.008     -283.603      -25.985      270.629      224.482      106.315    73239.835    50392.036    11302.911       19.042        6.747      495.251      116.464        0.055      338.435       11.079      859.460
11/18/2013  21:17:00     -364.258     -110.914        0.060      232.260      219.642      115.806    53944.914    48242.823    13410.917       13.027        5.780      380.770      122.046        0.103      338.419       11.055      859.428
11/18/2013  21:18:00     -357.916     -137.246      -10.794      226.951      205.543       89.717    51506.871    42247.989     8049.228       12.441        5.090      383.328       94.750        0.061      338.403       11.027      859.406
11/18/2013  21:19:00     -349.990     -157.233       -8.490      223.478      164.882       85.634    49942.300    27186.132     7333.150       11.586        4.223      383.686       93.127        0.059      338.391       11.007      859.377
11/18/2013  21:20:00     -272.256     -210.152        5.351      214.646      139.515      106.522    46072.698    19464.539    11346.858        9.758        3.844      343.929      109.831        0.102      338.399       11.020      859.352
11/18/2013  21:21:00     -320.007     -158.465       11.852      267.852      176.050      117.021    71744.439    30993.710    13693.806       12.202        5.822      357.093      121.497        0.116      338.434       11.081      859.333
11/18/2013  21:22:00     -320.077     -165.624      -11.515      182.799      151.028       81.849    33415.301    22809.333     6699.283        9.646        3.146      360.389       92.106        0.065      338.425       11.064      859.383
11/18/2013  21:23:00     -308.201     -199.924       -6.079      205.056      170.565       91.301    42048.061    29092.567     8335.933       10.722        3.974      367.366       94.667        0.066      338.400       11.023      859.342
11/18/2013  21:24:00     -367.037     -217.860      -11.148      251.376      134.539      104.410    63189.669    18100.798    10901.384       13.723        4.610      426.825      137.126        0.103      338.401       11.024      859.336
11/18/2013  21:25:00     -388.933     -205.974      -24.664      231.717      172.102       83.036    53692.648    29619.265     6894.912       14.224        4.510      440.107       97.268        0.049      338.394       11.012      859.299
11/18/2013  21:26:00     -353.476     -182.185        0.051      197.469      186.779       94.795    38994.154    34886.459     8986.053       12.049        4.143      397.664      103.036        0.067      338.409       11.037      859.280
11/18/2013  21:27:00     -327.304     -219.641       -1.325      244.505      192.341      108.544    59782.687    36995.010    11781.834       13.194        5.428      394.170      118.340        0.090      338.421       11.056      859.261
11/18/2013  21:28:00     -438.921     -149.265       -6.536      272.408      151.089      109.664    74206.341    22827.833    12026.100       16.200        5.453      463.607      136.571        0.087      338.424       11.061      859.280
11/18/2013  21:29:00     -461.319     -247.057       -6.106      244.669      183.412       98.110    59862.851    33639.839     9625.619       18.849        5.156      523.309      103.207        0.039      338.410       11.039      859.279
11/18/2013  21:30:00     -444.776     -202.949      -25.880      213.544      187.749       94.982    45601.009    35249.712     9021.576       16.476        4.494      488.891       87.185        0.032      338.407       11.033      859.287
11/18/2013  21:31:00     -405.954     -249.515      -15.095      227.994      157.734       99.523    51981.064    24879.892     9904.840       15.701        4.338      476.504      108.310        0.052      338.390       11.004      859.281
11/18/2013  21:32:00     -225.348     -163.444       17.226      241.830      184.272      110.606    58481.976    33956.352    12233.693        9.121        5.234      278.380      130.614        0.220      338.369       10.970      859.240
11/18/2013  21:33:00     -428.006      -67.390      -34.119      223.742      173.083       87.800    50060.618    29957.682     7708.754       13.829        4.386      433.279       86.541        0.040      338.359       10.954      859.223
11/18/2013  21:34:00     -377.949     -175.102       -8.492      237.428      215.799       99.489    56372.211    46569.380     9898.023       14.319        5.642      416.540      122.996        0.087      338.381       10.991      859.198
11/18/2013  21:35:00     -381.604     -230.342      -10.469      228.575      194.840      110.681    52246.630    37962.642    12250.296       15.060        5.123      445.735      128.638        0.083      338.399       11.020      859.228
11/18/2013  21:36:00     -345.728     -296.261       -1.210      211.022      194.946      126.964    44530.449    38004.046    16119.848       15.296        4.933      455.300      136.767        0.090      338.386       10.999      859.205
11/18/2013  21:37:00     -352.683     -181.827        1.214      193.217      151.528       87.373    37332.629    22960.700     7634.039       11.267        3.396      396.795      100.007        0.064      338.375       10.981      859.233
11/18/2013  21:38:00     -298.549     -241.959        5.641      226.423      201.030      115.056    51267.459    40413.072    13237.985       12.629        5.246      384.286      139.112        0.131      338.427       11.068      859.230
11/18/2013  21:39:00     -296.669     -182.852        1.481      177.811      146.511       95.433    31616.604    21465.348     9107.496        9.181        3.109      348.493      101.683        0.085      338.459       11.121      859.264
11/18/2013  21:40:00     -263.937     -181.371        1.932      152.139      113.795       80.405    23146.252    12949.230     6465.013        7.255        2.128      320.247       83.820        0.069      338.449       11.103      859.301
11/18/2013  21:41:00     -242.075     -149.924       -4.328      167.679      151.890       79.892    28116.151    23070.526     6382.768        6.932        2.878      284.741       91.779        0.104      338.423       11.061      859.318
11/18/2013  21:42:00     -228.554      -99.143       10.720      182.272      104.769       77.561    33222.996    10976.565     6015.712        5.619        2.511      249.131       92.289        0.137      338.405       11.033      859.327
11/18/2013  21:43:00     -371.657     -118.530      -10.562      233.190      135.325       93.444    54377.736    18312.796     8731.755       11.684        4.071      390.101      100.689        0.067      338.400       11.022      859.349
11/18/2013  21:44:00     -270.117     -152.305        0.312      174.376      142.756       81.732    30406.860    20379.165     6680.101        7.680        2.873      310.097       99.941        0.104      338.385       10.998      859.375
11/18/2013  21:45:00     -379.913      -72.080      -21.790      175.780      134.034       74.788    30898.531    17965.007     5593.206       10.222        2.723      386.691       84.708        0.048      338.406       11.032      859.372
11/18/2013  21:46:00     -375.000      -98.466      -24.227      180.828      141.440       76.672    32698.783    20005.162     5878.607       10.473        2.929      387.712       96.331        0.062      338.438       11.086      859.362
11/18/2013  21:47:00     -211.603     -100.515       -9.980      168.040      127.322       73.024    28237.356    16210.883     5332.515        5.237        2.489      234.263       81.345        0.121      338.442       11.091      859.363
11/18/2013  21:48:00     -257.495     -148.550       -9.906      227.832      150.843       88.154    51907.606    22753.480     7771.096        8.543        4.122      297.273      109.295        0.135      338.445       11.097      859.311
11/18/2013  21:49:00     -189.200     -166.714        2.685      152.037      109.937       83.415    23115.278    12086.211     6958.112        5.287        2.108      252.171       79.246        0.099      338.453       11.113      859.262
11/18/2013  21:50:00     -251.611      -76.896        1.004      193.261      129.382       82.865    37349.968    16739.820     6866.663        6.508        3.048      263.099      100.742        0.147      338.457       11.118      859.219
11/18/2013  21:51:00     -196.195     -186.540       -2.962      151.144      150.965       78.764    22844.572    22790.519     6203.804        6.256        2.592      270.720       81.371        0.090      338.501       11.192      859.229
11/18/2013  21:52:00     -288.170     -175.503       -4.245      141.193      128.263       68.062    19935.496    16451.513     4632.444        7.743        2.051      337.406       66.258        0.039      338.556       11.285      859.266
11/18/2013  21:53:00     -274.582     -225.438       10.241      161.287      123.607       67.286    26013.399    15278.697     4527.363        8.606        2.291      355.271       69.863        0.039      338.554       11.281      859.310
11/18/2013  21:54:00     -350.472     -278.130       -3.343      178.996      167.595       90.848    32039.523    28087.974     8253.437       13.428        3.419      447.423       97.573        0.048      338.535       11.251      859.314
11/18/2013  21:55:00     -240.133     -276.364      -15.222      193.189      119.043       78.648    37321.919    14171.153     6185.557        9.596        2.884      366.116       66.377        0.033      338.547       11.270      859.336
11/18/2013  21:56:00     -230.273     -210.883       -1.764       96.519      100.716       53.768     9315.927    10143.777     2890.974        5.992        1.118      312.246       48.470        0.024      338.522       11.227      859.359
11/18/2013  21:57:00     -159.752     -174.671        6.592      137.316       86.210       58.401    18855.783     7432.085     3410.658        4.288        1.485      236.708       57.747        0.060      338.540       11.259      859.359
11/18/2013  21:58:00     -344.257     -224.109      -18.784      163.995      138.002       76.938    26894.489    19044.568     5919.482       11.046        2.593      410.777       83.671        0.041      338.570       11.308      859.351
11/18/2013  21:59:00     -346.265     -186.265      -12.098      182.466      118.370       77.119    33293.734    14011.343     5947.341       10.399        2.663      393.185       87.887        0.050      338.595       11.349      859.354
11/18/2013  22:00:00     -275.873     -270.904        9.934      201.360      158.426      107.941    40545.813    25098.889    11651.266       11.343        3.865      386.645      112.010        0.084      338.591       11.344      859.344
11/18/2013  22:01:00     -418.049     -210.156      -10.384      108.597      122.234       60.551    11793.297    14941.128     3666.426       12.471        1.520      467.900       59.306        0.016      338.595       11.351      859.342
11/18/2013  22:02:00     -291.708     -137.529      -11.481      106.242       87.126       55.958    11287.287     7590.972     3131.291        6.307        1.100      322.503       40.809        0.016      338.578       11.320      859.357
11/18/2013  22:03:00     -276.367     -151.450       -9.983      147.199      102.426       54.608    21667.549    10491.032     2981.993        6.727        1.757      315.144       54.523        0.030      338.597       11.353      859.362
11/18/2013  22:04:00     -201.579      -82.947       -6.306       87.600       74.117       40.024     7673.686     5493.392     1601.957        3.116        0.738      217.978       42.211        0.037      338.584       11.333      859.364
11/18/2013  22:05:00     -207.104      -88.803       21.498      121.254       90.954       67.336    14702.444     8272.575     4534.096        3.937        1.375      225.340       59.611        0.070      338.605       11.367      859.369
11/18/2013  22:06:00     -255.203     -146.539        5.725      112.214       94.732       52.264    12591.953     8974.102     2731.532        5.546        1.215      294.282       49.552        0.028      338.668       11.472      859.348
11/18/2013  22:07:00     -204.213     -110.471      -14.596      114.729      109.202       56.299    13162.718    11925.002     3169.585        4.118        1.413      232.178       43.350        0.035      338.666       11.468      859.322
11/18/2013  22:08:00     -389.274     -310.004      -15.523      156.040      133.137       76.306    24348.534    17725.335     5822.576       14.788        2.395      497.631       76.382        0.024      338.736       11.588      859.316
11/18/2013  22:09:00     -365.416     -229.949        2.484      151.933      104.288       83.462    23083.586    10875.957     6965.848       11.366        2.046      431.746       85.946        0.040      338.724       11.567      859.320
11/18/2013  22:10:00     -352.638     -278.848       -9.996      145.861      135.921       82.338    21275.344    18474.408     6779.504       12.436        2.326      449.566       83.893        0.035      338.700       11.526      859.329
11/18/2013  22:11:00     -313.424     -169.776       10.173      154.482      119.419       71.227    23864.667    14260.795     5073.264        8.517        2.160      356.453       73.723        0.043      338.667       11.471      859.333
11/18/2013  22:12:00     -183.709     -141.896      -11.474      115.022      100.362       60.587    13230.124    10072.450     3670.814        4.049        1.349      232.128       48.197        0.043      338.715       11.552      859.322
11/18/2013  22:13:00     -198.790     -176.236      -10.181      123.068       95.211       56.771    15145.741     9065.139     3222.963        4.905        1.372      265.662       58.179        0.048      338.725       11.568      859.296
11/18/2013  22:14:00     -186.543     -114.362        5.076      112.647       96.914       55.848    12689.280     9392.238     3118.963        3.655        1.260      218.808       56.633        0.067      338.722       11.564      859.309
11/18/2013  22:15:00     -180.498     -153.563        4.155      135.993      114.934       60.306    18494.046    13209.886     3636.768        4.575        1.767      236.984       65.973        0.078      338.724       11.567      859.334
11/18/2013  22:16:00     -139.105     -171.617        9.562       96.994       92.344       61.029     9407.869     8527.360     3724.573        3.527        1.083      220.913       53.124        0.058      338.702       11.530      859.374
11/18/2013  22:17:00     -194.213     -176.421        8.160      103.730       96.361       58.918    10759.977     9285.373     3471.389        4.621        1.176      262.380       51.823        0.039      338.682       11.497      859.371
11/18/2013  22:18:00     -187.723     -216.037        5.968      111.939      124.212       58.181    12530.314    15428.689     3384.995        5.664        1.567      286.203       61.689        0.046      338.650       11.442      859.341
11/18/2013  22:19:00     -246.537     -182.852       -0.483      112.228      106.739       59.339    12595.227    11393.311     3521.098        6.086        1.375      306.945       58.566        0.036      338.632       11.413      859.324
11/18/2013  22:20:00     -207.644     -165.021        4.989      146.701       81.604       67.345    21521.322     6659.161     4535.317        5.154        1.636      265.232       70.083        0.070      338.632       11.411      859.304
11/18/2013  22:21:00     -233.883     -145.863      -15.555      104.337       90.512       57.653    10886.112     8192.425     3323.910        4.931        1.120      275.640       44.303        0.026      338.635       11.417      859.285
11/18/2013  22:22:00     -203.207     -162.341       -0.550      120.032       83.997       53.742    14407.631     7055.513     2888.199        4.599        1.218      260.091       47.621        0.034      338.664       11.466      859.273
11/18/2013  22:23:00     -305.539     -163.070       -2.422      106.245      105.386       54.403    11287.903    11106.140     2959.699        7.265        1.268      346.332       41.927        0.015      338.685       11.501      859.263
11/18/2013  22:24:00     -167.836     -138.095       -0.748      136.518       92.649       67.562    18637.052     8583.765     4564.633        3.951        1.589      217.345       74.110        0.116      338.670       11.476      859.242
11/18/2013  22:25:00     -176.676      -87.345        2.042      114.413       98.039       70.803    13090.250     9611.725     5013.002        3.328        1.386      197.087       68.133        0.120      338.671       11.477      859.210
11/18/2013  22:26:00      -91.784      -64.865       15.287      120.492      107.614       55.497    14518.324    11580.709     3079.913        2.102        1.459      112.391       66.077        0.346      338.673       11.481      859.211
11/18/2013  22:27:00     -291.812      -40.568      -14.756      156.822      116.384       61.464    24593.231    13545.279     3777.803        6.446        2.096      294.619       65.442        0.049      338.683       11.497      859.222
11/18/2013  22:28:00     -202.333     -140.418      -10.164      102.684       91.691       54.580    10544.034     8407.324     2978.957        4.134        1.097      246.284       51.999        0.045      338.665       11.467      859.269
11/18/2013  22:29:00     -156.266      -65.800       15.173      148.208      109.286       67.003    21965.617    11943.487     4489.415        3.368        1.920      169.554       69.720        0.169      338.678       11.491      859.288
11/18/2013  22:30:00     -281.194     -145.238      -22.569      133.234      123.303       66.904    17751.175    15203.521     4476.155        6.904        1.872      316.487       58.126        0.034      338.668       11.471      859.327
11/18/2013  22:31:00     -393.545      -58.238      -13.126      134.611      101.319       60.703    18120.016    10265.512     3684.806        9.525        1.604      397.831       62.869        0.025      338.704       11.533      859.355
11/18/2013  22:32:00     -181.359     -134.383        0.522      100.874      101.370       59.556    10175.632    10275.931     3546.899        3.747        1.200      225.721       58.061        0.066      338.678       11.490      859.372
11/18/2013  22:33:00     -146.511      -20.402        2.513       84.900       83.067       36.282     7207.999     6900.059     1316.418        1.865        0.771      147.925       29.123        0.039      338.665       11.467      859.392
11/18/2013  22:34:00     -115.278      -19.321        6.764       82.837       64.674       41.004     6861.903     4182.678     1681.352        1.321        0.636      116.886       40.477        0.120      338.656       11.454      859.393
11/18/2013  22:35:00      -58.807       -1.268       11.507       68.341       41.976       28.096     4670.431     1762.000      789.412        0.541        0.361       58.821       22.172        0.142      338.644       11.433      859.400
11/18/2013  22:36:00     -142.192     -103.470       -6.712       85.832       91.065       53.551     7367.115     8292.763     2867.663        2.474        0.926      175.854       46.550        0.070      338.648       11.442      859.402
11/18/2013  22:37:00     -218.466     -151.776       -8.268      117.573       86.108       49.428    13823.449     7414.651     2443.174        4.725        1.184      266.014       58.296        0.048      338.687       11.504      859.399
11/18/2013  22:38:00     -197.845     -145.418       -2.120       89.140       70.179       44.002     7946.015     4925.063     1936.151        3.755        0.740      245.538       35.538        0.021      338.671       11.477      859.384
11/18/2013  22:39:00     -175.606      -79.144        1.309      115.061       75.988       55.019    13238.979     5774.158     3027.090        2.957        1.102      192.617       50.975        0.070      338.667       11.471      859.357
11/18/2013  22:40:00      -56.057      -77.748       14.094       73.238       53.890       29.002     5363.828     2904.091      841.133        0.925        0.455       95.850       37.539        0.153      338.670       11.479      859.332
11/18/2013  22:41:00     -123.807       -7.699       -0.981       68.618       55.028       30.485     4708.404     3028.100      929.311        1.203        0.433      124.046       25.706        0.043      338.636       11.420      859.316
11/18/2013  22:42:00     -166.168      -39.072       -0.799       75.072       60.934       42.030     5635.739     3712.892     1766.559        2.012        0.556      170.700       40.208        0.055      338.599       11.358      859.314
11/18/2013  22:43:00     -202.535     -102.378       -6.183       78.804       73.831       35.741     6210.015     5451.001     1277.384        3.224        0.647      226.939       33.326        0.022      338.625       11.400      859.327
11/18/2013  22:44:00     -188.920      -89.474       -0.501       71.888       82.450       38.547     5167.894     6797.948     1485.904        2.857        0.673      209.037       33.613        0.026      338.584       11.332      859.330
11/18/2013  22:45:00     -141.640      -33.273        3.234       71.838       76.032       42.811     5160.657     5780.912     1832.752        1.697        0.639      145.496       35.986        0.061      338.564       11.302      859.314
11/18/2013  22:46:00      -81.071      -61.009       15.190       88.835       55.641       45.230     7891.652     3095.961     2045.754        1.178        0.652      101.463       51.586        0.258      338.576       11.321      859.296
11/18/2013  22:47:00     -106.642      -60.981       -4.946       49.819       58.636       32.127     2481.948     3438.177     1032.166        1.103        0.348      122.846       30.958        0.064      338.564       11.302      859.280
11/18/2013  22:48:00      -70.764      -39.612       10.219       79.490       62.066       30.454     6318.628     3852.230      927.435        0.889        0.555       81.096       35.692        0.194      338.539       11.258      859.280
11/18/2013  22:49:00     -187.534      -74.954       -7.651       75.528       60.006       44.026     5704.487     3600.684     1938.326        2.604        0.562      201.958       42.597        0.044      338.532       11.245      859.302
11/18/2013  22:50:00     -163.898      -84.884       -2.277       73.058       77.857       40.845     5337.466     6061.728     1668.300        2.357        0.653      184.574       34.588        0.035      338.539       11.257      859.306
11/18/2013  22:51:00     -210.449       23.927      -20.357       62.161       53.538       35.777     3863.971     2866.296     1279.964        2.664        0.401      211.805       33.026        0.024      338.551       11.277      859.301
11/18/2013  22:52:00     -234.411       -2.942      -16.054       52.996       63.901       32.974     2808.548     4083.352     1087.274        3.160        0.399      234.429       19.472        0.007      338.585       11.332      859.290
11/18/2013  22:53:00     -134.824       -5.966      -14.613       82.392       45.084       33.460     6788.450     2032.534     1119.594        1.418        0.497      134.956       42.179        0.098      338.562       11.298      859.289
11/18/2013  22:54:00      -77.230      -65.131        9.492       85.826       50.140       39.174     7366.170     2513.997     1534.578        1.085        0.571      101.027       43.545        0.186      338.534       11.252      859.324
11/18/2013  22:55:00       -8.183      -29.284       22.690       41.216       62.065       32.931     1698.769     3852.112     1084.474        0.404        0.332       30.405       33.938        1.246      338.516       11.219      859.364
11/18/2013  22:56:00       -8.812     -126.526        0.456       38.122       41.706       30.799     1453.250     1739.389      948.577        1.011        0.207      126.833       24.283        0.037      338.606       11.371      859.401
11/18/2013  22:57:00      -49.568     -113.521        1.470       35.015       31.984       20.879     1226.068     1022.991      435.924        0.901        0.134      123.871       15.786        0.016      338.592       11.349      859.432
11/18/2013  22:58:00        8.568       21.351       47.847       19.223       23.741       18.272      369.529      563.656      333.852        0.204        0.063       23.006       17.304        0.566      338.529       11.243      859.432
11/18/2013  22:59:00       43.425       42.267       55.612       50.472       27.864       31.251     2547.399      776.427      976.607        0.553        0.215       60.599       30.221        0.249      338.497       11.187      859.428
11/18/2013  23:00:00       67.828       17.518        2.696       33.133       47.195       29.721     1097.796     2227.396      883.322        0.456        0.210       70.053       15.700        0.050      338.311       10.876      859.428
11/18/2013  23:01:00      113.037       16.628       11.953       58.786       59.432       31.357     3455.829     3532.187      983.274        1.058        0.399      114.253       18.478        0.026      338.225       10.731      859.428
11/18/2013  23:02:00      128.718       55.963       19.945       41.437       24.182       26.105     1717.004      584.776      681.471        1.154        0.149      140.357       16.096        0.013      338.205       10.697      859.440
11/18/2013  23:03:00       67.992       51.941       52.218       53.849       33.622       32.649     2899.732     1130.409     1065.960        0.757        0.255       85.562       33.959        0.158      338.186       10.666      859.451
11/18/2013  23:04:00       48.659        2.756       11.058       21.934       29.900       30.422      481.108      894.037      925.475        0.240        0.115       48.737       28.323        0.338      338.272       10.812      859.488
11/18/2013  23:05:00      -17.182       -8.226      -11.159       23.543       24.629       16.758      554.290      606.608      280.838        0.096        0.072       19.050       14.224        0.558      338.334       10.914      859.520
11/18/2013  23:06:00      -40.845      -12.763       -8.569       38.057       27.789       15.989     1448.365      772.206      255.639        0.219        0.124       42.792        9.195        0.046      338.238       10.753      859.545
11/18/2013  23:07:00     -100.560      -47.497       -4.302       48.456       32.866       25.720     2347.968     1080.204      661.520        0.824        0.204      111.213       26.176        0.055      338.170       10.639      859.538
11/18/2013  23:08:00      -89.956      -52.676        0.539       32.591       34.351       17.864     1062.189     1179.978      319.140        0.671        0.128      104.244       17.615        0.029      338.185       10.664      859.534
11/18/2013  23:09:00     -130.540      -60.083        3.358       33.643       29.024       18.682     1131.820      842.391      349.020        1.149        0.116      143.703       17.005        0.014      338.203       10.694      859.527
11/18/2013  23:10:00      -88.749      -32.928        4.990       38.406       28.418       17.548     1474.983      807.564      307.935        0.579        0.130       94.661       15.067        0.025      338.201       10.691      859.533
11/18/2013  23:11:00      -38.121      -37.785        2.801       26.567       20.182       12.819      705.801      407.312      164.316        0.208        0.064       53.674       12.163        0.051      338.248       10.770      859.521
11/18/2013  23:12:00      -19.874       17.084        9.833       12.042       12.669       10.562      145.013      160.496      111.565        0.060        0.021       26.208        2.074        0.006      338.250       10.774      859.502
11/18/2013  23:13:00      -42.035        2.015       -6.369       15.874       15.258        6.862      251.994      232.800       47.092        0.117        0.027       42.083        6.198        0.022      338.333       10.912      859.513
11/18/2013  23:14:00     -134.348        8.167      -17.842       34.400       20.758       10.445     1183.345      430.897      109.096        1.008        0.086      134.596       12.630        0.009      338.270       10.806      859.537
11/18/2013  23:15:00     -181.471       12.692      -20.722       31.998       28.659       16.762     1023.876      821.331      280.972        1.782        0.106      181.914       16.021        0.008      338.183       10.661      859.569
11/18/2013  23:16:00     -149.620      -55.283      -11.273       43.362       44.987       22.789     1880.282     2023.867      519.354        1.500        0.221      159.506       19.644        0.015      338.158       10.619      859.611
11/18/2013  23:17:00     -122.113      -30.633       -2.811       29.382       21.650       22.704      863.305      468.738      515.473        0.885        0.092      125.897       18.550        0.022      338.207       10.700      859.621
11/18/2013  23:18:00     -121.179      -49.731      -16.252       29.672       25.609       16.693      880.445      655.834      278.655        0.962        0.091      130.986        9.287        0.005      338.211       10.707      859.616
11/18/2013  23:19:00     -120.359      -42.907       -8.573       28.856       20.275       16.763      832.648      411.096      280.985        0.896        0.076      127.778       13.934        0.012      338.168       10.635      859.610
11/18/2013  23:20:00     -181.202      -92.477       -0.745       94.780       63.303       38.057     8983.237     4007.212     1448.300        2.791        0.722      203.436       40.211        0.039      338.320       10.888      859.598
11/18/2013  23:21:00     -212.885        3.592      -13.678       99.157       70.790       48.912     9832.179     5011.213     2392.419        3.137        0.862      212.916       50.509        0.056      338.433       11.078      859.565
11/18/2013  23:22:00     -153.200      -11.282        1.027      118.004       61.520       41.772    13924.947     3784.725     1744.883        2.152        0.973      153.614       54.981        0.128      338.326       10.900      859.565
11/18/2013  23:23:00     -135.052     -135.572        0.556      130.095      138.550       55.424    16924.619    19196.077     3071.793        3.790        1.960      191.361       78.589        0.169      338.392       11.009      859.535
11/18/2013  23:24:00      -62.332      -31.473       -1.547       62.842       61.074       35.615     3949.170     3730.063     1268.452        0.691        0.447       69.827       35.595        0.260      338.330       10.907      859.496
11/18/2013  23:25:00       -1.965       22.269       -2.066       29.301       30.250       25.823      858.538      915.046      666.832        0.147        0.122       22.356       16.953        0.575      338.308       10.872      859.458
11/18/2013  23:26:00      -22.050       39.913       -6.306       27.533       32.869       24.879      758.089     1080.349      618.966        0.229        0.123       45.598        8.669        0.036      338.325       10.899      859.401
11/18/2013  23:27:00      -14.660       30.403        5.601       24.168       27.426       22.461      584.074      752.207      504.479        0.151        0.092       33.753       12.234        0.131      338.344       10.932      859.381
11/18/2013  23:28:00        1.024        6.651        7.604       25.455       21.152       16.908      647.946      447.420      285.895        0.074        0.069        6.729       11.874        3.114      338.326       10.902      859.389
11/18/2013  23:29:00      -98.888       12.822      -10.769       49.229       23.258       16.720     2423.470      540.938      279.547        0.665        0.162       99.716        7.522        0.006      338.336       10.919      859.420
11/18/2013  23:30:00     -143.768      -87.587      -11.209       83.419       62.301       43.458     6958.680     3881.470     1888.597        2.059        0.636      168.347       44.069        0.069      338.350       10.940      859.442
11/18/2013  23:31:00     -139.831      -45.306        6.145      103.138       78.257       46.051    10637.543     6124.086     2120.726        2.026        0.944      146.987       51.160        0.121      338.294       10.846      859.456
11/18/2013  23:32:00     -120.283      -39.989       13.571       83.462       52.901       43.484     6965.860     2798.474     1890.829        1.395        0.583      126.757       47.119        0.138      338.268       10.804      859.485
11/18/2013  23:33:00     -278.429     -117.010      -16.901      100.029       68.303       50.531    10005.896     4665.328     2553.365        5.436        0.861      302.017       49.547        0.027      338.326       10.898      859.536
11/18/2013  23:34:00     -179.223      -69.335       -2.089      102.496       62.411       43.114    10505.369     3895.101     1858.835        2.659        0.813      192.167       49.130        0.065      338.361       10.958      859.564
11/18/2013  23:35:00     -117.395      -52.573        2.466       80.305       52.979       35.305     6448.896     2806.752     1246.437        1.352        0.525      128.630       25.810        0.040      338.286       10.834      859.579
11/18/2013  23:36:00     -129.970     -102.645       -0.795       75.258       63.692       36.864     5663.724     4056.697     1358.934        1.925        0.554      165.615       30.186        0.033      338.353       10.945      859.583
11/18/2013  23:37:00      -73.662      -67.518      -10.478       58.586       30.269       25.001     3432.349      916.212      625.075        0.753        0.249       99.924       20.134        0.041      338.443       11.098      859.544
11/18/2013  23:38:00       10.549      -37.780        0.417       49.455       63.586       34.523     2445.780     4043.231     1191.842        0.461        0.384       39.226       40.212        1.051      338.383       10.996      859.486
11/18/2013  23:39:00       12.331      -11.047       25.103       32.074       43.703       27.832     1028.721     1909.979      774.606        0.231        0.186       16.555       31.136        3.537      338.359       10.957      859.470
11/18/2013  23:40:00       24.198       19.833       45.035       54.157       52.311       34.228     2933.000     2736.444     1171.544        0.492        0.342       31.287       32.846        1.102      338.434       11.082      859.465
11/18/2013  23:41:00      -87.404       -6.050       -1.412       29.584       41.559       19.644      875.206     1727.110      385.886        0.533        0.149       87.613       11.827        0.018      338.425       11.067      859.478
11/18/2013  23:42:00     -137.616      -96.017       -7.958       88.569       59.051       43.172     7844.503     3487.046     1863.797        2.071        0.660      167.801       43.023        0.066      338.415       11.048      859.476
11/18/2013  23:43:00     -202.618      -37.122        0.159      100.991       58.684       36.656    10199.211     3443.840     1343.662        2.871        0.749      205.990       42.640        0.043      338.340       10.923      859.473
11/18/2013  23:44:00     -187.269      -32.280       -5.874       75.610       50.258       38.261     5716.797     2525.879     1463.879        2.292        0.485      190.031       42.363        0.050      338.456       11.117      859.468
11/18/2013  23:45:00      -47.300     -120.896        9.503       36.115       45.093       24.684     1304.317     2033.336      609.320        1.044        0.197      129.820       15.031        0.013      338.479       11.158      859.443
11/18/2013  23:46:00      -64.093     -155.356       -2.590       41.485       27.905       25.928     1721.028      778.666      672.262        1.571        0.159      168.058       13.157        0.006      338.530       11.244      859.408
11/18/2013  23:47:00      -63.278     -145.245       -8.495       71.381       40.581       30.667     5095.199     1646.823      940.469        1.643        0.384      158.430       25.988        0.027      338.558       11.291      859.410
11/18/2013  23:48:00      -49.122     -119.564       -8.647       79.498       44.071       36.146     6319.947     1942.276     1306.530        1.317        0.478      129.261       37.204        0.083      338.506       11.204      859.410
11/18/2013  23:49:00      -67.707     -129.372      -11.578       43.170       41.215       24.744     1863.661     1698.693      612.273        1.281        0.209      146.019       21.174        0.021      338.489       11.176      859.408
11/18/2013  23:50:00      -60.784     -106.186      -12.664       28.198       31.086       23.044      795.115      966.314      531.046        0.871        0.115      122.353       12.622        0.011      338.514       11.218      859.417
11/18/2013  23:51:00      -98.257      -69.098        1.778       53.440       37.881       22.922     2855.802     1434.997      525.405        0.962        0.241      120.121       17.113        0.020      338.463       11.131      859.428
11/18/2013  23:52:00      -86.716      -49.123        0.475       47.218       34.024       21.921     2229.522     1157.652      480.509        0.690        0.193       99.663       21.110        0.045      338.393       11.013      859.413
11/18/2013  23:53:00      -21.961        4.143        8.872       33.164       23.184       24.290     1099.823      537.481      589.990        0.140        0.111       22.349       24.935        1.245      338.375       10.982      859.381
11/18/2013  23:54:00      -90.513      -45.426       -3.910       29.003       16.818       15.585      841.189      282.845      242.879        0.582        0.068      101.272       11.771        0.014      338.437       11.088      859.355
11/18/2013  23:55:00      -44.883      -10.792       -2.288       19.534       34.974       15.102      381.570     1223.205      228.085        0.198        0.092       46.162        9.162        0.039      338.387       11.005      859.296
11/18/2013  23:56:00      -34.819       -0.428       -6.095       11.745       36.554       11.445      137.941     1336.187      130.981        0.143        0.080       34.822       10.536        0.092      338.318       10.887      859.266
11/18/2013  23:57:00      -69.503      -54.180       -2.722       27.753       45.011       16.619      770.233     2025.991      276.202        0.542        0.154       88.126       16.591        0.035      338.279       10.824      859.279
11/18/2013  23:58:00      -77.831      -35.788       -6.528       29.288       24.542       18.798      857.763      602.331      353.383        0.460        0.091       85.664       10.967        0.016      338.275       10.816      859.270
11/18/2013  23:59:00     -181.037      -77.331      -14.535       76.647       33.815       29.945     5874.793     1143.481      896.685        2.344        0.396      196.862       32.373        0.027      338.312       10.878      859.266
